[[{"header":{"parameterUnit":"m.s-1","parameterCategory":1,"la1":31.0,"la2":29.5877,"lo1":-88.7671,"lo2":-86.6584,"dy":0.0162,"dx":0.0185,"nx":115,"ny":88,"refTime":"2023-06-07T06:00:00:Z","depth":0,"parameterNumber":2,"parameterNumberName":"U-component_of_WINDS"},"data":[0.0,0.0,0.0,0.0,0.0,0.0,0.0,0.0,0.0,0.0,0.0,0.0,0.0,0.0,0.0,0.0,0.0,0.0,0.0,0.0,0.0,0.0,0.0,0.0,0.0,0.0,0.0,0.0,0.0,0.0,0.0,0.0,0.0,0.0,0.0,0.0,0.0,0.0,0.0,0.0,0.0,0.0,0.0,0.0,0.0,0.0,0.0,0.0,0.0,0.0,0.0,0.0,0.0,0.0,0.0,0.0,0.0,0.0,0.0,0.0,0.0,0.0,0.0,0.0,0.0,0.0,0.0,0.0,0.0,0.0,0.0,0.0,0.0,0.0,0.0,0.0,0.0,0.0,0.0,0.0,0.0,0.0,0.0,0.0,0.0,0.0,0.0,0.0,0.0,0.0,0.0,0.0,0.0,0.0,0.0,0.0,0.0,0.0,0.0,0.0,0.0,0.0,0.0,0.0,0.0,0.0,0.0,0.0,0.0,0.0,0.0,0.0,0.0,0.0,0.0,0.0,0.0,0.0,0.0,0.0,0.0,0.0,0.0,0.0,0.0,0.0,0.0,0.0,0.0,0.0,0.0,0.0,0.0,0.0,0.0,0.0,0.0,0.0,0.0,0.0,0.0,0.0,0.0,0.0,0.0,0.0,0.0,0.0,0.0,0.0,0.0,0.0,0.0,0.0,0.0,0.0,0.0,0.0,0.0,0.0,0.0,0.0,0.0,0.0,0.0,0.0,0.0,0.0,0.0,0.0,0.0,0.0,0.0,0.0,0.0,0.0,0.0,0.0,0.0,0.0,0.0,0.0,0.0,0.0,0.0,0.0,0.0,0.0,0.0,0.0,0.0,0.0,0.0,0.0,0.0,0.0,0.0,0.0,0.0,0.0,0.0,0.0,0.0,0.0,0.0,0.0,0.0,0.0,0.0,0.0,0.0,0.0,0.0,0.0,0.0,0.0,0.0,0.0,0.0,0.0,0.0,0.0,0.0,0.0,0.0,0.0,0.0,0.0,0.0,0.0,0.0,0.0,0.0,0.0,0.0,0.0,0.0,0.0,0.0,0.0,0.0,0.0,0.0,0.0,0.0,0.0,0.0,0.0,0.0,0.0,0.0,0.0,0.0,0.0,0.0,0.0,0.0,0.0,0.0,0.0,0.0,0.0,0.0,0.0,0.0,0.0,0.0,0.0,0.0,0.0,0.0,0.0,0.0,0.0,0.0,0.0,0.0,0.0,0.0,0.0,0.0,0.0,0.0,0.0,0.0,0.0,0.0,0.0,0.0,0.0,0.0,0.0,0.0,0.0,0.0,0.0,0.0,0.0,0.0,0.0,0.0,0.0,0.0,0.0,0.0,0.0,0.0,0.0,0.0,0.0,0.0,0.0,0.0,0.0,0.0,0.0,0.0,0.0,0.0,0.0,0.0,0.0,0.0,0.0,0.0,0.0,0.0,0.0,0.0,0.0,0.0,0.0,0.0,0.0,0.0,0.0,0.0,0.0,0.0,0.0,0.0,0.0,0.0,0.0,0.0,0.0,0.0,0.0,0.0,0.0,0.0,0.0,0.0,0.0,0.0,0.0,0.0,0.0,0.0,0.0,0.0,0.0,0.0,0.0,0.0,0.0,0.0,0.0,0.0,0.0,0.0,0.0,0.0,0.0,0.0,0.0,0.0,0.0,0.0,0.0,0.0,0.0,0.0,0.0,0.0,0.0,0.0,0.0,0.0,0.0,0.0,0.0,0.0,0.0,0.0,0.0,0.0,0.0,0.0,0.0,0.0,0.0,0.0,0.0,0.0,0.0,0.0,0.0,0.0,0.0,0.0,0.0,0.0,0.0,0.0,0.0,0.0,0.0,0.0,0.0,0.0,0.0,0.0,0.0,0.0,0.0,0.0,0.0,0.0,0.0,0.0,0.0,0.0,0.0,0.0,0.0,0.0,0.0,0.0,0.0,0.0,0.0,0.0,0.0,0.0,0.0,0.0,0.0,0.0,0.0,0.0,0.0,0.0,0.0,0.0,0.0,0.0,0.0,0.0,0.0,0.0,0.0,0.0,0.0,0.0,0.0,0.0,0.0,0.0,0.0,0.0,0.0,0.0,0.0,0.0,0.0,0.0,0.0,0.0,0.0,0.0,0.0,0.0,0.0,0.0,0.0,0.0,0.0,0.0,0.0,0.0,0.0,0.0,0.0,0.0,0.0,0.0,0.0,0.0,0.0,0.0,0.0,0.0,0.0,0.0,0.0,0.0,0.0,0.0,0.0,0.0,0.0,0.0,0.0,0.0,0.0,0.0,0.0,0.0,0.0,0.0,0.0,0.0,0.0,0.0,0.0,0.0,0.0,0.0,0.0,0.0,0.0,0.0,0.0,0.0,0.0,0.0,0.0,0.0,0.0,0.0,0.0,0.0,0.0,0.0,0.0,0.0,0.0,0.0,0.0,0.0,0.0,0.0,0.0,0.0,0.0,0.0,0.0,0.0,0.0,0.0,0.0,0.0,0.0,0.0,0.0,0.0,0.0,0.0,0.0,0.0,0.0,0.0,0.0,0.0,0.0,0.0,0.0,0.0,0.0,0.0,0.0,0.0,0.0,0.0,0.0,0.0,0.0,0.0,0.0,0.0,0.0,0.0,0.0,0.0,0.0,0.0,0.0,0.0,0.0,0.0,0.0,0.0,0.0,0.0,0.0,0.0,0.0,0.0,0.0,0.0,0.0,0.0,0.0,0.0,0.0,0.0,0.0,0.0,0.0,0.0,0.0,0.0,0.0,0.0,0.0,0.0,0.0,0.0,0.0,0.0,0.0,0.0,0.0,0.0,0.0,0.0,0.0,0.0,0.0,0.0,0.0,0.0,0.0,0.0,0.0,0.0,0.0,0.0,0.0,0.0,0.0,0.0,0.0,0.0,0.0,0.0,0.0,0.0,0.0,0.0,0.0,0.0,0.0,0.0,0.0,0.0,0.0,0.0,0.0,0.0,0.0,0.0,0.0,0.0,0.0,0.0,0.0,0.0,0.0,0.0,0.0,0.0,0.0,0.0,0.0,0.0,0.0,0.0,0.0,0.0,0.0,0.0,0.0,0.0,0.0,0.0,0.0,0.0,0.0,0.0,0.0,0.0,0.0,0.0,0.0,0.0,0.0,0.0,0.0,0.0,0.0,0.0,0.0,0.0,0.0,0.0,0.0,0.0,0.0,0.0,0.0,0.0,0.0,0.0,0.0,0.0,0.0,0.0,0.0,0.0,0.0,0.0,0.0,0.0,0.0,0.0,0.0,0.0,0.0,0.0,0.0,0.0,0.0,0.0,0.0,0.0,0.0,0.0,0.0,0.0,0.0,0.0,0.0,0.0,0.0,0.0,0.0,0.0,0.0,0.0,0.0,0.0,0.0,0.0,0.0,0.0,0.0,0.0,0.0,0.0,0.0,0.0,0.0,0.0,0.0,0.0,0.0,0.0,0.0,0.0,0.0,0.0,0.0,0.0,0.0,0.0,0.0,0.0,0.0,0.0,0.0,0.0,0.0,0.0,0.0,0.0,0.0,0.0,0.0,0.0,0.0,0.0,0.0,0.0,0.0,0.0,0.0,0.0,0.0,0.0,0.0,0.0,0.0,0.0,0.0,0.0,0.0,0.0,0.0,0.0,0.0,0.0,0.0,0.0,0.0,0.0,0.0,0.0,0.0,0.0,0.0,0.0,0.0,0.0,0.0,0.0,0.0,0.0,0.0,0.0,0.0,0.0,0.0,0.0,0.0,0.0,0.0,0.0,0.0,0.0,0.0,0.0,0.0,0.0,0.0,0.0,0.0,0.0,0.0,0.0,0.0,0.0,0.0,0.0,0.0,0.0,0.0,0.0,0.0,0.0,0.0,0.0,0.0,0.0,0.0,0.0,0.0,0.0,0.0,0.0,0.0,0.0,0.0,0.0,0.0,0.0,0.0,0.0,0.0,0.0,0.0,0.0,0.0,0.0,0.0,0.0,0.0,0.0,0.0,0.0,0.0,0.0,0.0,0.0,0.0,0.0,0.0,0.0,0.0,0.0,0.0,0.0,0.0,0.0,0.0,0.0,0.0,0.0,0.0,0.0,0.0,0.0,0.0,0.0,0.0,0.0,0.0,0.0,0.0,0.0,0.0,0.0,0.0,0.0,0.0,0.0,0.0,0.0,0.0,0.0,0.0,0.0,0.0,0.0,0.0,0.0,0.0,0.0,0.0,0.0,0.0,0.0,0.0,0.0,0.0,0.0,0.0,0.0,0.0,0.0,0.0,0.0,0.0,0.0,0.0,-1.0591,0.0,0.0,0.0,0.0,0.0,0.0,0.0,0.0,0.0,0.0,0.0,0.0,0.0,0.0,0.0,0.0,0.0,0.0,0.0,0.0,0.0,0.0,0.0,0.0,0.0,0.0,0.0,0.0,0.0,0.0,0.0,0.0,0.0,0.0,0.0,0.0,0.0,0.0,0.0,0.0,0.0,0.0,0.0,0.0,0.0,0.0,0.0,0.0,0.0,0.0,0.0,0.0,0.0,0.0,0.0,0.0,0.0,0.0,0.0,0.0,0.0,0.0,0.0,0.0,0.0,0.0,0.0,0.0,0.0,0.0,0.0,0.0,0.0,0.0,0.0,0.0,0.0,0.0,0.0,0.0,0.0,0.0,0.0,0.0,0.0,0.0,0.0,0.0,0.0,0.0,0.0,0.0,0.0,0.0,0.0,0.0,0.0,0.0,0.0,0.0,0.0,0.0,0.0,0.0,0.0,0.0,0.0,0.0,0.0,0.0,-1.033,-1.1504,-1.1589,-1.2029,-1.2947,0.0,0.0,0.0,0.0,0.0,0.0,0.0,0.0,0.0,0.0,0.0,0.0,0.0,0.0,0.0,0.0,0.0,0.0,0.0,0.0,0.0,0.0,0.0,0.0,0.0,0.0,0.0,0.0,0.0,0.0,0.0,0.0,0.0,0.0,0.0,0.0,0.0,0.0,0.0,0.0,0.0,0.0,0.0,0.0,0.0,0.0,0.0,0.0,0.0,0.0,0.0,0.0,0.0,0.0,0.0,0.0,0.0,0.0,0.0,0.0,0.0,0.0,0.0,0.0,0.0,0.0,0.0,0.0,0.0,0.0,0.0,0.0,0.0,0.0,0.0,0.0,0.0,0.0,0.0,0.0,0.0,0.0,0.0,0.0,0.0,0.0,0.0,0.0,0.0,0.0,0.0,0.0,0.0,0.0,0.0,0.0,0.0,0.0,0.0,0.0,0.0,0.0,0.0,0.0,0.0,0.0,0.0,0.0,0.0,0.0,0.0,0.0,-1.3223,-1.3687,-1.4777,0.0,0.0,0.0,0.0,0.0,0.0,0.0,0.0,0.0,0.0,0.0,0.0,0.0,0.0,0.0,0.0,0.0,0.0,0.0,0.0,0.0,0.0,0.0,0.0,0.0,0.0,0.0,0.0,0.0,0.0,0.0,0.0,0.0,0.0,0.0,0.0,0.0,0.0,0.0,0.0,0.0,0.0,0.0,0.0,0.0,0.0,0.0,0.0,0.0,0.0,0.0,0.0,0.0,0.0,0.0,0.0,0.0,0.0,0.0,0.0,0.0,0.0,0.0,0.0,0.0,0.0,0.0,0.0,0.0,0.0,0.0,0.0,0.0,0.0,0.0,0.0,0.0,0.0,0.0,0.0,0.0,0.0,0.0,0.0,0.0,0.0,0.0,0.0,0.0,0.0,0.0,0.0,0.0,0.0,0.0,0.0,0.0,0.0,0.0,0.0,0.0,0.0,0.0,0.0,0.0,0.0,0.0,0.0,0.0,0.0,-1.2842,-1.4605,-1.4451,0.0,-1.4893,0.0,0.0,0.0,0.0,0.0,0.0,0.0,0.0,0.0,0.0,0.0,0.0,0.0,0.0,0.0,0.0,0.0,0.0,0.0,0.0,0.0,0.0,0.0,0.0,0.0,0.0,0.0,0.0,0.0,0.0,0.0,0.0,0.0,0.0,0.0,0.0,0.0,0.0,0.0,0.0,0.0,0.0,0.0,0.0,0.0,0.0,0.0,0.0,0.0,0.0,0.0,0.0,0.0,0.0,0.0,0.0,0.0,0.0,0.0,0.0,0.0,0.0,0.0,0.0,0.0,0.0,0.0,0.0,0.0,0.0,0.0,0.0,0.0,0.0,0.0,0.0,0.0,0.0,0.0,0.0,0.0,0.0,0.0,0.0,0.0,0.0,0.0,0.0,0.0,0.0,0.0,0.0,0.0,0.0,0.0,0.0,0.0,0.0,0.0,0.0,0.0,0.0,0.0,0.0,0.0,0.0,0.0,0.0,0.0,0.0,-1.4356,-1.605,-1.7252,-1.7913,0.0,0.0,0.0,0.0,0.0,0.0,0.0,0.0,0.0,0.0,0.0,0.0,0.0,0.0,0.0,0.0,0.0,0.0,0.0,0.0,0.0,0.0,0.0,0.0,0.0,0.0,0.0,0.0,0.0,0.0,0.0,0.0,0.0,0.0,0.0,0.0,0.0,0.0,0.0,0.0,0.0,0.0,0.0,0.0,0.0,0.0,0.0,0.0,0.0,0.0,0.0,0.0,0.0,0.0,0.0,0.0,0.0,0.0,0.0,0.0,0.0,0.0,0.0,0.0,0.0,0.0,0.0,0.0,0.0,0.0,0.0,0.0,0.0,0.0,0.0,0.0,0.0,0.0,0.0,0.0,0.0,0.0,0.0,0.0,0.0,0.0,0.0,0.0,0.0,0.0,0.0,0.0,0.0,0.0,0.0,0.0,0.0,0.0,0.0,0.0,0.0,0.0,0.0,0.0,0.0,0.0,0.0,0.0,0.0,0.0,-1.428,-1.5809,-1.7619,-1.9136,-2.0024,-1.9973,0.0,0.0,0.0,0.0,0.0,0.0,0.0,0.0,0.0,0.0,0.0,0.0,0.0,0.0,0.0,0.0,0.0,0.0,0.0,0.0,0.0,0.0,0.0,0.0,0.0,0.0,0.0,0.0,0.0,0.0,0.0,0.0,0.0,0.0,0.0,0.0,0.0,0.0,0.0,0.0,0.0,0.0,0.0,0.0,0.0,0.0,0.0,0.0,0.0,0.0,0.0,0.0,0.0,0.0,0.0,0.0,0.0,0.0,0.0,0.0,0.0,0.0,0.0,0.0,0.0,0.0,0.0,0.0,0.0,0.0,0.0,0.0,0.0,0.0,0.0,0.0,0.0,0.0,0.0,0.0,0.0,0.0,0.0,0.0,0.0,0.0,0.0,0.0,0.0,0.0,0.0,0.0,0.0,0.0,0.0,0.0,0.0,0.0,0.0,0.0,0.0,0.0,0.0,0.0,0.0,0.0,0.0,0.0,-1.6451,-1.6508,-1.748,-1.9486,-1.9687,-1.9707,0.0,0.0,0.0,0.0,0.0,0.0,0.0,0.0,0.0,0.0,0.0,0.0,0.0,0.0,0.0,0.0,0.0,0.0,0.0,0.0,0.0,0.0,0.0,0.0,0.0,0.0,0.0,0.0,0.0,0.0,0.0,0.0,0.0,0.0,0.0,0.0,0.0,0.0,0.0,0.0,0.0,0.0,0.0,0.0,0.0,0.0,0.0,0.0,0.0,0.0,0.0,0.0,0.0,0.0,0.0,0.0,0.0,0.0,0.0,0.0,0.0,0.0,0.0,0.0,0.0,0.0,0.0,0.0,0.0,0.0,0.0,0.0,0.0,0.0,0.0,0.0,0.0,0.0,0.0,0.0,0.0,0.0,0.0,0.0,0.0,0.0,0.0,0.0,0.0,0.0,0.0,0.0,0.0,0.0,0.0,0.0,0.0,0.0,0.0,0.0,0.0,0.0,0.0,0.0,0.0,0.0,0.0,0.0,0.0,-1.6286,-1.7565,-1.9221,-2.1185,-2.0684,-2.0802,0.0,0.0,0.0,0.0,0.0,0.0,0.0,0.0,0.0,0.0,0.0,0.0,0.0,0.0,0.0,0.0,0.0,0.0,0.0,0.0,0.0,0.0,0.0,0.0,0.0,0.0,0.0,0.0,0.0,0.0,0.0,0.0,0.0,0.0,0.0,0.0,0.0,0.0,0.0,0.0,0.0,0.0,0.0,0.0,0.0,0.0,0.0,0.0,0.0,0.0,0.0,0.0,0.0,0.0,0.0,0.0,0.0,0.0,0.0,0.0,0.0,0.0,0.0,0.0,0.0,0.0,0.0,0.0,0.0,0.0,0.0,0.0,0.0,0.0,0.0,0.0,0.0,0.0,0.0,0.0,0.0,0.0,0.0,0.0,0.0,0.0,0.0,0.0,0.0,0.0,0.0,0.0,0.0,0.0,0.0,0.0,0.0,0.0,0.0,0.0,0.0,0.0,0.0,0.0,0.0,0.0,0.0,0.0,0.0,-1.779,0.0,-2.151,-2.3007,-2.2428,-2.2269,0.0,0.0,0.0,0.0,0.0,0.0,0.0,0.0,0.0,0.0,0.0,0.0,0.0,0.0,0.0,0.0,0.0,0.0,0.0,0.0,0.0,0.0,0.0,0.0,0.0,0.0,0.0,0.0,0.0,0.0,0.0,0.0,0.0,0.0,0.0,0.0,0.0,0.0,0.0,0.0,0.0,0.0,0.0,0.0,0.0,0.0,0.0,0.0,0.0,0.0,0.0,0.0,0.0,0.0,0.0,0.0,0.0,0.0,0.0,0.0,0.0,0.0,0.0,0.0,0.0,0.0,0.0,0.0,0.0,0.0,0.0,0.0,0.0,0.0,0.0,0.0,0.0,0.0,0.0,0.0,0.0,0.0,0.0,0.0,0.0,0.0,0.0,0.0,0.0,0.0,0.0,0.0,0.0,0.0,0.0,0.0,0.0,0.0,0.0,0.0,0.0,0.0,0.0,0.0,0.0,0.0,0.0,0.0,-1.7903,-2.1455,-2.3142,-2.415,-2.4992,-2.4577,-2.397,0.0,0.0,0.0,0.0,0.0,0.0,0.0,0.0,0.0,0.0,0.0,0.0,0.0,0.0,0.0,0.0,0.0,0.0,0.0,0.0,0.0,0.0,0.0,0.0,0.0,0.0,0.0,0.0,0.0,0.0,0.0,0.0,0.0,0.0,0.0,0.0,0.0,0.0,0.0,0.0,0.0,0.0,0.0,0.0,0.0,0.0,0.0,0.0,0.0,0.0,0.0,0.0,0.0,0.0,0.0,0.0,0.0,0.0,0.0,0.0,0.0,0.0,0.0,0.0,0.0,0.0,0.0,0.0,0.0,0.0,0.0,0.0,0.0,0.0,0.0,0.0,0.0,0.0,0.0,0.0,0.0,0.0,0.0,0.0,0.0,0.0,0.0,0.0,0.0,0.0,0.0,0.0,0.0,0.0,0.0,0.0,0.0,0.0,0.0,0.0,0.0,0.0,0.0,0.0,0.0,0.0,0.0,0.0,0.0,-2.1343,-2.2945,-2.4331,-2.5612,-2.4946,-2.4464,0.0,0.0,0.0,0.0,0.0,0.0,0.0,0.0,0.0,0.0,0.0,0.0,0.0,0.0,0.0,0.0,0.0,0.0,0.0,0.0,0.0,0.0,0.0,0.0,0.0,0.0,0.0,0.0,0.0,0.0,0.0,0.0,0.0,0.0,0.0,0.0,0.0,0.0,0.0,0.0,0.0,0.0,0.0,0.0,0.0,0.0,0.0,0.0,0.0,0.0,0.0,0.0,0.0,0.0,0.0,0.0,0.0,0.0,0.0,0.0,0.0,0.0,0.0,0.0,0.0,0.0,0.0,0.0,0.0,0.0,0.0,0.0,0.0,0.0,0.0,0.0,0.0,0.0,0.0,0.0,0.0,0.0,0.0,0.0,0.0,0.0,0.0,0.0,0.0,0.0,0.0,0.0,0.0,0.0,0.0,0.0,0.0,0.0,0.0,0.0,0.0,0.0,0.0,0.0,0.0,0.0,0.0,0.0,0.0,-2.2659,-2.4236,-2.572,-2.6804,-2.6473,-2.6052,-2.5774,0.0,0.0,0.0,0.0,0.0,0.0,0.0,0.0,0.0,0.0,0.0,0.0,0.0,0.0,0.0,0.0,0.0,0.0,0.0,0.0,0.0,0.0,0.0,0.0,0.0,0.0,0.0,0.0,0.0,0.0,0.0,0.0,0.0,0.0,0.0,0.0,0.0,0.0,0.0,0.0,0.0,0.0,0.0,0.0,0.0,0.0,0.0,0.0,0.0,0.0,0.0,0.0,0.0,0.0,0.0,0.0,0.0,0.0,0.0,0.0,0.0,0.0,0.0,0.0,0.0,0.0,0.0,0.0,0.0,0.0,0.0,0.0,0.0,0.0,0.0,0.0,0.0,0.0,0.0,0.0,0.0,0.0,0.0,0.0,0.0,0.0,0.0,0.0,0.0,0.0,0.0,0.0,0.0,0.0,0.0,0.0,0.0,0.0,0.0,0.0,0.0,0.0,0.0,0.0,0.0,0.0,0.0,0.0,-2.4898,-2.678,-2.7948,-2.8333,-2.8755,-2.837,0.0,0.0,0.0,0.0,0.0,0.0,0.0,0.0,0.0,0.0,0.0,0.0,0.0,0.0,0.0,0.0,0.0,0.0,0.0,0.0,0.0,0.0,0.0,0.0,0.0,0.0,0.0,0.0,0.0,0.0,0.0,0.0,0.0,0.0,0.0,0.0,0.0,0.0,0.0,0.0,0.0,0.0,0.0,0.0,0.0,0.0,0.0,0.0,0.0,0.0,0.0,0.0,0.0,0.0,0.0,0.0,0.0,0.0,0.0,0.0,0.0,0.0,0.0,0.0,0.0,0.0,0.0,0.0,0.0,0.0,0.0,0.0,0.0,0.0,0.0,0.0,0.0,0.0,0.0,0.0,0.0,0.0,0.0,0.0,0.0,0.0,0.0,0.0,0.0,0.0,0.0,0.0,0.0,0.0,0.0,0.0,0.0,0.0,0.0,0.0,0.0,0.0,0.0,0.0,0.0,0.0,0.0,0.0,0.0,-2.6364,-2.7576,-2.8048,-2.7939,-2.8618,-2.837,0.0,0.0,0.0,0.0,0.0,0.0,0.0,0.0,0.0,0.0,0.0,0.0,0.0,0.0,0.0,0.0,0.0,0.0,0.0,0.0,0.0,0.0,0.0,0.0,0.0,0.0,0.0,0.0,0.0,0.0,0.0,0.0,0.0,0.0,0.0,0.0,0.0,0.0,0.0,0.0,0.0,0.0,0.0,0.0,0.0,0.0,0.0,0.0,0.0,0.0,0.0,0.0,0.0,0.0,0.0,0.0,0.0,0.0,0.0,0.0,0.0,0.0,0.0,0.0,0.0,0.0,0.0,0.0,0.0,0.0,0.0,0.0,0.0,0.0,0.0,0.0,0.0,0.0,0.0,0.0,0.0,0.0,0.0,0.0,0.0,0.0,0.0,0.0,0.0,0.0,0.0,0.0,0.0,0.0,0.0,0.0,0.0,0.0,0.0,0.0,0.0,0.0,0.0,0.0,0.0,0.0,0.0,0.0,-2.6008,-2.6999,-2.794,-2.8247,-2.8002,-2.8797,-2.8728,0.0,0.0,0.0,0.0,0.0,0.0,0.0,0.0,0.0,0.0,0.0,0.0,0.0,0.0,0.0,0.0,0.0,0.0,0.0,0.0,0.0,0.0,0.0,0.0,0.0,0.0,0.0,0.0,0.0,0.0,0.0,0.0,0.0,0.0,0.0,0.0,0.0,0.0,0.0,0.0,0.0,0.0,0.0,0.0,0.0,0.0,0.0,0.0,0.0,0.0,0.0,0.0,0.0,0.0,0.0,0.0,0.0,0.0,0.0,0.0,0.0,0.0,0.0,0.0,0.0,0.0,0.0,0.0,0.0,0.0,0.0,0.0,0.0,0.0,0.0,0.0,0.0,0.0,0.0,0.0,0.0,0.0,0.0,0.0,0.0,0.0,0.0,0.0,0.0,0.0,0.0,0.0,0.0,0.0,0.0,0.0,0.0,0.0,0.0,0.0,0.0,0.0,0.0,0.0,0.0,0.0,0.0,0.0,-2.6682,-2.6999,-2.807,-2.8502,-2.8257,-2.9012,-2.9331,0.0,0.0,0.0,0.0,0.0,0.0,0.0,0.0,0.0,0.0,0.0,0.0,0.0,0.0,0.0,0.0,0.0,0.0,0.0,0.0,0.0,0.0,0.0,0.0,0.0,0.0,0.0,0.0,0.0,0.0,0.0,0.0,0.0,0.0,0.0,0.0,0.0,0.0,0.0,0.0,0.0,0.0,0.0,0.0,0.0,0.0,0.0,0.0,0.0,0.0,0.0,0.0,0.0,0.0,0.0,0.0,0.0,0.0,0.0,0.0,0.0,0.0,0.0,0.0,0.0,0.0,0.0,0.0,0.0,0.0,0.0,0.0,0.0,0.0,0.0,0.0,0.0,0.0,0.0,0.0,0.0,0.0,0.0,0.0,0.0,0.0,0.0,0.0,0.0,0.0,0.0,0.0,0.0,0.0,0.0,0.0,0.0,0.0,0.0,0.0,0.0,0.0,0.0,0.0,0.0,0.0,0.0,0.0,-2.6691,-2.7008,-2.8014,-2.8446,-2.8229,-2.9012,-2.9331,0.0,0.0,0.0,0.0,0.0,0.0,0.0,0.0,0.0,0.0,0.0,0.0,0.0,0.0,0.0,0.0,0.0,0.0,0.0,0.0,0.0,0.0,0.0,0.0,0.0,0.0,0.0,0.0,0.0,0.0,0.0,0.0,0.0,0.0,0.0,0.0,0.0,0.0,0.0,0.0,0.0,0.0,0.0,0.0,0.0,0.0,0.0,0.0,-2.9922,0.0,0.0,0.0,0.0,0.0,0.0,0.0,0.0,0.0,0.0,0.0,0.0,0.0,0.0,0.0,0.0,0.0,0.0,0.0,0.0,0.0,0.0,0.0,0.0,0.0,0.0,0.0,0.0,0.0,0.0,0.0,0.0,0.0,0.0,0.0,0.0,0.0,0.0,0.0,0.0,0.0,0.0,0.0,0.0,0.0,0.0,0.0,0.0,0.0,0.0,0.0,0.0,0.0,0.0,0.0,0.0,0.0,0.0,0.0,-2.6791,-2.7225,-2.752,-2.793,-2.8342,-2.895,-2.9136,0.0,0.0,0.0,0.0,0.0,0.0,0.0,0.0,0.0,0.0,0.0,0.0,0.0,0.0,0.0,0.0,0.0,0.0,0.0,0.0,0.0,0.0,0.0,0.0,0.0,0.0,0.0,0.0,0.0,0.0,0.0,0.0,0.0,0.0,0.0,0.0,0.0,0.0,0.0,0.0,0.0,0.0,0.0,0.0,0.0,0.0,0.0,0.0,0.0,0.0,0.0,0.0,0.0,0.0,0.0,0.0,0.0,0.0,0.0,0.0,0.0,0.0,0.0,0.0,0.0,0.0,0.0,0.0,0.0,0.0,0.0,0.0,0.0,0.0,0.0,0.0,0.0,0.0,0.0,0.0,0.0,0.0,0.0,0.0,0.0,0.0,0.0,0.0,0.0,0.0,0.0,0.0,0.0,0.0,0.0,0.0,0.0,0.0,0.0,0.0,0.0,0.0,0.0,0.0,0.0,0.0,0.0,-2.6591,-2.68,-2.7225,-2.6921,-2.7326,-2.8437,-2.8735,-2.8913,-2.8966,0.0,0.0,0.0,0.0,0.0,0.0,0.0,0.0,0.0,0.0,0.0,0.0,0.0,0.0,0.0,0.0,0.0,0.0,0.0,0.0,0.0,0.0,0.0,0.0,0.0,0.0,0.0,0.0,0.0,0.0,0.0,0.0,0.0,0.0,0.0,0.0,0.0,0.0,-2.1885,-2.709,0.0,0.0,0.0,0.0,0.0,0.0,0.0,0.0,-3.0898,0.0,0.0,0.0,0.0,0.0,0.0,0.0,0.0,0.0,0.0,0.0,0.0,0.0,0.0,0.0,0.0,0.0,0.0,0.0,0.0,0.0,0.0,0.0,0.0,0.0,0.0,0.0,0.0,0.0,0.0,0.0,0.0,0.0,0.0,0.0,0.0,0.0,0.0,0.0,0.0,0.0,0.0,0.0,0.0,0.0,0.0,0.0,0.0,0.0,0.0,0.0,0.0,0.0,0.0,0.0,0.0,-2.6591,-2.6591,-2.6691,-2.67,-2.7123,-2.7512,-2.7974,-2.8505,-2.8904,-2.8957,0.0,0.0,0.0,0.0,0.0,0.0,0.0,0.0,0.0,0.0,0.0,0.0,0.0,0.0,0.0,0.0,0.0,0.0,0.0,0.0,0.0,0.0,0.0,0.0,0.0,0.0,0.0,0.0,0.0,0.0,0.0,0.0,0.0,0.0,0.0,0.0,0.0,0.0,0.0,-2.8517,-3.0934,0.0,0.0,0.0,0.0,0.0,0.0,0.0,0.0,-3.0889,0.0,0.0,0.0,0.0,0.0,0.0,0.0,0.0,0.0,0.0,0.0,0.0,0.0,0.0,0.0,0.0,0.0,0.0,0.0,0.0,0.0,0.0,0.0,0.0,0.0,0.0,0.0,0.0,0.0,0.0,0.0,0.0,0.0,0.0,0.0,0.0,0.0,0.0,0.0,0.0,0.0,0.0,0.0,0.0,0.0,0.0,0.0,0.0,0.0,0.0,0.0,0.0,0.0,0.0,0.0,-2.6591,-2.6591,-2.6691,-2.6791,-2.6966,-2.7354,-2.7965,-2.8186,-2.8459,0.0,0.0,0.0,0.0,0.0,0.0,0.0,0.0,0.0,0.0,0.0,0.0,0.0,0.0,0.0,0.0,0.0,0.0,0.0,0.0,0.0,0.0,0.0,0.0,0.0,0.0,0.0,0.0,0.0,0.0,0.0,0.0,0.0,0.0,0.0,0.0,0.0,0.0,0.0,0.0,-2.8856,-3.0947,-3.0918,0.0,0.0,0.0,0.0,0.0,0.0,-3.0898,-3.0898,0.0,0.0,0.0,0.0,0.0,0.0,0.0,0.0,0.0,0.0,0.0,0.0,0.0,0.0,0.0,0.0,0.0,0.0,0.0,0.0,0.0,0.0,0.0,0.0,0.0,0.0,0.0,0.0,0.0,0.0,0.0,0.0,0.0,0.0,0.0,0.0,0.0,0.0,0.0,0.0,0.0,0.0,0.0,0.0,0.0,0.0,0.0,0.0,0.0,0.0,0.0,0.0,0.0,0.0,0.0,-2.6591,-2.6591,-2.6691,-2.6881,-2.6691,-2.7041,-2.7967,-2.7833,-2.8113,0.0,0.0,0.0,0.0,0.0,0.0,0.0,0.0,0.0,0.0,0.0,0.0,0.0,0.0,0.0,0.0,0.0,0.0,0.0,0.0,0.0,0.0,0.0,0.0,0.0,0.0,0.0,0.0,0.0,0.0,0.0,0.0,0.0,0.0,0.0,0.0,0.0,0.0,0.0,0.0,0.0,-3.0898,-3.0898,-3.0898,0.0,0.0,0.0,0.0,-3.0898,-3.0898,0.0,0.0,0.0,0.0,0.0,0.0,0.0,0.0,0.0,0.0,0.0,0.0,0.0,0.0,0.0,0.0,0.0,0.0,0.0,0.0,0.0,0.0,0.0,0.0,0.0,0.0,0.0,0.0,0.0,0.0,0.0,0.0,0.0,0.0,0.0,0.0,0.0,0.0,0.0,0.0,0.0,0.0,0.0,0.0,0.0,0.0,0.0,0.0,0.0,0.0,0.0,0.0,0.0,0.0,0.0,0.0,-2.6591,-2.6591,-2.6591,-2.6691,-2.6591,-2.6802,-2.7354,-2.7581,-2.7985,0.0,0.0,0.0,0.0,0.0,0.0,0.0,0.0,0.0,0.0,0.0,0.0,0.0,0.0,0.0,0.0,0.0,0.0,0.0,0.0,0.0,0.0,0.0,0.0,0.0,0.0,0.0,0.0,0.0,0.0,0.0,0.0,0.0,0.0,0.0,0.0,0.0,0.0,0.0,0.0,0.0,-3.0898,-3.0898,-3.0898,-3.0898,0.0,0.0,-3.0898,-3.0898,-3.0898,0.0,0.0,0.0,0.0,0.0,0.0,0.0,0.0,0.0,0.0,0.0,0.0,0.0,0.0,0.0,0.0,0.0,0.0,0.0,0.0,0.0,0.0,0.0,0.0,0.0,0.0,0.0,0.0,0.0,0.0,0.0,0.0,0.0,0.0,0.0,0.0,0.0,0.0,0.0,0.0,0.0,0.0,0.0,0.0,0.0,0.0,0.0,0.0,0.0,0.0,0.0,0.0,0.0,0.0,0.0,-2.6591,-2.6591,-2.6591,-2.6591,-2.6591,-2.6591,-2.6774,-2.7169,-2.7563,-2.7967,0.0,0.0,0.0,0.0,0.0,0.0,0.0,0.0,0.0,0.0,0.0,0.0,0.0,0.0,0.0,0.0,0.0,0.0,0.0,0.0,0.0,0.0,0.0,0.0,0.0,0.0,0.0,0.0,0.0,0.0,0.0,0.0,0.0,0.0,0.0,0.0,0.0,0.0,0.0,0.0,0.0,0.0,-3.0898,-3.0898,0.0,0.0,0.0,-3.0898,-3.0898,0.0,0.0,0.0,0.0,0.0,0.0,0.0,0.0,0.0,0.0,0.0,0.0,0.0,0.0,0.0,0.0,0.0,0.0,0.0,0.0,0.0,0.0,0.0,0.0,0.0,0.0,0.0,0.0,0.0,0.0,0.0,0.0,0.0,0.0,0.0,0.0,0.0,0.0,0.0,0.0,0.0,0.0,0.0,0.0,0.0,0.0,0.0,0.0,0.0,0.0,0.0,0.0,0.0,0.0,0.0,0.0,0.0,-2.6591,-2.6591,-2.6591,-2.6591,-2.6591,-2.6738,-2.7022,-2.7416,0.0,0.0,0.0,0.0,0.0,0.0,0.0,0.0,0.0,0.0,0.0,0.0,0.0,0.0,0.0,0.0,0.0,0.0,0.0,0.0,0.0,0.0,0.0,0.0,0.0,0.0,0.0,-2.1102,0.0,0.0,0.0,0.0,0.0,0.0,0.0,0.0,0.0,0.0,0.0,0.0,0.0,0.0,-3.0898,-3.0898,-3.0898,-3.0898,0.0,0.0,-3.0898,-3.0898,-3.0898,-3.0898,0.0,0.0,0.0,0.0,0.0,0.0,0.0,0.0,0.0,0.0,0.0,0.0,0.0,0.0,0.0,0.0,0.0,0.0,0.0,0.0,0.0,0.0,0.0,0.0,0.0,0.0,0.0,0.0,0.0,0.0,0.0,0.0,0.0,0.0,0.0,0.0,0.0,0.0,0.0,0.0,0.0,0.0,0.0,0.0,0.0,0.0,0.0,0.0,0.0,0.0,0.0,0.0,0.0,0.0,0.0,-2.6591,-2.6591,-2.6591,-2.6591,-2.6591,-2.66,-2.6628,-2.7013,-2.7407,0.0,0.0,0.0,0.0,0.0,0.0,0.0,0.0,0.0,0.0,0.0,0.0,0.0,0.0,0.0,0.0,0.0,0.0,0.0,0.0,0.0,0.0,0.0,0.0,0.0,0.0,0.0,0.0,0.0,0.0,0.0,0.0,0.0,0.0,0.0,0.0,0.0,0.0,0.0,0.0,0.0,-3.0898,-3.0898,-3.0898,-3.0898,0.0,0.0,-3.0898,-3.0898,-3.0898,-3.0898,-3.0898,0.0,0.0,0.0,0.0,0.0,0.0,0.0,0.0,0.0,0.0,0.0,0.0,0.0,0.0,0.0,0.0,0.0,0.0,0.0,0.0,0.0,0.0,0.0,0.0,0.0,0.0,0.0,0.0,0.0,0.0,0.0,0.0,0.0,0.0,0.0,0.0,0.0,0.0,0.0,0.0,0.0,0.0,0.0,0.0,0.0,0.0,0.0,0.0,0.0,0.0,0.0,0.0,0.0,-2.6591,-2.6591,-2.6591,-2.6591,-2.6591,-2.6591,-2.6591,-2.6591,-2.6967,-2.7242,0.0,0.0,0.0,0.0,0.0,0.0,0.0,0.0,0.0,0.0,0.0,0.0,0.0,0.0,0.0,0.0,0.0,0.0,0.0,0.0,0.0,0.0,0.0,0.0,0.0,0.0,0.0,0.0,-2.2341,-2.3807,-2.5635,0.0,0.0,0.0,0.0,0.0,0.0,0.0,0.0,0.0,0.0,-3.0898,-3.0898,-3.0898,0.0,0.0,-3.0898,-3.0898,-3.0898,-3.0898,-3.0898,-3.0898,-3.0898,0.0,0.0,0.0,0.0,0.0,0.0,0.0,0.0,0.0,0.0,0.0,0.0,0.0,0.0,0.0,0.0,0.0,0.0,0.0,0.0,0.0,0.0,0.0,0.0,0.0,0.0,0.0,0.0,0.0,0.0,0.0,0.0,0.0,0.0,0.0,0.0,0.0,0.0,0.0,0.0,0.0,0.0,0.0,0.0,0.0,0.0,0.0,0.0,0.0,0.0,0.0,0.0,-2.6591,-2.6591,-2.6591,-2.6591,-2.6591,-2.6591,-2.6591,-2.6591,-2.6857,-2.705,0.0,0.0,0.0,0.0,0.0,0.0,0.0,0.0,0.0,0.0,0.0,0.0,0.0,0.0,0.0,0.0,0.0,0.0,0.0,0.0,0.0,0.0,0.0,0.0,0.0,0.0,0.0,0.0,-2.2908,-2.5146,-2.7847,0.0,0.0,0.0,0.0,0.0,0.0,0.0,0.0,0.0,0.0,-3.0898,-3.0898,-3.0898,-3.0898,-3.0898,-3.0898,-3.0898,-3.0898,-3.0898,-3.0898,-3.0898,0.0,0.0,0.0,0.0,0.0,0.0,0.0,0.0,0.0,0.0,0.0,0.0,0.0,0.0,0.0,0.0,0.0,0.0,0.0,0.0,0.0,0.0,0.0,0.0,0.0,0.0,0.0,0.0,0.0,0.0,-2.7811,0.0,0.0,0.0,0.0,0.0,0.0,0.0,0.0,0.0,0.0,0.0,0.0,0.0,0.0,0.0,0.0,0.0,0.0,0.0,0.0,0.0,0.0,-2.6591,-2.6591,-2.6591,-2.6591,-2.6591,-2.6591,-2.6591,-2.6591,-2.66,-2.6784,-2.716,0.0,0.0,0.0,0.0,0.0,0.0,0.0,0.0,0.0,0.0,0.0,0.0,0.0,0.0,0.0,0.0,0.0,0.0,0.0,0.0,0.0,0.0,0.0,0.0,0.0,0.0,-2.123,-2.4246,-2.7185,0.0,0.0,0.0,0.0,0.0,0.0,0.0,0.0,0.0,0.0,-3.0898,-3.0898,-3.0898,-3.0898,-3.0898,-3.0898,-3.0898,-3.0898,-3.0898,-3.0898,-3.0898,0.0,0.0,0.0,0.0,0.0,0.0,0.0,0.0,0.0,0.0,0.0,0.0,0.0,0.0,0.0,0.0,0.0,0.0,0.0,0.0,0.0,0.0,0.0,0.0,0.0,0.0,0.0,-2.9315,-2.8861,0.0,0.0,0.0,0.0,0.0,0.0,0.0,0.0,0.0,0.0,0.0,-2.7746,-2.7499,0.0,0.0,0.0,0.0,0.0,0.0,0.0,0.0,0.0,0.0,0.0,0.0,-2.6591,-2.6591,-2.6591,-2.6591,-2.6591,-2.6591,-2.6591,-2.6591,-2.6591,-2.6646,-2.6793,0.0,0.0,0.0,0.0,0.0,0.0,0.0,0.0,0.0,0.0,0.0,0.0,0.0,0.0,0.0,0.0,0.0,0.0,0.0,0.0,0.0,0.0,0.0,0.0,0.0,-2.3179,0.0,0.0,0.0,0.0,0.0,0.0,0.0,0.0,0.0,0.0,0.0,-3.0898,-3.0898,-3.0898,-3.0898,-3.0898,-3.0898,-3.0898,0.0,0.0,0.0,0.0,0.0,0.0,0.0,0.0,0.0,0.0,0.0,0.0,0.0,0.0,-3.0898,-3.0898,-3.0898,-3.0898,-3.0898,0.0,0.0,0.0,0.0,0.0,0.0,0.0,0.0,0.0,0.0,0.0,0.0,0.0,0.0,-2.9758,0.0,-2.905,0.0,0.0,0.0,0.0,0.0,0.0,0.0,0.0,-2.7095,-2.7114,-2.7334,-2.7095,-2.6976,0.0,-2.6976,-2.6967,0.0,0.0,0.0,0.0,0.0,0.0,0.0,0.0,-2.6591,-2.6591,-2.6591,-2.6591,-2.6591,-2.6591,-2.6591,-2.6591,-2.6591,-2.6591,-2.6591,-2.7215,-2.7627,0.0,0.0,0.0,0.0,0.0,0.0,0.0,0.0,0.0,0.0,0.0,0.0,0.0,0.0,0.0,0.0,0.0,0.0,0.0,0.0,0.0,0.0,0.0,-2.5708,0.0,0.0,0.0,0.0,0.0,0.0,0.0,0.0,0.0,-3.0898,-3.0898,-3.0898,-3.0898,-3.0898,-3.0898,-3.0898,0.0,0.0,0.0,0.0,0.0,0.0,0.0,-3.0898,-3.0898,-3.0898,-3.0898,-3.0898,-3.0898,-3.0898,-3.0898,0.0,0.0,-3.0898,-3.0898,-3.0898,-3.0898,-3.0898,-3.0898,-3.0898,-3.0898,-3.0898,0.0,0.0,0.0,0.0,0.0,0.0,0.0,0.0,-2.9937,-2.9755,0.0,-2.9303,0.0,0.0,0.0,0.0,0.0,-2.7539,0.0,0.0,-2.6709,-2.6691,-2.6709,-2.66,-2.6591,-2.6591,-2.66,-2.66,-2.6591,-2.6591,0.0,0.0,0.0,0.0,0.0,0.0,-2.6591,-2.6591,-2.6591,-2.6591,-2.6591,-2.6591,-2.6591,-2.6591,-2.6591,-2.6591,-2.66,-2.6976,-2.7361,-2.7728,-2.8159,0.0,0.0,0.0,0.0,0.0,0.0,0.0,0.0,0.0,0.0,0.0,0.0,0.0,0.0,0.0,0.0,0.0,0.0,0.0,0.0,-2.5936,0.0,0.0,0.0,0.0,0.0,0.0,0.0,0.0,0.0,0.0,-3.0898,-3.0898,-3.0898,-3.0898,0.0,0.0,0.0,0.0,-3.0898,-3.0898,-3.0898,-3.0898,-3.0898,-3.0898,-3.0898,-3.0898,0.0,0.0,-3.0898,-3.0898,-3.0898,-3.0898,-3.0898,-3.0898,-3.0898,-3.0898,-3.0898,-3.0898,-3.0898,-3.0898,-3.0898,-3.0898,-3.0898,-3.3398,0.0,0.0,0.0,0.0,-3.2317,-3.1836,-3.1178,-3.1155,-3.0778,-3.0149,-3.013,0.0,0.0,0.0,0.0,0.0,0.0,-2.8572,-2.8359,-2.7736,-2.7413,-2.7413,-2.6899,-2.6591,-2.6591,-2.6591,-2.6591,-2.6591,-2.6591,-2.6591,-2.6591,0.0,0.0,0.0,0.0,-2.6591,-2.6591,-2.6591,-2.6591,-2.6591,-2.6591,-2.6591,-2.6591,-2.6591,-2.6591,-2.6591,-2.6967,-2.7233,-2.7352,-2.8012,0.0,0.0,0.0,0.0,0.0,0.0,0.0,0.0,0.0,0.0,0.0,0.0,0.0,0.0,0.0,0.0,0.0,0.0,0.0,-2.5205,-2.7505,-2.8841,0.0,0.0,0.0,0.0,0.0,0.0,0.0,0.0,0.0,-3.0898,-3.0898,-3.0898,0.0,0.0,-3.0898,-3.0898,-3.0898,-3.0898,-3.0898,-3.0898,0.0,0.0,-3.0898,-3.0898,-3.0898,-3.0898,-3.0898,-3.0898,-3.0898,-3.0898,-3.0898,-3.0898,-3.0898,-3.0898,-3.0898,-3.0898,-3.0898,-3.0898,-3.0898,-3.0898,-3.0898,-3.0898,-3.2449,-3.3038,-3.2933,-3.2645,-3.2372,-3.2175,-3.1902,-3.1618,-3.1618,-3.1322,-3.0909,-3.0909,-3.0578,-3.0151,-3.0037,0.0,0.0,0.0,-2.9408,-2.9081,-2.8562,-2.8349,-2.8252,-2.7413,-2.7107,-2.7107,-2.68,-2.6591,-2.6591,-2.6591,-2.6591,-2.6591,0.0,0.0,-2.6591,-2.6591,-2.6591,-2.6591,-2.6591,-2.6591,-2.6591,-2.6591,-2.6591,-2.6591,-2.6591,-2.6591,-2.6591,-2.6811,-2.7013,-2.7178,-2.7646,-2.7985,0.0,0.0,0.0,0.0,0.0,0.0,0.0,0.0,0.0,0.0,0.0,-2.6407,-2.7624,0.0,0.0,0.0,-2.6604,-2.6629,-2.7021,-2.8224,0.0,0.0,0.0,0.0,0.0,0.0,0.0,-3.0635,-3.0762,-3.0898,-3.0898,-3.0898,-3.0898,-3.0898,-3.0898,-3.0898,-3.0898,0.0,-3.0898,-3.0898,-3.0898,-3.0898,-3.0898,-3.0898,-3.0898,-3.0898,-3.0898,-3.0898,-3.0898,-3.0898,-3.0898,-3.0898,-3.0898,-3.0898,-3.0898,-3.0898,-3.0898,-3.0898,-3.0898,-3.0898,-3.0898,-3.0898,-3.0898,-3.1618,-3.1673,-3.2121,-3.2328,-3.2274,-3.1815,-3.1629,-3.1618,-3.1618,-3.1618,-3.1618,-3.1618,-3.1618,-3.1618,-3.1618,0.0,-2.9292,-3.0162,-3.0057,-2.9303,-2.9197,-2.9197,-2.9092,-2.8252,-2.7726,-2.7726,-2.6999,-2.6591,-2.6591,-2.6591,-2.6591,-2.6591,-2.6591,-2.6591,-2.6591,-2.6591,-2.6591,-2.6591,-2.6591,-2.6591,-2.6591,-2.6591,-2.6591,-2.6591,-2.6591,-2.6591,-2.6591,-2.6591,-2.6756,-2.7105,-2.716,-2.7352,-2.7701,0.0,0.0,0.0,0.0,0.0,0.0,0.0,0.0,0.0,0.0,0.0,0.0,0.0,0.0,0.0,-2.8688,0.0,-2.728,-2.8327,0.0,0.0,0.0,-2.9238,-2.9804,-3.0147,-3.0509,-3.0772,0.0,0.0,-3.0889,-3.0898,-3.0898,-3.0898,-3.0898,-3.0898,-3.0898,-3.0898,-3.0898,-3.0898,-3.0898,-3.0898,-3.0898,-3.0898,-3.0898,-3.0898,-3.0898,-3.0898,-3.0898,-3.0898,-3.0898,-3.0898,-3.0898,-3.0898,-3.0898,-3.0898,-3.0898,-3.0898,-3.0898,-3.0898,-3.0898,-3.0898,-3.0898,-3.1618,-3.1629,-3.1749,-3.1804,-3.1793,-3.1673,-3.1618,-3.1618,-3.1618,-3.1618,-3.1618,-3.1618,-3.1618,-3.1618,-3.1618,-3.1414,-3.0991,-3.1208,-3.1208,-3.0981,-3.037,-2.9743,-2.9081,-2.8242,-2.752,-2.6899,-2.6691,-2.6591,-2.6591,-2.6591,-2.6591,-2.6591,-2.6591,-2.6591,-2.6591,-2.6591,-2.6591,-2.6591,-2.6591,-2.6591,-2.6591,-2.6591,-2.6591,-2.6591,-2.6591,-2.6591,-2.6591,-2.6591,-2.6637,-2.6729,-2.7013,-2.7224,-2.7315,-2.7965,0.0,0.0,0.0,0.0,0.0,0.0,0.0,0.0,0.0,-2.7513,-2.8856,0.0,-2.7142,0.0,-2.654,-2.6635,-2.8352,-2.8792,0.0,0.0,-2.903,-2.9011,-2.9213,-2.9686,-3.0039,-3.0167,-3.0392,-3.0635,-3.0889,-3.0898,-3.0898,-3.0898,-3.0898,-3.0898,-3.0898,-3.0898,-3.0898,-3.0898,-3.0898,-3.0898,-3.0898,-3.0898,-3.0898,-3.0898,-3.0898,-3.0898,-3.0898,-3.0898,-3.0898,-3.0898,-3.0898,-3.0898,-3.0898,-3.0898,-3.0898,-3.0898,-3.0898,-3.0898,-3.0898,-3.0898,-3.0898,-3.1618,-3.1618,-3.1618,-3.1618,-3.1618,-3.1618,-3.1618,-3.1618,-3.1618,-3.1618,-3.1618,-3.1618,-3.1618,-3.1618,-3.1618,-3.1618,-3.1618,-3.1618,-3.1618,-3.1516,-3.1105,-3.0692,-3.0141,-2.9313,-2.8475,-2.7736,-2.7314,-2.6899,-2.6591,-2.6591,-2.6591,-2.6591,-2.6591,-2.6591,-2.6591,-2.6591,-2.6591,-2.6591,-2.6591,-2.6591,-2.6591,-2.6591,-2.6591,-2.6591,-2.6591,-2.6591,-2.6591,-2.6591,-2.6591,-2.6591,-2.6802,-2.6912,-2.693,-2.7558,-2.7881,0.0,0.0,0.0,0.0,0.0,0.0,0.0,0.0,0.0,0.0,0.0,-2.7263,-2.7873,-2.7262,-2.7364,-2.8847,-2.8984,-2.8984,-2.8984,-2.8938,-2.9048,-2.9213,-2.9568,-2.9804,-2.9922,-3.0039,-3.0274,-3.0635,-3.0645,-3.0762,-3.0889,-3.0898,-3.0898,-3.0898,-3.0898,-3.0898,-3.0898,-3.0898,-3.0898,-3.0898,-3.0898,-3.0898,-3.0898,-3.0898,-3.0898,-3.0898,-3.0898,-3.0898,-3.0898,-3.0898,-3.0898,-3.0898,-3.0898,-3.0898,-3.0898,-3.0898,-3.0898,-3.0898,-3.0898,-3.0898,-3.1618,-3.1618,-3.1618,-3.1618,-3.1618,-3.1618,-3.1618,-3.1618,-3.1618,-3.1618,-3.1618,-3.1618,-3.1618,-3.1618,-3.1618,-3.1618,-3.1618,-3.1618,-3.1618,-3.1618,-3.1618,-3.1516,-3.1208,-3.0588,-2.9743,-2.8774,-2.8038,-2.7314,-2.6582,-2.6591,-2.6591,-2.6591,-2.6591,-2.6591,-2.6591,-2.6591,-2.6591,-2.6591,-2.6591,-2.6591,-2.6591,-2.6591,-2.6591,-2.6591,-2.6591,-2.6591,-2.6591,-2.6591,-2.6591,-2.6591,-2.6591,-2.6591,-2.6591,-2.705,-2.7262,0.0,-2.814,0.0,0.0,0.0,0.0,0.0,0.0,0.0,0.0,-2.7873,-2.7753,-2.8856,-2.8984,-2.8984,-2.8984,-2.8984,-2.8984,-2.8984,-2.8984,-2.9094,-2.945,-2.945,-2.9568,-2.9804,-2.9813,-2.9922,-3.0265,-3.0392,-3.0509,-3.0791,-3.0918,-3.0908,-3.0908,-3.0908,-3.0898,-3.0898,-3.0898,-3.0898,-3.0898,-3.0898,-3.0898,-3.0898,-3.0898,-3.0898,-3.0898,-3.0898,-3.0898,-3.0898,-3.0898,-3.0898,-3.0898,-3.0898,-3.0898,-3.0898,-3.0898,-3.0898,-3.0898,-3.0898,-3.0898,-3.1618,-3.1618,-3.1618,-3.1618,-3.1618,-3.1618,-3.1618,-3.1618,-3.1618,-3.1618,-3.1618,-3.1618,-3.1618,-3.1618,-3.1618,-3.1618,-3.1618,-3.1618,-3.1618,-3.1618,-3.1618,-3.0888,-2.9618,-2.9408,-2.8572,-2.7116,-2.6899,-2.6791,-2.6591,-2.6591,-2.6591,-2.6591,-2.6591,-2.6591,-2.6591,0.0,0.0,0.0,-2.6591,-2.6591,-2.6591,-2.6591,-2.6591,-2.6591,-2.6591,0.0,-2.6591,-2.6591,-2.6591,-2.6591,-2.6591,0.0,0.0,0.0,0.0,0.0,0.0,0.0,0.0,0.0,0.0,0.0,-2.8737,-2.8737,-2.8975,-2.8728,-2.8746,-2.8984,-2.8984,-2.8984,-2.8984,-2.8984,-2.8984,-2.8984,-2.8984,-2.8984,-2.9094,-2.9094,-2.9213,-2.9568,-2.9568,-2.9677,-2.9922,-3.0039,-3.0205,-3.0791,-3.0889,-3.0967,-3.084,-3.0918,-3.0898,-3.0898,-3.0898,-3.0898,-3.0898,-3.0898,-3.0898,-3.0898,-3.0898,-3.0898,-3.0898,-3.0898,-3.0898,-3.0898,-3.0898,-3.0898,-3.0898,-3.0898,-3.0898,-3.0898,-3.0898,-3.0898,-3.0898,-3.0898,-3.0898,-3.1618,0.0,-3.1618,-3.1618,0.0,-3.1618,-3.1618,-3.1618,-3.1618,-3.1618,-3.1618,-3.1618,-3.1618,-3.1618,-3.1618,-3.1618,-3.1618,-3.1618,-3.1618,-3.1618,-3.1219,-3.0588,-2.9733,-2.9313,-2.8465,-2.7206,-2.7206,-2.7008,-2.6591,-2.6591,-2.6591,-2.6591,-2.6591,-2.6692,-2.6885,-2.7077,-2.6976,-2.6591,-2.6591,-2.6591,-2.6591,-2.6591,-2.6591,-2.6591,0.0,0.0,0.0,0.0,0.0,0.0,0.0,0.0,0.0,0.0,0.0,-2.7462,-2.7664,-2.7957,-2.8361,-2.8581,-2.8773,-2.8966,-2.8984,-2.8984,-2.8984,-2.8984,-2.8984,-2.8984,-2.8984,-2.8984,-2.8984,-2.8984,-2.8984,-2.8984,-2.8984,-2.8984,-2.8984,-2.8984,-2.9103,-2.9213,-2.9213,-2.9331,-2.9686,-2.9686,-2.9832,-3.0262,-3.0361,-3.0449,-3.0449,-3.0674,-3.0898,-3.0898,-3.0898,-3.0898,-3.0898,-3.0898,-3.0898,-3.0898,-3.0898,-3.0898,-3.0898,-3.0898,-3.0898,-3.0898,-3.0898,-3.0898,-3.0898,-3.0898,-3.0898,-3.0898,-3.0898,-3.0898,-3.0898,-3.0898,-3.0898,-3.1618,-3.1618,-3.1618,-3.1618,-3.1618,-3.1618,-3.1618,-3.1618,0.0,0.0,0.0,-3.1618,-3.1618,-3.1618,-3.1618,-3.1618,-3.1618,-3.1618,-3.1516,-3.1322,-3.0692,-3.0287,-2.9858,-2.9197,-2.8465,-2.7628,-2.7618,-2.7243,-2.6692,-2.6692,-2.6729,-2.6793,-2.6793,-2.6958,-2.7279,-2.76,-2.7444,-2.683,-2.6793,-2.6793,-2.6802,-2.6793,-2.6793,-2.6802,-2.6802,-2.6793,-2.6793,-2.6793,-2.6949,-2.726,-2.7279,-2.7426,-2.7737,-2.7605,-2.7605,-2.7774,-2.8514,-2.8756,-2.8397,-2.87,-2.8911,-2.8984,-2.8984,-2.8984,-2.8984,-2.8984,-2.8984,-2.8984,-2.8984,-2.8984,-2.8984,-2.8984,-2.8984,-2.8984,-2.8984,-2.8984,-2.8984,-2.8984,-2.8984,-2.8984,-2.8984,-2.9103,-2.9322,-2.945,-2.945,-2.9686,-2.9677,-2.9776,-2.9776,-3.0382,-3.0772,-3.0889,-3.0898,-3.0898,-3.0898,-3.0898,-3.0898,-3.0898,-3.0898,-3.0898,-3.0898,-3.0898,-3.0898,-3.0898,-3.0898,-3.0898,-3.0898,-3.0898,-3.0898,-3.0898,-3.0898,-3.0898,-3.0898,-3.0898,-3.0898,-3.1618,-3.1618,-3.1618,-3.1618,-3.1618,-3.1618,-3.1618,-3.1618,-3.1618,-3.1618,-3.1618,-3.1618,-3.1618,-3.1618,-3.1618,-3.1618,-3.1618,-3.1618,-3.1208,0.0,-3.0495,-2.9649,-2.8155,-2.8038,-2.752,-2.68,-2.68,-2.6866,-2.7059,-2.7095,-2.726,-2.7554,-2.76,-2.7627,-2.7682,-2.7737,-2.771,-2.7609,-2.7609,-2.76,-2.7609,-2.76,-2.76,-2.76,-2.7581,-2.7609,-2.76,-2.7591,-2.7627,-2.7682,-2.7682,-2.771,-2.7756,-2.8048,-2.8029,-2.7888,-2.8113,-2.8307,-2.837,-2.8452,-2.8627,-2.8938,-2.8984,-2.8984,-2.8984,-2.8984,-2.8984,-2.8984,-2.8984,-2.8984,-2.8984,-2.8984,-2.8984,-2.8984,-2.8984,-2.8984,-2.8984,-2.8984,-2.8984,-2.8984,-2.8984,-2.8984,-2.9103,-2.9094,-2.9103,-2.9094,-2.9176,-2.9102,-2.9319,-2.9963,-3.0509,-3.0889,-3.0898,-3.0898,-3.0898,-3.0898,-3.0898,-3.0898,-3.0898,-3.0898,-3.0898,-3.0898,-3.0898,-3.0898,-3.0898,-3.0898,-3.0898,-3.0898,-3.0898,-3.0898,-3.0898,-3.0898,-3.0898,-3.0898,-3.0898,-3.1618,-3.1618,-3.1618,-3.1618,-3.1618,-3.1618,-3.1618,-3.1618,-3.1618,-3.1618,-3.1618,-3.1618,-3.1618,-3.1618,-3.1618,-3.1618,-3.1618,-3.1116,-3.0703,-3.038,-2.9428,-2.8572,-2.7833,-2.7314,-2.712,-2.6894,-2.6912,-2.7105,-2.7471,-2.7499,-2.7591,-2.7774,-2.7985,-2.8095,-2.8122,-2.8324,-2.8425,-2.8416,-2.7985,-2.8029,-2.8464,-2.8039,-2.7756,-2.7756,-2.7756,-2.7756,-2.7756,-2.7756,-2.7875,-2.8104,-2.8104,-2.8205,-2.8416,-2.856,-2.8569,-2.8425,-2.8569,-2.8652,-2.87,-2.8718,-2.8792,-2.8975,-2.8984,-2.8984,-2.8984,-2.8984,-2.8984,-2.8984,-2.8984,-2.8984,-2.8984,-2.8984,-2.8984,-2.8984,-2.8984,-2.8984,-2.8984,-2.8984,-2.8984,-2.8984,-2.8984,-2.8984,-2.8984,-2.8984,-2.8984,-2.8975,-2.8948,-2.902,-2.8956,-2.9502,-3.0157,-3.0518,-3.0635,-3.0762,-3.0889,-3.0898,-3.0898,-3.0898,-3.0898,-3.0898,-3.0898,-3.0898,-3.0898,-3.0898,-3.0898,-3.0898,-3.0898,-3.0898,-3.0898,-3.0898,-3.0898,-3.0898,-3.0898,-3.0898,-3.0898,-3.1618,-3.1618,-3.1618,-3.1618,-3.1618,-3.1618,-3.1618,-3.1618,-3.1618,-3.1618,-3.1618,-3.1618,-3.1618,-3.1618,-3.1618,-3.1516,-3.1219,-3.0703,-3.0183,-2.9659,-2.8573,-2.786,-2.7672,-2.7122,-2.7013,-2.7279,-2.7306,-2.7517,-2.7866,-2.7902,-2.7957,-2.8058,-2.837,-2.8526,-2.8535,-2.8828,-2.8984,-2.8948,-2.8352,-2.8334,-2.8925,-2.8334,-2.804,-2.804,-2.8049,-2.804,-2.8049,-2.804,-2.8187,-2.8498,-2.8526,-2.8673,-2.8957,-2.8984,-2.8984,-2.8984,-2.8984,-2.8984,-2.8984,-2.8984,-2.8984,-2.8984,-2.8984,-2.8984,-2.8984,-2.8984,-2.8984,-2.8984,-2.8984,-2.8984,-2.8984,-2.8984,-2.8984,-2.8984,-2.8984,-2.8984,-2.8984,-2.8984,-2.8984,-2.8984,-2.8984,-2.8984,-2.8984,-2.8984,-2.8984,-2.8984,-2.8984,-2.8948,-2.903,-2.9185,-2.9568,-3.003,-3.0265,-3.0401,-3.0645,-3.0655,-3.0645,-3.0762,-3.0762,-3.0772,-3.0889,-3.0898,-3.0898,-3.0898,-3.0898,-3.0898,-3.0898,-3.0898,-3.0898,-3.0898,-3.0898,-3.0898,-3.0898,-3.0898,-3.0898,-3.1618,-3.1618,-3.1618,-3.1618,-3.1618,-3.1618,-3.1618,-3.1618,-3.1618,-3.1618,-3.1618,-3.1629,-3.1629,-3.1618,-3.1618,-3.1219,-3.062,-3.0391,-2.9554,-2.8233,-2.8218,-2.7971,-2.7364,-2.7584,-2.7673,-2.771,-2.7719,-2.793,-2.8324,-2.8333,-2.8507,-2.8828,-2.8911,-2.8911,-2.8929,-2.8966,-2.8984,-2.8984,-2.8911,-2.8883,-2.9011,-2.8874,-2.8865,-2.8865,-2.8865,-2.8874,-2.8819,-2.8874,-2.8883,-2.892,-2.8911,-2.8938,-2.8975,-2.8984,-2.8984,-2.8984,-2.8984,-2.8984,-2.8984,-2.8984,-2.8984,-2.8984,-2.8984,-2.8984,-2.8984,-2.8984,-2.8984,-2.8984,-2.8984,-2.8984,-2.8984,-2.8984,-2.8984,-2.8984,-2.8984,-2.8984,-2.8984,-2.8984,-2.8984,-2.8984,-2.8984,-2.8984,-2.8984,-2.8984,-2.8984,-2.8984,-2.8984,-2.8975,-2.8966,-2.9085,-2.9222,-2.9568,-2.9804,-2.9922,-3.0039,-3.0039,-3.0157,-3.0392,-3.0382,-3.0528,-3.0782,-3.0908,-3.0898,-3.0937,-3.0898,-3.0898,-3.0889,-3.0889,-3.0879,-3.0889,-3.0889,-3.0898,-3.0898,-3.0928,-3.0937,-3.1618,-3.1618,-3.1618,-3.1618,-3.1618,-3.1618,-3.1618,-3.1618,-3.1618,-3.1618,-3.1662,-3.1935,-3.1902,-3.1629,-3.1618,-3.1256,-3.0674,-3.0261,-2.9429,-2.8473,-2.821,-2.7837,-2.7658,-2.7682,-2.7884,-2.8122,-2.8141,-2.8352,-2.8673,-2.8746,-2.8828,-2.8966,-2.8984,-2.8984,-2.8984,-2.8984,-2.8984,-2.8984,-2.8984,-2.8984,-2.8984,-2.8984,-2.8984,-2.8984,-2.8984,-2.8984,-2.8984,-2.8984,-2.8984,-2.8984,-2.8984,-2.8984,-2.8984,-2.8984,-2.8984,-2.8984,-2.8984,-2.8984,-2.8984,-2.8984,-2.8984,-2.8984,-2.8984,-2.8984,-2.8984,-2.8984,-2.8984,-2.8984,-2.8984,-2.8984,-2.8984,-2.8984,-2.8984,-2.8984,-2.8984,-2.8984,-2.8984,-2.8984,-2.8984,-2.8984,-2.8984,-2.8984,-2.8984,-2.8984,-2.8984,-2.8984,-2.8984,-2.8984,-2.8984,-2.8984,-2.9094,-2.9222,-2.934,-2.9568,-2.9804,-2.9922,-2.9922,-3.003,-3.0147,-3.0294,-3.0742,-3.0859,-3.0967,-3.0898,-3.0811,-3.0645,-3.0284,-3.0363,-3.0334,-3.0528,-3.0782,-3.0898,-3.0898,-3.1094,-3.1083,-3.1618,-3.1618,-3.1618,-3.1618,-3.1618,-3.1618,-3.1618,-3.1651,-3.1771,-3.1826,-3.188,-3.2361,-3.2267,-3.1639,-3.1596,-3.1359,-3.0781,-2.9947,-2.9248,-2.8653,-2.8103,-2.7939,-2.7948,-2.8058,-2.826,-2.8507,-2.8553,-2.87,-2.8957,-2.8984,-2.8984,-2.8984,-2.8984,-2.8984,-2.8984,-2.8984,-2.8984,-2.8984,-2.8984,-2.8865,-2.8728,-2.8856,-2.8984,-2.8984,-2.8984,-2.8984,-2.8984,-2.8984,-2.8984,-2.8984,-2.8984,-2.8984,-2.8984,-2.8984,-2.8984,-2.8984,-2.8984,-2.8984,-2.8984,-2.8984,-2.8984,-2.8984,-2.8984,-2.8984,-2.8984,-2.8984,-2.8984,-2.8984,-2.8984,-2.8984,-2.8984,-2.8984,-2.8984,-2.8984,-2.8984,-2.8984,-2.8984,-2.8984,-2.8984,-2.8984,-2.8984,-2.8984,-2.8984,-2.8984,-2.8984,-2.8984,-2.8984,-2.8984,-2.8984,-2.8984,-2.8984,-2.8984,-2.8984,-2.9213,-2.9568,-2.9568,-2.9686,-2.9804,-2.9804,-2.996,-3.0546,-3.0615,-3.0771,-3.0781,-3.0567,-3.0615,-3.0552,-3.0357,-3.0211,-3.0453,-3.0748,-3.1004,-3.111,-3.1414,-3.1382,-3.1618,-3.1618,-3.1618,-3.1618,-3.1629,-3.164,-3.164,-3.1717,-3.2143,-3.235,-3.2405,-3.2831,-3.2588,-3.1682,-3.1682,-3.1257,-3.0379,-2.9512,-2.8662,-2.8103,-2.8311,-2.837,-2.8388,-2.8755,-2.892,-2.8902,-2.8902,-2.8938,-2.8984,-2.8984,-2.8984,-2.8984,-2.8984,-2.8984,-2.8984,-2.8984,-2.8984,-2.8984,-2.8984,-2.8609,-2.7966,-2.8591,-2.8838,-2.8865,-2.8984,-2.8984,-2.8984,-2.8984,-2.8984,-2.8984,-2.8984,-2.8984,-2.8984,-2.8984,-2.8984,-2.8984,-2.8984,-2.8984,-2.8984,-2.8984,-2.8984,-2.8984,-2.8984,-2.8984,-2.8984,-2.8984,-2.8984,-2.8984,-2.8984,-2.8984,-2.8984,-2.8984,-2.8984,-2.8984,-2.8984,-2.8984,-2.8984,-2.8984,-2.8984,-2.8984,-2.8984,-2.8984,-2.8984,-2.8984,-2.8984,-2.8984,-2.8984,-2.8984,-2.8984,-2.8984,-2.8984,-2.8984,-2.8984,-2.8984,-2.9112,-2.9222,-2.934,-2.934,-2.9577,-2.9577,-2.9804,-3.0058,-3.0281,-3.0447,-2.9889,-2.9883,-3.0581,-3.0752,-3.0558,-3.0783,-3.0897,-3.1066,-3.1185,-3.1527,-3.1632,-3.1618,-3.1618,-3.1618,-3.1618,-3.1662,-3.1968,-3.211,-3.2154,-3.2612,-3.2831,-3.2907,-3.3322,-3.2975,-3.2086,-3.1819,-3.1113,-2.9951,-2.9488,-2.9078,-2.8652,-2.87,-2.8773,-2.8783,-2.8929,-2.8984,-2.8984,-2.8984,-2.8984,-2.8984,-2.8984,-2.8984,-2.8984,-2.8984,-2.8984,-2.8984,-2.8984,-2.8984,-2.8984,-2.8984,-2.8609,-2.7855,-2.7056,-2.703,-2.837,-2.8737,-2.8984,-2.8984,-2.8984,-2.8984,-2.8984,-2.8984,-2.8984,-2.8984,-2.8984,-2.8984,-2.8984,-2.8984,-2.8984,-2.8984,-2.8984,-2.8984,-2.8984,-2.8984,-2.8984,-2.8984,-2.8984,-2.8984,-2.8984,-2.8984,-2.8984,-2.8984,-2.8984,-2.8984,-2.8984,-2.8984,-2.8984,-2.8984,-2.8984,-2.8984,-2.8984,-2.8984,-2.8984,-2.8984,-2.8984,-2.8984,-2.8984,-2.8984,-2.8984,-2.8984,-2.8984,-2.8984,-2.8984,-2.8984,-2.8984,-2.8984,-2.8984,-2.9103,-2.9103,-2.9222,-2.924,-2.9359,-2.9425,-2.9665,-3.0064,-2.9453,-2.9637,-3.0541,-3.0832,-3.0775,-3.0794,-3.1048,-3.1238,-3.1294,-3.1551,-3.1827,-3.1618,-3.1651,-3.1804,-3.1859,-3.1935,-3.2405,-3.2601,-3.2656,-3.3093,-3.33,-3.3388,-3.3814,-3.3337,-3.2353,-3.196,-3.0905,-2.9486,-2.9351,-2.9287,-2.8966,-2.8984,-2.8984,-2.8984,-2.8984,-2.8984,-2.8984,-2.8984,-2.8984,-2.8984,-2.8984,-2.8984,-2.8984,-2.8984,-2.8984,-2.8984,-2.8984,-2.8984,-2.8746,-2.8911,-2.8544,-2.7383,-2.589,-2.5874,-2.7237,-2.8011,-2.8618,-2.8984,-2.8984,-2.8984,-2.8984,-2.8984,-2.8984,-2.8984,-2.8984,-2.8984,-2.8984,-2.8984,-2.8984,-2.8984,-2.8984,-2.8984,-2.8984,-2.8609,-2.8361,-2.837,-2.7993,-2.7753,-2.7762,-2.8708,-2.9002,-2.8919,-2.8451,-2.8059,-2.7904,-2.8077,-2.837,-2.837,-2.8746,-2.8984,-2.8984,-2.8984,-2.8984,-2.8984,-2.8984,-2.8984,-2.8984,-2.8984,-2.8984,-2.8984,-2.8984,-2.8984,-2.8984,-2.8984,-2.9067,-2.9168,-2.925,-2.9139,-2.9259,-2.9379,-2.9204,-2.9148,-2.908,-2.9243,-2.9614,-2.9778,-3.0112,-3.0296,-3.0719,-3.0784,-3.0784,-3.1058,-3.1313,-3.1411,-3.1593,-3.1822,-3.1629,-3.1728,-3.2175,-3.2361,-3.2448,-3.2874,-3.3071,-3.3147,-3.3584,-3.3803,-3.3857,-3.4172,-3.3395,-3.2062,-3.1727,-3.0704,-2.9275,-2.903,-2.9048,-2.8984,-2.8984,-2.8984,-2.8984,-2.8984,-2.8984,-2.8865,-2.8984,-2.8975,-2.8865,-2.8984,-2.8984,-2.8984,-2.8984,-2.8984,-2.8984,-2.8984,-2.8737,-2.8268,-2.8598,-2.7997,-2.6302,-2.5489,-2.5489,-2.6164,-2.6813,-2.7659,-2.8865,-2.8865,-2.8865,-2.8984,-2.8984,-2.8984,-2.8984,-2.8984,-2.8984,-2.8984,-2.8984,-2.8984,-2.8984,-2.8984,-2.8984,-2.8856,-2.7873,-2.7263,-2.7142,-2.6156,-2.5423,-2.5815,-2.7323,-2.8783,-2.8665,-2.7349,-2.5998,-2.5262,-2.6127,-2.7013,-2.7254,-2.8122,-2.8984,-2.8865,-2.8737,-2.8865,-2.8984,-2.8737,-2.8755,-2.8947,-2.8654,-2.837,-2.837,-2.825,-2.8737,-2.8746,-2.8331,-2.8224,-2.8904,-2.945,-2.9468,-2.9365,-2.9608,-2.9608,-2.937,-2.9409,-2.997,-3.0231,-2.9538,-2.96,-2.9471,-2.9775,-3.0108,-3.0161,-3.08,-3.1039,-3.103,-3.103,-3.1652,-3.1826,-3.2154,-3.2306,-3.2579,-3.2896,-3.3366,-3.3562,-3.3617,-3.4087,-3.4294,-3.4205,-3.3754,-3.2892,-3.1862,-3.1179,-3.0138,-2.9103,-2.8984,-2.8984,-2.8984,-2.8984,-2.8984,-2.8984,-2.8984,-2.8746,-2.8498,-2.8746,-2.8737,-2.8498,-2.8737,-2.8984,-2.8984,-2.8984,-2.8984,-2.8984,-2.8984,-2.8627,-2.8011,-2.7727,-2.7116,-2.6172,-2.544,-2.544,-2.605,-2.6319,-2.6805,-2.753,-2.802,-2.8259,-2.8379,-2.8746,-2.8984,-2.8984,-2.8984,-2.8984,-2.8984,-2.8984,-2.8984,-2.8984,-2.8984,-2.8984,-2.8737,-2.7753,-2.7142,-2.6892,-2.5668,-2.4933,-2.4933,-2.5872,-2.6903,-2.8044,-2.5912,-2.3925,-2.2508,-2.4223,-2.5668,-2.5798,-2.6034,-2.6641,-2.7513,-2.7633,-2.7633,-2.7633,-2.7633,-2.7988,-2.8478,-2.7453,-2.6407,-2.6269,-2.6407,-2.6277,-2.6286,-2.6461,-2.6966,-2.7557,-2.792,-2.8049,-2.8451,-2.8817,-2.984,-2.9708,-2.9978,-3.0518,-3.0329,-2.9621,-2.8708,-2.8587,-2.8756,-2.9048,-2.9117,-2.9188,-2.9466,-2.9917,-3.0213,-3.049,-3.2088,-3.2405,-3.2754,-3.306,-3.3388,-3.3857,-3.4065,-3.3987,-3.4036,-3.3942,-3.3818,-3.3006,-3.2092,-3.1295,-3.0616,-2.9922,-2.9103,-2.8984,-2.8984,-2.8984,-2.8984,-2.8984,-2.8984,-2.8737,-2.8507,-2.814,-2.814,-2.814,-2.802,-2.8379,-2.8746,-2.8984,-2.8984,-2.8984,-2.8984,-2.8984,-2.8618,-2.7771,-2.722,-2.6608,-2.5806,-2.5269,-2.5269,-2.57,-2.5709,-2.5953,-2.6327,-2.6926,-2.7539,-2.8029,-2.8618,-2.8984,-2.8984,-2.8984,-2.8984,-2.8984,-2.8984,-2.8984,-2.8984,-2.8984,-2.8737,-2.8241,-2.7013,-2.6034,-2.5415,-2.4309,-2.3574,-2.3581,-2.4077,-2.4796,-2.5349,-2.4611,-2.2601,-2.13,-2.3054,-2.4425,-2.481,-2.4933,-2.5301,-2.6042,-2.6286,-2.6286,-2.6286,-2.6294,-2.6508,-2.711,-2.6101,-2.4332,-2.4224,-2.4595,-2.4796,-2.5194,-2.5697,-2.6039,-2.6096,-2.6192,-2.6422,-2.7108,-2.7897,-2.929,-3.0152,-3.0459,-3.1027,-3.0281,-2.9631,-2.6969,-2.6493,-2.735,-2.7784,-2.7652,-2.766,-2.8188,-2.8592,-2.8592,-2.874,-3.2394,-3.2536,-3.3399,-3.377,-3.3879,-3.4305,-3.4357,-3.4155,-3.3582,-3.3119,-3.2892,-3.2092,-3.1295,-3.0616,-3.0274,-2.9686,-2.9103,-2.8984,-2.8984,-2.8984,-2.8984,-2.8984,-2.8984,-2.8379,-2.802,-2.7779,-2.7418,-2.7418,-2.7659,-2.7891,-2.8268,-2.8627,-2.8746,-2.8865,-2.8865,-2.8984,-2.8379,-2.7297,-2.7047,-2.6441,-2.5234,-2.5103,-2.5103,-2.5111,-2.5226,-2.5226,-2.5349,-2.5953,-2.6805,-2.7771,-2.8379,-2.8737,-2.8865,-2.8984,-2.8865,-2.8737,-2.8856,-2.8618,-2.8737,-2.8361,-2.8002,-2.6892,-2.5668,-2.4432,-2.345,-2.2459,-2.1601,-2.1607,-2.2466,-2.2591,-2.2132,-2.223,-2.2201,-2.1475,-2.2194,-2.3457,-2.4564,-2.4564,-2.4564,-2.481,-2.4933,-2.4933,-2.4933,-2.4925,-2.4949,-2.4726,-2.4471,-2.3462,-2.2718,-2.3333,-2.4756,-2.5099,-2.4773,-2.4819,-2.4732,-2.4949,-2.5018,-2.5321,-2.6122,-2.7605,-2.8952,-2.9367,-2.9121,-2.8709,-2.8503,-2.5863,-2.4671,-2.5516,-2.6039,-2.6061,-2.6321,-2.6855,-2.6988,-2.6996,-2.731,-3.2579,-3.2951,-3.3551,-3.3999,-3.4327,-3.4491,-3.4054,-3.347,-3.3233,-3.2664,-3.2092,-3.1179,-3.0606,-3.0382,-2.9677,-2.9222,-2.8984,-2.8984,-2.8984,-2.8984,-2.8984,-2.8984,-2.8865,-2.8259,-2.7779,-2.7297,-2.7056,-2.6813,-2.6684,-2.7047,-2.7418,-2.7539,-2.802,-2.8259,-2.8259,-2.8746,-2.8259,-2.7177,-2.7064,-2.6327,-2.5349,-2.5103,-2.5103,-2.5103,-2.5103,-2.5103,-2.5103,-2.5709,-2.6441,-2.7177,-2.7418,-2.7779,-2.8259,-2.8259,-2.8011,-2.7633,-2.7504,-2.7021,-2.6286,-2.6156,-2.5912,-2.5546,-2.444,-2.3442,-2.3076,-2.1846,-2.1229,-2.1102,-2.1475,-2.1475,-2.1229,-2.1475,-2.1355,-2.1229,-2.1475,-2.1846,-2.2215,-2.2097,-2.2466,-2.3318,-2.3566,-2.3566,-2.3566,-2.3566,-2.3325,-2.2584,-2.2348,-2.2419,-2.2104,-2.1988,-2.3428,-2.319,-2.2994,-2.3161,-2.3335,-2.3544,-2.3683,-2.3582,-2.4246,-2.5167,-2.5947,-2.6261,-2.5499,-2.4583,-2.5576,-2.3955,-2.343,-2.3791,-2.3982,-2.4595,-2.4993,-2.5532,-2.5532,-2.554,-2.6161,-3.282,-3.3126,-3.3814,-3.4261,-3.4401,-3.4065,-3.3593,-3.2995,-3.2207,-3.1747,-3.1063,-3.0255,-2.9804,-2.9804,-2.9213,-2.8984,-2.8984,-2.8984,-2.8984,-2.8984,-2.8984,-2.8984,-2.8746,-2.814,-2.7418,-2.6935,-2.6449,-2.6197,-2.6197,-2.6441,-2.6684,-2.7056,-2.7409,-2.7539,-2.765,-2.79,-2.7659,-2.6822,-2.6856,-2.6369,-2.5234,-2.5103,-2.5103,-2.5103,-2.5103,-2.5103,-2.5103,-2.5472,-2.5953,-2.6571,-2.6813,-2.7177,-2.7539,-2.728,-2.703,-2.6537,-2.6286,-2.5782,-2.5178,-2.4933,-2.4679,-2.4186,-2.345,-2.2827,-2.2341,-2.1475,-2.1102,-2.1102,-2.1102,-2.1102,-2.1102,-2.1102,-2.1102,-2.1102,-2.1102,-2.1102,-2.1102,-2.1229,-2.1481,-2.1964,-2.2215,-2.2215,-2.2208,-2.2208,-2.1846,-2.1348,-2.1348,-2.1658,-2.1862,-2.1773,-2.1844,-2.2124,-2.2358,-2.2788,-2.2991,-2.3141,-2.3338,-2.3119,-2.3263,-2.3931,-2.3975,-2.4075,-2.3658,-2.3233,-2.3052,-2.2835,-2.2868,-2.2895,-2.3215,-2.3665,-2.3938,-2.4067,-2.4203,-2.4474,-2.496,-3.3071,-3.3147,-3.4119,-3.4524,-3.4289,-3.348,-3.3006,-3.2664,-3.1295,-3.0372,-3.0147,-2.9331,-2.9103,-2.8984,-2.9094,-2.8984,-2.8984,-2.8984,-2.8984,-2.8984,-2.8984,-2.8984,-2.8865,-2.7659,-2.7177,-2.6813,-2.5725,-2.5594,-2.5839,-2.5953,-2.6197,-2.6562,-2.6805,-2.6926,-2.6926,-2.7056,-2.6684,-2.6336,-2.6785,-2.6411,-2.5373,-2.5103,-2.5103,-2.5111,-2.5226,-2.5349,-2.5472,-2.5472,-2.5717,-2.6197,-2.6562,-2.6684,-2.6684,-2.6181,-2.5806,-2.5439,-2.5056,-2.4687,-2.4448,-2.4193,-2.3946,-2.3076,-2.2827,-2.2459,-2.1475,-2.1102,-2.1102,-2.1102,-2.1102,-2.1102,-2.1102,-2.1102,-2.1102,-2.1102,-2.1102,-2.1102,-2.1102,-2.1102,-2.1102,-2.1102,-2.1109,-2.1102,-2.1102,-2.1102,-2.1102,-2.1229,-2.1142,-2.1457,-2.1713,-2.1928,-2.2078,-2.2425,-2.2632,-2.2806,-2.2963,-2.2983,-2.2989,-2.2996,-2.2996,-2.3263,-2.3263,-2.3324,-2.3086,-2.2832,-2.2922,-2.2922,-2.2956,-2.2846,-2.2866,-2.2996,-2.34,-2.327,-2.2996,-2.34,-2.385,-3.3071,-3.3147,-3.4119,-3.4524,-3.4289,-3.347,-3.2664,-3.1977,-3.084,-2.9922,-2.9331,-2.9103,-2.8984,-2.8984,-2.8984,-2.8984,-2.8865,-2.8865,-2.8984,-2.8984,-2.8984,-2.8984,-2.8746,-2.7539,-2.7056,-2.6692,-2.5717,-2.5234,-2.5349,-2.5349,-2.5349,-2.5586,-2.6075,-2.6319,-2.6319,-2.6684,-2.6684,-2.6336,-2.6663,-2.6297,-2.5373,-2.5111,-2.5111,-2.5234,-2.5594,-2.6075,-2.6449,-2.6571,-2.6692,-2.6571,-2.5961,-2.5456,-2.5439,-2.5317,-2.4695,-2.3946,-2.3574,-2.3076,-2.2215,-2.2097,-2.1853,-2.172,-2.172,-2.1355,-2.1229,-2.1102,-2.1102,-2.1102,-2.1102,-2.1102,-2.1102,-2.1102,-2.1102,-2.1102,-2.1102,-2.1102,-2.1102,-2.1102,-2.1102,-2.1102,-2.1102,-2.1102,-2.1102,-2.1102,-2.1102,-2.1102,-2.1209,-2.1376,-2.1623,-2.1891,-2.2205,-2.2519,-2.2732,-2.2859,-2.2866,-2.2866,-2.2866,-2.2866,-2.2866,-2.2866,-2.2866,-2.2866,-2.2866,-2.2866,-2.2853,-2.2866,-2.2866,-2.2866,-2.2866,-2.2866,-2.2866,-2.2866,-2.2866,-2.2866,-2.2866,-3.3071,-3.3169,-3.4119,-3.4524,-3.4289,-3.3119,-3.2207,-3.1516,-3.0255,-2.945,-2.8975,-2.8737,-2.8498,-2.8498,-2.8498,-2.8388,-2.8148,-2.802,-2.802,-2.802,-2.802,-2.8259,-2.8259,-2.7409,-2.6684,-2.6805,-2.6075,-2.5472,-2.5234,-2.5103,-2.5103,-2.5111,-2.5472,-2.5594,-2.5594,-2.5953,-2.5839,-2.5725,-2.588,-2.5766,-2.5242,-2.5111,-2.5357,-2.5594,-2.5953,-2.6319,-2.6935,-2.6311,-2.6181,-2.5823,-2.4964,-2.4718,-2.5194,-2.4456,-2.3581,-2.345,-2.2334,-2.1971,-2.1235,-2.1102,-2.1102,-2.1102,-2.1102,-2.1102,-2.1102,-2.1102,-2.1102,-2.1102,-2.1102,-2.1102,-2.1102,-2.1102,-2.1102,-2.1102,-2.1102,-2.1102,-2.1102,-2.1102,-2.1102,-2.1102,-2.1102,-2.1102,-2.1102,-2.1102,-2.1102,-2.1102,-2.1116,-2.1276,-2.1414,-2.1693,-2.2151,-2.2458,-2.2719,-2.2859,-2.2859,-2.2866,-2.2866,-2.2866,-2.2866,-2.2866,-2.2866,-2.2866,-2.2866,-2.2866,-2.2866,-2.2866,-2.2866,-2.2866,-2.2866,-2.2866,-2.2866,-2.2866,-2.2866,-2.2866,-2.2866,-3.3071,-3.3147,-3.4119,-3.4401,-3.4054,-3.255,-3.1747,-3.1285,-2.9795,-2.9103,-2.8865,-2.8379,-2.8259,-2.802,-2.802,-2.7659,-2.7177,-2.7056,-2.7185,-2.7185,-2.7177,-2.7418,-2.7539,-2.6926,-2.6441,-2.6813,-2.6075,-2.5594,-2.5234,-2.5103,-2.5103,-2.5111,-2.5111,-2.5226,-2.5103,-2.5103,-2.5226,-2.5234,-2.5234,-2.5242,-2.5111,-2.5103,-2.5349,-2.5953,-2.57,-2.6059,-2.6302,-2.5684,-2.5063,-2.4933,-2.3837,-2.4579,-2.5202,-2.4085,-2.2355,-2.3457,-2.1971,-2.1355,-2.1102,-2.1102,-2.1102,-2.1102,-2.1102,-2.1102,-2.1102,-2.1102,-2.1102,-2.1102,-2.1102,-2.1102,-2.1102,-2.1102,-2.1102,-2.1102,-2.1102,-2.1102,-2.1102,-2.1102,-2.1102,-2.1102,-2.1102,-2.1102,-2.1102,-2.1102,-2.1102,-2.1102,-2.1116,-2.1075,-2.1334,-2.158,-2.2004,-2.2285,-2.2525,-2.2799,-2.2839,-2.2846,-2.2853,-2.2866,-2.2866,-2.2866,-2.2866,-2.2866,-2.2866,-2.2866,-2.2866,-2.2866,-2.2866,-2.2866,-2.2866,-2.2866,-2.2866,-2.2866,-2.2866,-2.2866,-2.2866,-3.3071,-3.3158,-3.4119,-3.4065,-3.3233,-3.2207,-3.1411,-3.0499,-2.945,-2.8984,-2.8984,-2.8865,-2.8379,-2.8131,-2.8011,-2.7659,-2.7056,-2.6822,-2.6813,-2.6813,-2.6813,-2.7056,-2.7056,-2.6692,-2.6571,-2.6075,-2.5709,-2.5226,-2.5111,-2.5103,-2.5103,-2.5103,-2.5103,-2.5103,-2.5103,-2.5103,-2.5103,-2.5103,-2.5103,-2.5103,-2.5103,-2.498,-2.5218,-2.57,-2.5194,-2.5186,-2.5407,-2.5024,-2.4532,-2.4532,-2.3566,-2.3946,-2.4448,-2.3091,-2.2104,-2.1727,-2.1355,-2.1102,-2.1102,-2.1102,-2.1102,-2.1102,-2.1102,-2.1102,-2.1102,-2.1102,-2.1102,-2.1102,-2.1102,-2.1102,-2.1102,-2.1102,-2.1102,-2.1102,-2.1102,-2.1102,-2.1102,-2.1102,-2.1102,-2.1102,-2.1102,-2.1102,-2.1102,-2.1102,-2.1102,-2.1102,-2.1109,-2.1055,-2.1126,-2.1434,-2.175,-2.2024,-2.2291,-2.2579,-2.2812,-2.2826,-2.2832,-2.2859,-2.2866,-2.2866,-2.2866,-2.2866,-2.2866,-2.2866,-2.2866,-2.2866,-2.2866,-2.2866,-2.2866,-2.2866,-2.2866,-2.2866,-2.2866,-2.2866,-2.2866,-3.3071,-3.3169,-3.4119,-3.3942,-3.3006,-3.2197,-3.1295,-3.0382,-2.945,-2.8984,-2.8865,-2.8618,-2.814,-2.7659,-2.7539,-2.7168,-2.6571,-2.6083,-2.6083,-2.5961,-2.5961,-2.6197,-2.6441,-2.6197,-2.6197,-2.5831,-2.5464,-2.5103,-2.5103,-2.5103,-2.5103,-2.5103,-2.5103,-2.5103,-2.5103,-2.5103,-2.5103,-2.5103,-2.5103,-2.5103,-2.498,-2.4734,-2.4718,-2.4826,-2.4448,-2.4178,-2.4409,-2.3668,-2.3303,-2.3062,-2.2334,-2.2215,-2.2341,-2.2223,-2.1734,-2.172,-2.1348,-2.1102,-2.1102,-2.1102,-2.1102,-2.1102,-2.1102,-2.1102,-2.1102,-2.1102,-2.1102,-2.1102,-2.1102,-2.1102,-2.1102,-2.1102,-2.1102,-2.1102,-2.1102,-2.1102,-2.1102,-2.1102,-2.1102,-2.1102,-2.1102,-2.1102,-2.1102,-2.1102,-2.1102,-2.1102,-2.1102,-2.1062,-2.106,-2.1308,-2.1577,-2.1777,-2.2044,-2.2291,-2.2545,-2.2612,-2.2719,-2.2786,-2.2826,-2.2826,-2.2866,-2.2866,-2.2866,-2.2866,-2.2866,-2.2866,-2.2866,-2.2866,-2.2866,-2.2866,-2.2866,-2.2866,-2.2866,-2.2866,-2.2866,-3.3071,-3.3147,-3.3888,-3.3717,-3.2778,-3.1862,-3.0946,-3.003,-2.9331,-2.8984,-2.8865,-2.8498,-2.7891,-2.7297,-2.6935,-2.6441,-2.5831,-2.5349,-2.5226,-2.5226,-2.5234,-2.5472,-2.5586,-2.5472,-2.5349,-2.5717,-2.5349,-2.5103,-2.5103,-2.5103,-2.5103,-2.5103,-2.5103,-2.5103,-2.5103,-2.5103,-2.5103,-2.5103,-2.5103,-2.5103,-2.4857,-2.4363,-2.3976,-2.4201,-2.345,-2.3062,-2.3047,-2.2187,-2.1699,-2.1454,-2.1096,-2.0736,-2.0729,-2.0982,-2.1601,-2.2341,-2.1601,-2.1229,-2.1102,-2.1102,-2.1102,-2.1102,-2.1102,-2.1102,-2.1102,-2.1102,-2.1102,-2.1102,-2.1102,-2.1102,-2.1102,-2.1102,-2.1102,-2.1102,-2.1102,-2.1102,-2.1102,-2.1102,-2.1102,-2.1102,-2.1102,-2.1102,-2.1102,-2.1102,-2.1102,-2.1102,-2.1102,-2.1102,-2.1089,-2.1175,-2.1436,-2.1583,-2.179,-2.2011,-2.2205,-2.2311,-2.2465,-2.2645,-2.2835,-2.2862,-2.2936,-2.2866,-2.2846,-2.2819,-2.2866,-2.2866,-2.2866,-2.2859,-2.2866,-2.2866,-2.2866,-2.2866,-2.2866,-2.2866,-2.2866,-3.3071,-3.3147,-3.32,-3.2778,-3.1862,-3.0946,-3.003,-2.9213,-2.8984,-2.8984,-2.8865,-2.8865,-2.8498,-2.7659,-2.6562,-2.5831,-2.5349,-2.5234,-2.5103,-2.5103,-2.5111,-2.5111,-2.5226,-2.5234,-2.5111,-2.5349,-2.5234,-2.5111,-2.5103,-2.5103,-2.5111,-2.5111,-2.5103,-2.5103,-2.5111,-2.5103,-2.5103,-2.5103,-2.5103,-2.5103,-2.498,-2.4865,-2.4232,-2.3604,-2.2598,-2.1839,-2.1188,-2.0576,-2.0075,-2.0081,-2.0475,-2.0609,-2.0609,-2.0862,-2.1109,-2.1235,-2.1235,-2.1102,-2.1102,-2.1102,-2.1102,-2.1102,-2.1102,-2.1102,-2.1102,-2.1102,-2.1102,-2.1102,-2.1102,-2.1102,-2.1102,-2.1102,-2.1102,-2.1102,-2.1102,-2.1102,-2.1102,-2.1102,-2.1102,-2.1102,-2.1102,-2.1102,-2.1102,-2.1102,-2.1102,-2.1102,-2.1102,-2.1102,-2.1122,-2.1216,-2.1276,-2.1416,-2.151,-2.1717,-2.1911,-2.2011,-2.2191,-2.2425,-2.264,-2.2836,-2.2883,-2.2937,-2.2902,-2.2895,-2.2922,-2.2942,-2.2922,-2.2929,-2.2839,-2.2866,-2.2866,-2.2866,-2.2866,-2.2866,-2.2866,-3.3071,-3.3147,-3.3077,-3.254,-3.1632,-3.0344,-2.9303,-2.8609,-2.8507,-2.8379,-2.8498,-2.8856,-2.8379,-2.7289,-2.6075,-2.5349,-2.5103,-2.5103,-2.5103,-2.5103,-2.5103,-2.5103,-2.5103,-2.5111,-2.5103,-2.5226,-2.5472,-2.5472,-2.5349,-2.5472,-2.5472,-2.5234,-2.5472,-2.5472,-2.5234,-2.5103,-2.5103,-2.5103,-2.5103,-2.5103,-2.4857,-2.41,-2.323,-2.2738,-2.1348,-2.0335,-1.9826,-1.9577,-1.9328,-1.9456,-1.9973,-2.0227,-2.0488,-2.0736,-2.1102,-2.1102,-2.1102,-2.1102,-2.1102,-2.1102,-2.1102,-2.1102,-2.1102,-2.1102,-2.1102,-2.1102,-2.1102,-2.1102,-2.1102,-2.1102,-2.1102,-2.1102,-2.1102,-2.1102,-2.1102,-2.1102,-2.1102,-2.1102,-2.1102,-2.1102,-2.1102,-2.1102,-2.1102,-2.1102,-2.1102,-2.1102,-2.1102,-2.1102,-2.1102,-2.1136,-2.1189,-2.1243,-2.1316,-2.1403,-2.1597,-2.175,-2.1897,-2.2091,-2.2317,-2.2518,-2.2859,-2.2941,-2.2754,-2.2809,-2.2788,-2.2829,-2.2903,-2.2902,-2.2853,-2.2866,-2.2866,-2.2866,-2.2866,-2.2866,-2.2866,-3.2855,-3.2717,-3.2742,-3.2426,-3.1632,-2.9973,-2.8829,-2.8011,-2.8011,-2.79,-2.79,-2.814,-2.7779,-2.6805,-2.5839,-2.5357,-2.5103,-2.5103,-2.5103,-2.5103,-2.5103,-2.5103,-2.5103,-2.5103,-2.5103,-2.5103,-2.5472,-2.5472,-2.5472,-2.5717,-2.5953,-2.5349,-2.6083,-2.5953,-2.5594,-2.5349,-2.5349,-2.5103,-2.5103,-2.4833,-2.4186,-2.3216,-2.2348,-2.1475,-2.0335,-1.9328,-1.92,-1.9072,-1.9072,-1.9206,-1.9717,-1.9973,-2.0234,-2.0749,-2.1116,-2.1109,-2.1102,-2.1102,-2.1102,-2.1102,-2.1102,-2.1102,-2.1102,-2.1102,-2.1102,-2.1102,-2.1102,-2.1102,-2.1102,-2.1102,-2.1102,-2.1102,-2.1102,-2.1102,-2.1102,-2.1102,-2.1102,-2.1102,-2.1102,-2.1102,-2.1102,-2.1102,-2.1102,-2.1102,-2.1102,-2.1102,-2.1102,-2.1102,-2.1102,-2.1102,-2.1122,-2.1169,-2.1189,-2.1243,-2.1329,-2.1496,-2.1643,-2.1757,-2.1988,-2.2241,-2.2474,-2.2515,-2.243,-2.2471,-2.2617,-2.2538,-2.2318,-2.2599,-2.2866,-2.2866,-2.2866,-2.2866,-2.2866,-2.2846,-2.2853,-3.2137,-3.1839,-3.1829,-3.1852,-3.1622,-2.9785,-2.8618,-2.8011,-2.8011,-2.7659,-2.7297,-2.7056,-2.6805,-2.6319,-2.5953,-2.5594,-2.5111,-2.5103,-2.5103,-2.5103,-2.5103,-2.5103,-2.5103,-2.5103,-2.5103,-2.5111,-2.5349,-2.5349,-2.548,-2.6449,-2.6441,-2.6197,-2.6692,-2.6441,-2.6075,-2.5709,-2.5464,-2.5103,-2.4857,-2.3915,-2.3266,-2.2666,-2.2348,-2.1089,-2.0583,-2.0075,-1.92,-1.9072,-1.9072,-1.9072,-1.9456,-1.9839,-2.01,-2.0628,-2.1002,-2.0989,-2.1109,-2.1102,-2.1102,-2.1102,-2.1102,-2.1102,-2.1102,-2.1102,-2.1102,-2.1102,-2.1102,-2.1102,-2.1102,-2.1102,-2.1102,-2.1102,-2.1102,-2.1102,-2.1102,-2.1102,-2.1102,-2.1102,-2.1102,-2.1102,-2.1102,-2.1102,-2.1102,-2.1102,-2.1102,-2.1102,-2.1102,-2.1102,-2.1102,-2.1102,-2.1102,-2.1122,-2.1116,-2.1129,-2.1129,-2.1256,-2.139,-2.1483,-2.1699,-2.1854,-2.2008,-2.2015,-2.1928,-2.1719,-2.1739,-2.1806,-2.1919,-2.2198,-2.2585,-2.2779,-2.2819,-2.2665,-2.2632,-2.2619,-2.2699,-3.2115,-3.1709,-3.1431,-3.1162,-3.083,-2.8719,-2.79,-2.79,-2.7539,-2.7539,-2.753,-2.6805,-2.6319,-2.6067,-2.5586,-2.5349,-2.5111,-2.5103,-2.5103,-2.5103,-2.5103,-2.5111,-2.5111,-2.5103,-2.5103,-2.5234,-2.5472,-2.5472,-2.5357,-2.6692,-2.7056,-2.7056,-2.7297,-2.6805,-2.6432,-2.5823,-2.5333,-2.4833,-2.41,-2.3069,-2.2937,-2.193,-2.1468,-2.1102,-1.996,-1.9577,-1.9206,-1.9072,-1.9072,-1.92,-1.945,-1.9577,-1.9839,-2.0501,-2.0749,-2.0862,-2.0982,-2.1102,-2.1102,-2.1102,-2.1102,-2.1102,-2.1102,-2.1102,-2.1102,-2.1102,-2.1102,-2.1102,-2.1102,-2.1102,-2.1102,-2.1102,-2.1102,-2.1102,-2.1102,-2.1102,-2.1102,-2.1102,-2.1102,-2.1102,-2.1102,-2.1102,-2.1102,-2.1102,-2.1102,-2.1102,-2.1102,-2.1102,-2.1102,-2.1102,-2.1102,-2.1102,-2.1102,-2.1102,-2.1102,-2.1129,-2.1156,-2.1229,-2.1309,-2.1436,-2.157,-2.143,-2.1376,-2.1057,-2.1032,-2.1377,-2.1673,-2.1932,-2.2138,-2.2412,-2.2392,-2.2278,-2.2298,-2.2385,-2.2472,-3.1869,-3.123,-3.0984,-3.0665,-3.0109,-2.837,-2.7659,-2.7659,-2.7409,-2.7409,-2.765,-2.6562,-2.6075,-2.5953,-2.5472,-2.5103,-2.5234,-2.5349,-2.5234,-2.5226,-2.5349,-2.5226,-2.5103,-2.5103,-2.5103,-2.5226,-2.5472,-2.5472,-2.5234,-2.6926,-2.7047,-2.7056,-2.7659,-2.753,-2.6796,-2.557,-2.4949,-2.4209,-2.3596,-2.2327,-2.218,-2.1573,-2.0709,-2.0729,-1.9973,-1.959,-1.9462,-1.9328,-1.9328,-1.9328,-1.945,-1.945,-1.9711,-2.01,-2.0482,-2.0736,-2.0856,-2.1102,-2.1102,-2.1102,-2.1102,-2.1102,-2.1102,-2.1102,-2.1102,-2.1102,-2.1102,-2.1102,-2.1102,-2.1102,-2.1102,-2.1102,-2.1102,-2.1102,-2.1102,-2.1102,-2.1102,-2.1102,-2.1102,-2.1102,-2.1102,-2.1102,-2.1102,-2.1102,-2.1102,-2.1102,-2.1102,-2.1102,-2.1102,-2.1102,-2.1102,-2.1102,-2.1102,-2.1102,-2.1102,-2.1122,-2.1129,-2.1142,-2.1196,-2.1169,-2.1196,-2.1102,-2.1102,-2.1109,-2.1074,-2.1107,-2.1219,-2.1507,-2.1693,-2.2004,-2.1997,-2.2017,-2.2091,-2.2178,-2.2324,-3.1138,-3.0389,-3.0339,-3.0285,-3.0236,-2.9322,-2.8259,-2.7418,-2.765,-2.765,-2.7177,-2.6441,-2.6197,-2.6075,-2.5594,-2.5349,-2.5472,-2.5831,-2.5839,-2.5594,-2.5709,-2.5586,-2.5349,-2.5226,-2.5103,-2.5103,-2.5226,-2.5226,-2.5103,-2.6571,-2.6692,-2.6926,-2.79,-2.8379,-2.7779,-2.605,-2.4456,-2.3362,-2.3245,-2.1923,-2.1141,-2.1062,-2.0849,-2.0482,-2.0106,-1.9845,-1.9851,-1.9717,-1.9584,-1.9584,-1.9456,-1.9456,-1.9705,-1.9973,-2.0361,-2.0602,-2.0856,-2.1109,-2.1102,-2.1102,-2.1102,-2.1102,-2.1102,-2.1102,-2.1102,-2.1102,-2.1102,-2.1102,-2.1102,-2.1102,-2.1102,-2.1102,-2.1102,-2.1102,-2.1102,-2.1102,-2.1102,-2.1102,-2.1102,-2.1102,-2.1102,-2.1102,-2.1102,-2.1102,-2.1102,-2.1102,-2.1102,-2.1102,-2.1102,-2.1102,-2.1102,-2.1102,-2.1102,-2.1102,-2.1102,-2.1102,-2.1109,-2.1102,-2.1102,-2.1102,-2.1102,-2.1102,-2.1109,-2.1109,-2.1022,-2.1109,-2.1055,-2.1156,-2.141,-2.1663,-2.1804,-2.1864,-2.1924,-2.1924,-2.1891,-3.1117,-3.0299,-3.0309,-3.0039,-2.9384,-2.8618,-2.8268,-2.8259,-2.814,-2.79,-2.7418,-2.6562,-2.6319,-2.6319,-2.6197,-2.5953,-2.6319,-2.6449,-2.6449,-2.6327,-2.6319,-2.5953,-2.5709,-2.5472,-2.5226,-2.5111,-2.5111,-2.5111,-2.5111,-2.6449,-2.6813,-2.7168,-2.8131,-2.8241,-2.7263,-2.5806,-2.4741,-2.3973,-2.2677,-2.1215,-2.0803,-2.0709,-2.0609,-2.0361,-2.0227,-2.0234,-2.024,-1.9973,-1.9973,-1.9973,-1.9717,-1.9717,-1.9966,-2.0234,-2.0482,-2.0609,-2.0862,-2.1102,-2.1102,-2.1102,-2.1102,-2.1102,-2.1102,-2.1102,-2.1102,-2.1102,-2.1102,-2.1102,-2.1102,-2.1102,-2.1102,-2.1102,-2.1102,-2.1102,-2.1102,-2.1102,-2.1102,-2.1102,-2.1102,-2.1102,-2.1102,-2.1102,-2.1102,-2.1102,-2.1102,-2.1102,-2.1102,-2.1102,-2.1102,-2.1102,-2.1102,-2.1102,-2.1102,-2.1102,-2.1102,-2.1102,-2.1102,-2.1102,-2.1102,-2.1102,-2.1102,-2.1102,-2.1102,-2.1109,-2.1102,-2.1102,-2.1102,-2.1116,-2.1176,-2.1336,-2.149,-2.1537,-2.151,-2.149,-2.1328,-3.1327,-3.073,-3.0419,-3.0039,-2.9375,-2.8618,-2.8618,-2.8856,-2.8259,-2.814,-2.802,-2.7289,-2.6926,-2.7056,-2.6813,-2.6562,-2.7056,-2.7297,-2.7056,-2.7056,-2.6926,-2.6684,-2.6327,-2.5953,-2.5961,-2.5717,-2.5594,-2.5602,-2.5839,-2.6571,-2.7297,-2.7891,-2.8498,-2.8122,-2.7013,-2.5815,-2.4363,-2.3311,-2.1635,-2.0982,-2.0849,-2.0862,-2.0609,-2.0609,-2.0602,-2.0482,-2.0488,-2.0361,-2.0234,-2.0234,-2.024,-2.0113,-2.0234,-2.0354,-2.0609,-2.0736,-2.0856,-2.1102,-2.1102,-2.1102,-2.1102,-2.1102,-2.1102,-2.1102,-2.1102,-2.1102,-2.1102,-2.1102,-2.1102,-2.1102,-2.1102,-2.1102,-2.1102,-2.1102,-2.1102,-2.1102,-2.1102,-2.1102,-2.1102,-2.1102,-2.1102,-2.1102,-2.1102,-2.1102,-2.1102,-2.1102,-2.1102,-2.1102,-2.1102,-2.1102,-2.1102,-2.1102,-2.1102,-2.1102,-2.1102,-2.1102,-2.1102,-2.1102,-2.1102,-2.1102,-2.1102,-2.1102,-2.1102,-2.1102,-2.1102,-2.1102,-2.1102,-2.1122,-2.1156,-2.1156,-2.1196,-2.1189,-2.1102,-2.1142,-2.1069,-3.1559,-3.1485,-3.065,-3.0266,-3.0188,-2.9213,-2.8975,-2.8975,-2.8379,-2.8379,-2.8865,-2.814,-2.79,-2.79,-2.7297,-2.7177,-2.7297,-2.7779,-2.7659,-2.7409,-2.753,-2.7418,-2.7177,-2.6805,-2.6692,-2.6571,-2.6441,-2.6327,-2.6935,-2.7177,-2.7771,-2.8618,-2.8865,-2.7993,-2.6771,-2.5431,-2.3822,-2.2194,-2.1488,-2.0969,-2.0982,-2.0976,-2.0982,-2.0976,-2.0982,-2.0982,-2.0856,-2.0736,-2.0609,-2.0482,-2.0361,-2.0234,-2.0234,-2.0488,-2.0609,-2.0736,-2.0982,-2.1102,-2.1102,-2.1102,-2.1102,-2.1102,-2.1102,-2.1102,-2.1102,-2.1102,-2.1102,-2.1102,-2.1102,-2.1102,-2.1102,-2.1102,-2.1102,-2.1102,-2.1102,-2.1102,-2.1102,-2.1102,-2.1102,-2.1102,-2.1102,-2.1102,-2.1102,-2.1102,-2.1102,-2.1102,-2.1102,-2.1102,-2.1102,-2.1102,-2.1102,-2.1102,-2.1102,-2.1102,-2.1102,-2.1102,-2.1102,-2.1102,-2.1102,-2.1102,-2.1102,-2.1102,-2.1102,-2.1102,-2.1102,-2.1102,-2.1102,-2.1102,-2.1109,-2.1102,-2.1102,-2.1102,-2.1102,-2.1102,-2.1136,-3.0704,-3.063,-2.9764,-2.9365,-2.9394,-2.9103,-2.8984,-2.8984,-2.8737,-2.8865,-2.8975,-2.8268,-2.8259,-2.8627,-2.802,-2.802,-2.8259,-2.8618,-2.8618,-2.8379,-2.814,-2.79,-2.7659,-2.7297,-2.7185,-2.7064,-2.6935,-2.6935,-2.7177,-2.7418,-2.802,-2.8865,-2.8856,-2.7633,-2.6277,-2.5178,-2.3368,-2.186,-2.1308,-2.1089,-2.1102,-2.1102,-2.1102,-2.1102,-2.1102,-2.1102,-2.0976,-2.0982,-2.0856,-2.0856,-2.0856,-2.0856,-2.0862,-2.0862,-2.0989,-2.0982,-2.1109,-2.1102,-2.1102,-2.1102,-2.1102,-2.1102,-2.1102,-2.1102,-2.1102,-2.1102,-2.1102,-2.1102,-2.1102,-2.1102,-2.1102,-2.1102,-2.1102,-2.1102,-2.1102,-2.1102,-2.1102,-2.1102,-2.1102,-2.1102,-2.1102,-2.1102,-2.1102,-2.1102,-2.1102,-2.1102,-2.1102,-2.1102,-2.1102,-2.1102,-2.1102,-2.1102,-2.1102,-2.1102,-2.1102,-2.1102,-2.1102,-2.1102,-2.1102,-2.1102,-2.1102,-2.1102,-2.1102,-2.1102,-2.1102,-2.1102,-2.1102,-2.1102,-2.1102,-2.1102,-2.1102,-2.1102,-2.1102,-2.1102,-2.1102,-3.0926,-3.0709,-2.9875,-2.9365,-2.902,-2.8984,-2.8984,-2.8984,-2.8984,-2.8984,-2.8984,-2.8618,-2.8618,-2.8865,-2.8618,-2.8618,-2.8865,-2.8865,-2.8865,-2.8746,-2.8618,-2.8498,-2.814,-2.802,-2.79,-2.7779,-2.7539,-2.765,-2.7779,-2.814,-2.8746,-2.8856,-2.8618,-2.7383,-2.6034,-2.4802,-2.366,-2.2402,-2.1672,-2.1215,-2.1102,-2.1102,-2.1102,-2.1102,-2.1102,-2.1102,-2.1102,-2.1102,-2.1102,-2.1102,-2.1102,-2.1102,-2.1109,-2.1109,-2.1109,-2.1109,-2.1102,-2.1102,-2.1102,-2.1102,-2.1102,-2.1102,-2.1102,-2.1102,-2.1102,-2.1102,-2.1102,-2.1102,-2.1102,-2.1102,-2.1102,-2.1102,-2.1102,-2.1102,-2.1102,-2.1102,-2.1102,-2.1102,-2.1102,-2.1102,-2.1102,-2.1102,-2.1102,-2.1102,-2.1102,-2.1102,-2.1102,-2.1102,-2.1102,-2.1102,-2.1102,-2.1102,-2.1102,-2.1102,-2.1102,-2.1102,-2.1102,-2.1102,-2.1102,-2.1102,-2.1102,-2.1102,-2.1102,-2.1102,-2.1102,-2.1102,-2.1102,-2.1102,-2.1102,-2.1102,-2.1102,-2.1102,-2.1102,-2.1102,-2.1102,-3.1548,-3.1439,-3.0611,-2.968,-2.9048,-2.8984,-2.8984,-2.8984,-2.8984,-2.8984,-2.8984,-2.8984,-2.8984,-2.8984,-2.8865,-2.8865,-2.8984,-2.8984,-2.8984,-2.8984,-2.8865,-2.8865,-2.8865,-2.8984,-2.8618,-2.8618,-2.8498,-2.825,-2.8737,-2.8865,-2.8737,-2.8856,-2.7753,-2.665,-2.566,-2.4186,-2.3069,-2.2466,-2.1587,-2.1102,-2.1102,-2.1102,-2.1102,-2.1102,-2.1102,-2.1102,-2.1102,-2.1102,-2.1102,-2.1102,-2.1102,-2.1102,-2.1102,-2.1102,-2.1102,-2.1102,-2.1102,-2.1102,-2.1102,-2.1102,-2.1102,-2.1102,-2.1102,-2.1102,-2.1102,-2.1102,-2.1102,-2.1102,-2.1102,-2.1102,-2.1102,-2.1102,-2.1102,-2.1102,-2.1102,-2.1102,-2.1102,-2.1102,-2.1102,-2.1102,-2.1102,-2.1102,-2.1102,-2.1102,-2.1102,-2.1102,-2.1102,-2.1102,-2.1102,-2.1102,-2.1102,-2.1102,-2.1102,-2.1102,-2.1102,-2.1102,-2.1102,-2.1102,-2.1102,-2.1102,-2.1102,-2.1102,-2.1102,-2.1102,-2.1102,-2.1102,-2.1102,-2.1102,-2.1102,-2.1102,-2.1102,-2.1102,-2.1102,-2.1102,-2.1102,-3.0704,-3.049,-2.968,-2.9173,-2.8966,-2.8984,-2.8984,-2.8984,-2.8984,-2.8984,-2.8984,-2.8984,-2.8984,-2.8984,-2.8984,-2.8984,-2.8984,-2.8984,-2.8984,-2.8984,-2.8984,-2.8984,-2.8984,-2.8984,-2.8984,-2.8984,-2.8865,-2.8737,-2.8865,-2.8865,-2.837,-2.7633,-2.6771,-2.6034,-2.4432,-2.3076,-2.2724,-2.2125,-2.1614,-2.1102,-2.1102,-2.1102,-2.1102,-2.1102,-2.1102,-2.1102,-2.1102,-2.1102,-2.1102,-2.1102,-2.1102,-2.1102,-2.1102,-2.1102,-2.1102,-2.1102,-2.1102,-2.1102,-2.1102,-2.1102,-2.1102,-2.1102,-2.1102,-2.1102,-2.1102,-2.1102,-2.1102,-2.1102,-2.1102,-2.1102,-2.1102,-2.1102,-2.1102,-2.1102,-2.1102,-2.1102,-2.1102,-2.1102,-2.1102,-2.1102,-2.1102,-2.1102,-2.1102,-2.1102,-2.1102,-2.1102,-2.1102,-2.1102,-2.1102,-2.1102,-2.1102,-2.1102,-2.1102,-2.1102,-2.1102,-2.1102,-2.1102,-2.1102,-2.1102,-2.1102,-2.1102,-2.1102,-2.1102,-2.1102,-2.1102,-2.1102,-2.1102,-2.1102,-2.1102,-2.1102,-2.1102,-2.1102,-2.1102,-2.1102,-2.1102,-3.0579,-3.0008,-2.9057,-2.8828,-2.8966,-2.8984,-2.8984,-2.8984,-2.8984,-2.8984,-2.8984,-2.8984,-2.8984,-2.8984,-2.8984,-2.8984,-2.8984,-2.8984,-2.8984,-2.8984,-2.8984,-2.8984,-2.8984,-2.8984,-2.8984,-2.8984,-2.8984,-2.8984,-2.8984,-2.825,-2.7513,-2.6771,-2.6156,-2.4679,-2.2952,-2.2584,-2.1971,-2.1235,-2.1102,-2.1102,-2.1102,-2.1102,-2.1102,-2.1102,-2.1102,-2.1102,-2.1102,-2.1102,-2.1102,-2.1102,-2.1102,-2.1102,-2.1102,-2.1102,-2.1102,-2.1102,-2.1102,-2.1102,-2.1102,-2.1102,-2.1102,-2.1102,-2.1102,-2.1102,-2.1102,-2.1102,-2.1102,-2.1102,-2.1102,-2.1102,-2.1102,-2.1102,-2.1102,-2.1102,-2.1102,-2.1102,-2.1102,-2.1102,-2.1102,-2.1102,-2.1102,-2.1102,-2.1102,-2.1102,-2.1102,-2.1102,-2.1102,-2.1102,-2.1102,-2.1102,-2.1102,-2.1102,-2.1102,-2.1102,-2.1102,-2.1102,-2.1102,-2.1102,-2.1102,-2.1102,-2.1102,-2.1102,-2.1102,-2.1102,-2.1102,-2.1102,-2.1102,-2.1102,-2.1102,-2.1102,-2.1102,-2.1102,-2.1102,-2.1102,-2.1102,-3.0895,-2.9729,-2.8756,-2.8627,-2.8948,-2.8984,-2.8984,-2.8984,-2.8984,-2.8984,-2.8984,-2.8984,-2.8984,-2.8984,-2.8984,-2.8984,-2.8984,-2.8984,-2.8984,-2.8984,-2.8984,-2.8984,-2.8984,-2.8984,-2.8984,-2.8984,-2.8984,-2.8984,-2.8984,-2.8002,-2.7013,-2.6277,-2.4794,-2.3069,-2.2584,-2.1846,-2.1102,-2.1102,-2.1102,-2.1102,-2.1102,-2.1102,-2.1102,-2.1102,-2.1102,-2.1102,-2.1102,-2.1102,-2.1102,-2.1102,-2.1102,-2.1102,-2.1102,-2.1102,-2.1102,-2.1102,-2.1102,-2.1102,-2.1102,-2.1102,-2.1102,-2.1102,-2.1102,-2.1102,-2.1102,-2.1102,-2.1102,-2.1102,-2.1102,-2.1102,-2.1102,-2.1102,-2.1102,-2.1102,-2.1102,-2.1102,-2.1102,-2.1102,-2.1102,-2.1102,-2.1102,-2.1102,-2.1102,-2.1102,-2.1102,-2.1102,-2.1102,-2.1102,-2.1102,-2.1102,-2.1102,-2.1102,-2.1102,-2.1102,-2.1102,-2.1102,-2.1102,-2.1102,-2.1102,-2.1102,-2.1102,-2.1102,-2.1102,-2.1102,-2.1102,-2.1102,-2.1102,-2.1102,-2.1102,-2.1102,-2.1102,-2.1102,-2.1102,-2.1102,-2.1102,-3.1064,-3.0128,-2.8869,-2.8618,-2.8948,-2.8984,-2.8984,-2.8984,-2.8984,-2.8984,-2.8984,-2.8984,-2.8984,-2.8984,-2.8984,-2.8984,-2.8984,-2.8984,-2.8984,-2.8984,-2.8984,-2.8984,-2.8984,-2.8984,-2.8984,-2.8984,-2.8984,-2.8984,-2.8737,-2.7624,-2.6399,-2.5415,-2.4062,-2.2584,-2.1475,-2.1102,-2.1102,-2.1102,-2.1102,-2.1102,-2.1102,-2.1102,-2.1102,-2.1102,-2.1102,-2.1102,-2.1102,-2.1102,-2.1102,-2.1102,-2.1102,-2.1102,-2.1102,-2.1102,-2.1102,-2.1102,-2.1102,-2.1102,-2.1102,-2.1102,-2.1102,-2.1102,-2.1102,-2.1102,-2.1102,-2.1102,-2.1102,-2.1102,-2.1102,-2.1102,-2.1102,-2.1102,-2.1102,-2.1102,-2.1102,-2.1102,-2.1102,-2.1102,-2.1102,-2.1102,-2.1102,-2.1102,-2.1102,-2.1102,-2.1102,-2.1102,-2.1102,-2.1102,-2.1102,-2.1102,-2.1102,-2.1102,-2.1102,-2.1102,-2.1102,-2.1102,-2.1102,-2.1102,-2.1102,-2.1102,-2.1102,-2.1102,-2.1102,-2.1102,-2.1102,-2.1102,-2.1102,-2.1102,-2.1102,-2.1102,-2.1102,-2.1102,-2.1102,-2.1102,-2.1102]},{"header":{"parameterUnit":"m.s-1","parameterCategory":1,"la1":31.0,"la2":29.5877,"lo1":-88.7671,"lo2":-86.6584,"dy":0.0162,"dx":0.0185,"nx":115,"ny":88,"refTime":"2023-06-07T06:00:00:Z","depth":0,"parameterNumber":3,"parameterNumberName":"V-component_of_WINDS"},"data":[0.0,0.0,0.0,0.0,0.0,0.0,0.0,0.0,0.0,0.0,0.0,0.0,0.0,0.0,0.0,0.0,0.0,0.0,0.0,0.0,0.0,0.0,0.0,0.0,0.0,0.0,0.0,0.0,0.0,0.0,0.0,0.0,0.0,0.0,0.0,0.0,0.0,0.0,0.0,0.0,0.0,0.0,0.0,0.0,0.0,0.0,0.0,0.0,0.0,0.0,0.0,0.0,0.0,0.0,0.0,0.0,0.0,0.0,0.0,0.0,0.0,0.0,0.0,0.0,0.0,0.0,0.0,0.0,0.0,0.0,0.0,0.0,0.0,0.0,0.0,0.0,0.0,0.0,0.0,0.0,0.0,0.0,0.0,0.0,0.0,0.0,0.0,0.0,0.0,0.0,0.0,0.0,0.0,0.0,0.0,0.0,0.0,0.0,0.0,0.0,0.0,0.0,0.0,0.0,0.0,0.0,0.0,0.0,0.0,0.0,0.0,0.0,0.0,0.0,0.0,0.0,0.0,0.0,0.0,0.0,0.0,0.0,0.0,0.0,0.0,0.0,0.0,0.0,0.0,0.0,0.0,0.0,0.0,0.0,0.0,0.0,0.0,0.0,0.0,0.0,0.0,0.0,0.0,0.0,0.0,0.0,0.0,0.0,0.0,0.0,0.0,0.0,0.0,0.0,0.0,0.0,0.0,0.0,0.0,0.0,0.0,0.0,0.0,0.0,0.0,0.0,0.0,0.0,0.0,0.0,0.0,0.0,0.0,0.0,0.0,0.0,0.0,0.0,0.0,0.0,0.0,0.0,0.0,0.0,0.0,0.0,0.0,0.0,0.0,0.0,0.0,0.0,0.0,0.0,0.0,0.0,0.0,0.0,0.0,0.0,0.0,0.0,0.0,0.0,0.0,0.0,0.0,0.0,0.0,0.0,0.0,0.0,0.0,0.0,0.0,0.0,0.0,0.0,0.0,0.0,0.0,0.0,0.0,0.0,0.0,0.0,0.0,0.0,0.0,0.0,0.0,0.0,0.0,0.0,0.0,0.0,0.0,0.0,0.0,0.0,0.0,0.0,0.0,0.0,0.0,0.0,0.0,0.0,0.0,0.0,0.0,0.0,0.0,0.0,0.0,0.0,0.0,0.0,0.0,0.0,0.0,0.0,0.0,0.0,0.0,0.0,0.0,0.0,0.0,0.0,0.0,0.0,0.0,0.0,0.0,0.0,0.0,0.0,0.0,0.0,0.0,0.0,0.0,0.0,0.0,0.0,0.0,0.0,0.0,0.0,0.0,0.0,0.0,0.0,0.0,0.0,0.0,0.0,0.0,0.0,0.0,0.0,0.0,0.0,0.0,0.0,0.0,0.0,0.0,0.0,0.0,0.0,0.0,0.0,0.0,0.0,0.0,0.0,0.0,0.0,0.0,0.0,0.0,0.0,0.0,0.0,0.0,0.0,0.0,0.0,0.0,0.0,0.0,0.0,0.0,0.0,0.0,0.0,0.0,0.0,0.0,0.0,0.0,0.0,0.0,0.0,0.0,0.0,0.0,0.0,0.0,0.0,0.0,0.0,0.0,0.0,0.0,0.0,0.0,0.0,0.0,0.0,0.0,0.0,0.0,0.0,0.0,0.0,0.0,0.0,0.0,0.0,0.0,0.0,0.0,0.0,0.0,0.0,0.0,0.0,0.0,0.0,0.0,0.0,0.0,0.0,0.0,0.0,0.0,0.0,0.0,0.0,0.0,0.0,0.0,0.0,0.0,0.0,0.0,0.0,0.0,0.0,0.0,0.0,0.0,0.0,0.0,0.0,0.0,0.0,0.0,0.0,0.0,0.0,0.0,0.0,0.0,0.0,0.0,0.0,0.0,0.0,0.0,0.0,0.0,0.0,0.0,0.0,0.0,0.0,0.0,0.0,0.0,0.0,0.0,0.0,0.0,0.0,0.0,0.0,0.0,0.0,0.0,0.0,0.0,0.0,0.0,0.0,0.0,0.0,0.0,0.0,0.0,0.0,0.0,0.0,0.0,0.0,0.0,0.0,0.0,0.0,0.0,0.0,0.0,0.0,0.0,0.0,0.0,0.0,0.0,0.0,0.0,0.0,0.0,0.0,0.0,0.0,0.0,0.0,0.0,0.0,0.0,0.0,0.0,0.0,0.0,0.0,0.0,0.0,0.0,0.0,0.0,0.0,0.0,0.0,0.0,0.0,0.0,0.0,0.0,0.0,0.0,0.0,0.0,0.0,0.0,0.0,0.0,0.0,0.0,0.0,0.0,0.0,0.0,0.0,0.0,0.0,0.0,0.0,0.0,0.0,0.0,0.0,0.0,0.0,0.0,0.0,0.0,0.0,0.0,0.0,0.0,0.0,0.0,0.0,0.0,0.0,0.0,0.0,0.0,0.0,0.0,0.0,0.0,0.0,0.0,0.0,0.0,0.0,0.0,0.0,0.0,0.0,0.0,0.0,0.0,0.0,0.0,0.0,0.0,0.0,0.0,0.0,0.0,0.0,0.0,0.0,0.0,0.0,0.0,0.0,0.0,0.0,0.0,0.0,0.0,0.0,0.0,0.0,0.0,0.0,0.0,0.0,0.0,0.0,0.0,0.0,0.0,0.0,0.0,0.0,0.0,0.0,0.0,0.0,0.0,0.0,0.0,0.0,0.0,0.0,0.0,0.0,0.0,0.0,0.0,0.0,0.0,0.0,0.0,0.0,0.0,0.0,0.0,0.0,0.0,0.0,0.0,0.0,0.0,0.0,0.0,0.0,0.0,0.0,0.0,0.0,0.0,0.0,0.0,0.0,0.0,0.0,0.0,0.0,0.0,0.0,0.0,0.0,0.0,0.0,0.0,0.0,0.0,0.0,0.0,0.0,0.0,0.0,0.0,0.0,0.0,0.0,0.0,0.0,0.0,0.0,0.0,0.0,0.0,0.0,0.0,0.0,0.0,0.0,0.0,0.0,0.0,0.0,0.0,0.0,0.0,0.0,0.0,0.0,0.0,0.0,0.0,0.0,0.0,0.0,0.0,0.0,0.0,0.0,0.0,0.0,0.0,0.0,0.0,0.0,0.0,0.0,0.0,0.0,0.0,0.0,0.0,0.0,0.0,0.0,0.0,0.0,0.0,0.0,0.0,0.0,0.0,0.0,0.0,0.0,0.0,0.0,0.0,0.0,0.0,0.0,0.0,0.0,0.0,0.0,0.0,0.0,0.0,0.0,0.0,0.0,0.0,0.0,0.0,0.0,0.0,0.0,0.0,0.0,0.0,0.0,0.0,0.0,0.0,0.0,0.0,0.0,0.0,0.0,0.0,0.0,0.0,0.0,0.0,0.0,0.0,0.0,0.0,0.0,0.0,0.0,0.0,0.0,0.0,0.0,0.0,0.0,0.0,0.0,0.0,0.0,0.0,0.0,0.0,0.0,0.0,0.0,0.0,0.0,0.0,0.0,0.0,0.0,0.0,0.0,0.0,0.0,0.0,0.0,0.0,0.0,0.0,0.0,0.0,0.0,0.0,0.0,0.0,0.0,0.0,0.0,0.0,0.0,0.0,0.0,0.0,0.0,0.0,0.0,0.0,0.0,0.0,0.0,0.0,0.0,0.0,0.0,0.0,0.0,0.0,0.0,0.0,0.0,0.0,0.0,0.0,0.0,0.0,0.0,0.0,0.0,0.0,0.0,0.0,0.0,0.0,0.0,0.0,0.0,0.0,0.0,0.0,0.0,0.0,0.0,0.0,0.0,0.0,0.0,0.0,0.0,0.0,0.0,0.0,0.0,0.0,0.0,0.0,0.0,0.0,0.0,0.0,0.0,0.0,0.0,0.0,0.0,0.0,0.0,0.0,0.0,0.0,0.0,0.0,0.0,0.0,0.0,0.0,0.0,0.0,0.0,0.0,0.0,0.0,0.0,0.0,0.0,0.0,0.0,0.0,0.0,0.0,0.0,0.0,0.0,0.0,0.0,0.0,0.0,0.0,0.0,0.0,0.0,0.0,0.0,0.0,0.0,0.0,0.0,0.0,0.0,0.0,0.0,0.0,0.0,0.0,0.0,0.0,0.0,0.0,0.0,0.0,0.0,0.0,0.0,0.0,0.0,0.0,0.0,0.0,0.0,0.0,0.0,0.0,0.0,0.0,0.0,0.0,0.0,0.0,0.0,0.0,0.0,0.0,0.0,0.0,0.0,0.0,0.0,0.0,0.0,0.0,0.0,0.0,0.0,0.0,0.0,0.0,0.0,0.0,0.0,0.0,0.0,0.0,0.0,0.0,0.0,0.0,0.0,-6.0843,0.0,0.0,0.0,0.0,0.0,0.0,0.0,0.0,0.0,0.0,0.0,0.0,0.0,0.0,0.0,0.0,0.0,0.0,0.0,0.0,0.0,0.0,0.0,0.0,0.0,0.0,0.0,0.0,0.0,0.0,0.0,0.0,0.0,0.0,0.0,0.0,0.0,0.0,0.0,0.0,0.0,0.0,0.0,0.0,0.0,0.0,0.0,0.0,0.0,0.0,0.0,0.0,0.0,0.0,0.0,0.0,0.0,0.0,0.0,0.0,0.0,0.0,0.0,0.0,0.0,0.0,0.0,0.0,0.0,0.0,0.0,0.0,0.0,0.0,0.0,0.0,0.0,0.0,0.0,0.0,0.0,0.0,0.0,0.0,0.0,0.0,0.0,0.0,0.0,0.0,0.0,0.0,0.0,0.0,0.0,0.0,0.0,0.0,0.0,0.0,0.0,0.0,0.0,0.0,0.0,0.0,0.0,0.0,0.0,0.0,-6.0115,-5.9881,-6.0323,-6.0475,-6.0265,0.0,0.0,0.0,0.0,0.0,0.0,0.0,0.0,0.0,0.0,0.0,0.0,0.0,0.0,0.0,0.0,0.0,0.0,0.0,0.0,0.0,0.0,0.0,0.0,0.0,0.0,0.0,0.0,0.0,0.0,0.0,0.0,0.0,0.0,0.0,0.0,0.0,0.0,0.0,0.0,0.0,0.0,0.0,0.0,0.0,0.0,0.0,0.0,0.0,0.0,0.0,0.0,0.0,0.0,0.0,0.0,0.0,0.0,0.0,0.0,0.0,0.0,0.0,0.0,0.0,0.0,0.0,0.0,0.0,0.0,0.0,0.0,0.0,0.0,0.0,0.0,0.0,0.0,0.0,0.0,0.0,0.0,0.0,0.0,0.0,0.0,0.0,0.0,0.0,0.0,0.0,0.0,0.0,0.0,0.0,0.0,0.0,0.0,0.0,0.0,0.0,0.0,0.0,0.0,0.0,0.0,0.0,0.0,0.0,0.0,0.0,0.0,-5.9645,-5.9881,-5.9823,0.0,0.0,0.0,0.0,0.0,0.0,0.0,0.0,0.0,0.0,0.0,0.0,0.0,0.0,0.0,0.0,0.0,0.0,0.0,0.0,0.0,0.0,0.0,0.0,0.0,0.0,0.0,0.0,0.0,0.0,0.0,0.0,0.0,0.0,0.0,0.0,0.0,0.0,0.0,0.0,0.0,0.0,0.0,0.0,0.0,0.0,0.0,0.0,0.0,0.0,0.0,0.0,0.0,0.0,0.0,0.0,0.0,0.0,0.0,0.0,0.0,0.0,0.0,0.0,0.0,0.0,0.0,0.0,0.0,0.0,0.0,0.0,0.0,0.0,0.0,0.0,0.0,0.0,0.0,0.0,0.0,0.0,0.0,0.0,0.0,0.0,0.0,0.0,0.0,0.0,0.0,0.0,0.0,0.0,0.0,0.0,0.0,0.0,0.0,0.0,0.0,0.0,0.0,0.0,0.0,0.0,0.0,0.0,0.0,0.0,-5.853,-5.9684,-5.9058,0.0,-5.9734,0.0,0.0,0.0,0.0,0.0,0.0,0.0,0.0,0.0,0.0,0.0,0.0,0.0,0.0,0.0,0.0,0.0,0.0,0.0,0.0,0.0,0.0,0.0,0.0,0.0,0.0,0.0,0.0,0.0,0.0,0.0,0.0,0.0,0.0,0.0,0.0,0.0,0.0,0.0,0.0,0.0,0.0,0.0,0.0,0.0,0.0,0.0,0.0,0.0,0.0,0.0,0.0,0.0,0.0,0.0,0.0,0.0,0.0,0.0,0.0,0.0,0.0,0.0,0.0,0.0,0.0,0.0,0.0,0.0,0.0,0.0,0.0,0.0,0.0,0.0,0.0,0.0,0.0,0.0,0.0,0.0,0.0,0.0,0.0,0.0,0.0,0.0,0.0,0.0,0.0,0.0,0.0,0.0,0.0,0.0,0.0,0.0,0.0,0.0,0.0,0.0,0.0,0.0,0.0,0.0,0.0,0.0,0.0,0.0,0.0,-5.7049,-5.7874,-5.8241,-5.8592,0.0,0.0,0.0,0.0,0.0,0.0,0.0,0.0,0.0,0.0,0.0,0.0,0.0,0.0,0.0,0.0,0.0,0.0,0.0,0.0,0.0,0.0,0.0,0.0,0.0,0.0,0.0,0.0,0.0,0.0,0.0,0.0,0.0,0.0,0.0,0.0,0.0,0.0,0.0,0.0,0.0,0.0,0.0,0.0,0.0,0.0,0.0,0.0,0.0,0.0,0.0,0.0,0.0,0.0,0.0,0.0,0.0,0.0,0.0,0.0,0.0,0.0,0.0,0.0,0.0,0.0,0.0,0.0,0.0,0.0,0.0,0.0,0.0,0.0,0.0,0.0,0.0,0.0,0.0,0.0,0.0,0.0,0.0,0.0,0.0,0.0,0.0,0.0,0.0,0.0,0.0,0.0,0.0,0.0,0.0,0.0,0.0,0.0,0.0,0.0,0.0,0.0,0.0,0.0,0.0,0.0,0.0,0.0,0.0,0.0,-5.5719,-5.6055,-5.6741,-5.7608,-5.8153,-5.8418,0.0,0.0,0.0,0.0,0.0,0.0,0.0,0.0,0.0,0.0,0.0,0.0,0.0,0.0,0.0,0.0,0.0,0.0,0.0,0.0,0.0,0.0,0.0,0.0,0.0,0.0,0.0,0.0,0.0,0.0,0.0,0.0,0.0,0.0,0.0,0.0,0.0,0.0,0.0,0.0,0.0,0.0,0.0,0.0,0.0,0.0,0.0,0.0,0.0,0.0,0.0,0.0,0.0,0.0,0.0,0.0,0.0,0.0,0.0,0.0,0.0,0.0,0.0,0.0,0.0,0.0,0.0,0.0,0.0,0.0,0.0,0.0,0.0,0.0,0.0,0.0,0.0,0.0,0.0,0.0,0.0,0.0,0.0,0.0,0.0,0.0,0.0,0.0,0.0,0.0,0.0,0.0,0.0,0.0,0.0,0.0,0.0,0.0,0.0,0.0,0.0,0.0,0.0,0.0,0.0,0.0,0.0,0.0,-5.644,-5.5731,-5.5864,-5.6995,-5.7174,-5.7642,0.0,0.0,0.0,0.0,0.0,0.0,0.0,0.0,0.0,0.0,0.0,0.0,0.0,0.0,0.0,0.0,0.0,0.0,0.0,0.0,0.0,0.0,0.0,0.0,0.0,0.0,0.0,0.0,0.0,0.0,0.0,0.0,0.0,0.0,0.0,0.0,0.0,0.0,0.0,0.0,0.0,0.0,0.0,0.0,0.0,0.0,0.0,0.0,0.0,0.0,0.0,0.0,0.0,0.0,0.0,0.0,0.0,0.0,0.0,0.0,0.0,0.0,0.0,0.0,0.0,0.0,0.0,0.0,0.0,0.0,0.0,0.0,0.0,0.0,0.0,0.0,0.0,0.0,0.0,0.0,0.0,0.0,0.0,0.0,0.0,0.0,0.0,0.0,0.0,0.0,0.0,0.0,0.0,0.0,0.0,0.0,0.0,0.0,0.0,0.0,0.0,0.0,0.0,0.0,0.0,0.0,0.0,0.0,0.0,-5.4982,-5.4874,-5.5041,-5.555,-5.6447,-5.7152,0.0,0.0,0.0,0.0,0.0,0.0,0.0,0.0,0.0,0.0,0.0,0.0,0.0,0.0,0.0,0.0,0.0,0.0,0.0,0.0,0.0,0.0,0.0,0.0,0.0,0.0,0.0,0.0,0.0,0.0,0.0,0.0,0.0,0.0,0.0,0.0,0.0,0.0,0.0,0.0,0.0,0.0,0.0,0.0,0.0,0.0,0.0,0.0,0.0,0.0,0.0,0.0,0.0,0.0,0.0,0.0,0.0,0.0,0.0,0.0,0.0,0.0,0.0,0.0,0.0,0.0,0.0,0.0,0.0,0.0,0.0,0.0,0.0,0.0,0.0,0.0,0.0,0.0,0.0,0.0,0.0,0.0,0.0,0.0,0.0,0.0,0.0,0.0,0.0,0.0,0.0,0.0,0.0,0.0,0.0,0.0,0.0,0.0,0.0,0.0,0.0,0.0,0.0,0.0,0.0,0.0,0.0,0.0,0.0,-5.435,0.0,-5.4607,-5.5202,-5.5861,-5.6534,0.0,0.0,0.0,0.0,0.0,0.0,0.0,0.0,0.0,0.0,0.0,0.0,0.0,0.0,0.0,0.0,0.0,0.0,0.0,0.0,0.0,0.0,0.0,0.0,0.0,0.0,0.0,0.0,0.0,0.0,0.0,0.0,0.0,0.0,0.0,0.0,0.0,0.0,0.0,0.0,0.0,0.0,0.0,0.0,0.0,0.0,0.0,0.0,0.0,0.0,0.0,0.0,0.0,0.0,0.0,0.0,0.0,0.0,0.0,0.0,0.0,0.0,0.0,0.0,0.0,0.0,0.0,0.0,0.0,0.0,0.0,0.0,0.0,0.0,0.0,0.0,0.0,0.0,0.0,0.0,0.0,0.0,0.0,0.0,0.0,0.0,0.0,0.0,0.0,0.0,0.0,0.0,0.0,0.0,0.0,0.0,0.0,0.0,0.0,0.0,0.0,0.0,0.0,0.0,0.0,0.0,0.0,0.0,-5.4292,-5.4818,-5.4191,-5.4562,-5.6133,-5.5527,-5.5791,0.0,0.0,0.0,0.0,0.0,0.0,0.0,0.0,0.0,0.0,0.0,0.0,0.0,0.0,0.0,0.0,0.0,0.0,0.0,0.0,0.0,0.0,0.0,0.0,0.0,0.0,0.0,0.0,0.0,0.0,0.0,0.0,0.0,0.0,0.0,0.0,0.0,0.0,0.0,0.0,0.0,0.0,0.0,0.0,0.0,0.0,0.0,0.0,0.0,0.0,0.0,0.0,0.0,0.0,0.0,0.0,0.0,0.0,0.0,0.0,0.0,0.0,0.0,0.0,0.0,0.0,0.0,0.0,0.0,0.0,0.0,0.0,0.0,0.0,0.0,0.0,0.0,0.0,0.0,0.0,0.0,0.0,0.0,0.0,0.0,0.0,0.0,0.0,0.0,0.0,0.0,0.0,0.0,0.0,0.0,0.0,0.0,0.0,0.0,0.0,0.0,0.0,0.0,0.0,0.0,0.0,0.0,0.0,0.0,-5.316,-5.3086,-5.3389,-5.3999,-5.474,-5.5598,0.0,0.0,0.0,0.0,0.0,0.0,0.0,0.0,0.0,0.0,0.0,0.0,0.0,0.0,0.0,0.0,0.0,0.0,0.0,0.0,0.0,0.0,0.0,0.0,0.0,0.0,0.0,0.0,0.0,0.0,0.0,0.0,0.0,0.0,0.0,0.0,0.0,0.0,0.0,0.0,0.0,0.0,0.0,0.0,0.0,0.0,0.0,0.0,0.0,0.0,0.0,0.0,0.0,0.0,0.0,0.0,0.0,0.0,0.0,0.0,0.0,0.0,0.0,0.0,0.0,0.0,0.0,0.0,0.0,0.0,0.0,0.0,0.0,0.0,0.0,0.0,0.0,0.0,0.0,0.0,0.0,0.0,0.0,0.0,0.0,0.0,0.0,0.0,0.0,0.0,0.0,0.0,0.0,0.0,0.0,0.0,0.0,0.0,0.0,0.0,0.0,0.0,0.0,0.0,0.0,0.0,0.0,0.0,0.0,-5.1804,-5.2272,-5.2734,-5.3177,-5.4279,-5.5239,-5.5907,0.0,0.0,0.0,0.0,0.0,0.0,0.0,0.0,0.0,0.0,0.0,0.0,0.0,0.0,0.0,0.0,0.0,0.0,0.0,0.0,0.0,0.0,0.0,0.0,0.0,0.0,0.0,0.0,0.0,0.0,0.0,0.0,0.0,0.0,0.0,0.0,0.0,0.0,0.0,0.0,0.0,0.0,0.0,0.0,0.0,0.0,0.0,0.0,0.0,0.0,0.0,0.0,0.0,0.0,0.0,0.0,0.0,0.0,0.0,0.0,0.0,0.0,0.0,0.0,0.0,0.0,0.0,0.0,0.0,0.0,0.0,0.0,0.0,0.0,0.0,0.0,0.0,0.0,0.0,0.0,0.0,0.0,0.0,0.0,0.0,0.0,0.0,0.0,0.0,0.0,0.0,0.0,0.0,0.0,0.0,0.0,0.0,0.0,0.0,0.0,0.0,0.0,0.0,0.0,0.0,0.0,0.0,0.0,-5.0766,-5.172,-5.2563,-5.3287,-5.408,-5.479,0.0,0.0,0.0,0.0,0.0,0.0,0.0,0.0,0.0,0.0,0.0,0.0,0.0,0.0,0.0,0.0,0.0,0.0,0.0,0.0,0.0,0.0,0.0,0.0,0.0,0.0,0.0,0.0,0.0,0.0,0.0,0.0,0.0,0.0,0.0,0.0,0.0,0.0,0.0,0.0,0.0,0.0,0.0,0.0,0.0,0.0,0.0,0.0,0.0,0.0,0.0,0.0,0.0,0.0,0.0,0.0,0.0,0.0,0.0,0.0,0.0,0.0,0.0,0.0,0.0,0.0,0.0,0.0,0.0,0.0,0.0,0.0,0.0,0.0,0.0,0.0,0.0,0.0,0.0,0.0,0.0,0.0,0.0,0.0,0.0,0.0,0.0,0.0,0.0,0.0,0.0,0.0,0.0,0.0,0.0,0.0,0.0,0.0,0.0,0.0,0.0,0.0,0.0,0.0,0.0,0.0,0.0,0.0,0.0,-5.0109,-5.1322,-5.22,-5.2546,-5.3822,-5.479,0.0,0.0,0.0,0.0,0.0,0.0,0.0,0.0,0.0,0.0,0.0,0.0,0.0,0.0,0.0,0.0,0.0,0.0,0.0,0.0,0.0,0.0,0.0,0.0,0.0,0.0,0.0,0.0,0.0,0.0,0.0,0.0,0.0,0.0,0.0,0.0,0.0,0.0,0.0,0.0,0.0,0.0,0.0,0.0,0.0,0.0,0.0,0.0,0.0,0.0,0.0,0.0,0.0,0.0,0.0,0.0,0.0,0.0,0.0,0.0,0.0,0.0,0.0,0.0,0.0,0.0,0.0,0.0,0.0,0.0,0.0,0.0,0.0,0.0,0.0,0.0,0.0,0.0,0.0,0.0,0.0,0.0,0.0,0.0,0.0,0.0,0.0,0.0,0.0,0.0,0.0,0.0,0.0,0.0,0.0,0.0,0.0,0.0,0.0,0.0,0.0,0.0,0.0,0.0,0.0,0.0,0.0,0.0,-5.0228,-4.9725,-5.1192,-5.2025,-5.2114,-5.3593,-5.4603,0.0,0.0,0.0,0.0,0.0,0.0,0.0,0.0,0.0,0.0,0.0,0.0,0.0,0.0,0.0,0.0,0.0,0.0,0.0,0.0,0.0,0.0,0.0,0.0,0.0,0.0,0.0,0.0,0.0,0.0,0.0,0.0,0.0,0.0,0.0,0.0,0.0,0.0,0.0,0.0,0.0,0.0,0.0,0.0,0.0,0.0,0.0,0.0,0.0,0.0,0.0,0.0,0.0,0.0,0.0,0.0,0.0,0.0,0.0,0.0,0.0,0.0,0.0,0.0,0.0,0.0,0.0,0.0,0.0,0.0,0.0,0.0,0.0,0.0,0.0,0.0,0.0,0.0,0.0,0.0,0.0,0.0,0.0,0.0,0.0,0.0,0.0,0.0,0.0,0.0,0.0,0.0,0.0,0.0,0.0,0.0,0.0,0.0,0.0,0.0,0.0,0.0,0.0,0.0,0.0,0.0,0.0,0.0,-4.9918,-4.9725,-5.1165,-5.1953,-5.2042,-5.3433,-5.4303,0.0,0.0,0.0,0.0,0.0,0.0,0.0,0.0,0.0,0.0,0.0,0.0,0.0,0.0,0.0,0.0,0.0,0.0,0.0,0.0,0.0,0.0,0.0,0.0,0.0,0.0,0.0,0.0,0.0,0.0,0.0,0.0,0.0,0.0,0.0,0.0,0.0,0.0,0.0,0.0,0.0,0.0,0.0,0.0,0.0,0.0,0.0,0.0,0.0,0.0,0.0,0.0,0.0,0.0,0.0,0.0,0.0,0.0,0.0,0.0,0.0,0.0,0.0,0.0,0.0,0.0,0.0,0.0,0.0,0.0,0.0,0.0,0.0,0.0,0.0,0.0,0.0,0.0,0.0,0.0,0.0,0.0,0.0,0.0,0.0,0.0,0.0,0.0,0.0,0.0,0.0,0.0,0.0,0.0,0.0,0.0,0.0,0.0,0.0,0.0,0.0,0.0,0.0,0.0,0.0,0.0,0.0,0.0,-4.9935,-4.9742,-5.1062,-5.185,-5.1991,-5.3433,-5.4303,0.0,0.0,0.0,0.0,0.0,0.0,0.0,0.0,0.0,0.0,0.0,0.0,0.0,0.0,0.0,0.0,0.0,0.0,0.0,0.0,0.0,0.0,0.0,0.0,0.0,0.0,0.0,0.0,0.0,0.0,0.0,0.0,0.0,0.0,0.0,0.0,0.0,0.0,0.0,0.0,0.0,0.0,0.0,0.0,0.0,0.0,0.0,0.0,-5.398,0.0,0.0,0.0,0.0,0.0,0.0,0.0,0.0,0.0,0.0,0.0,0.0,0.0,0.0,0.0,0.0,0.0,0.0,0.0,0.0,0.0,0.0,0.0,0.0,0.0,0.0,0.0,0.0,0.0,0.0,0.0,0.0,0.0,0.0,0.0,0.0,0.0,0.0,0.0,0.0,0.0,0.0,0.0,0.0,0.0,0.0,0.0,0.0,0.0,0.0,0.0,0.0,0.0,0.0,0.0,0.0,0.0,0.0,0.0,-4.986,-4.9624,-5.0686,-5.1442,-5.1929,-5.3043,-5.3943,0.0,0.0,0.0,0.0,0.0,0.0,0.0,0.0,0.0,0.0,0.0,0.0,0.0,0.0,0.0,0.0,0.0,0.0,0.0,0.0,0.0,0.0,0.0,0.0,0.0,0.0,0.0,0.0,0.0,0.0,0.0,0.0,0.0,0.0,0.0,0.0,0.0,0.0,0.0,0.0,0.0,0.0,0.0,0.0,0.0,0.0,0.0,0.0,0.0,0.0,0.0,0.0,0.0,0.0,0.0,0.0,0.0,0.0,0.0,0.0,0.0,0.0,0.0,0.0,0.0,0.0,0.0,0.0,0.0,0.0,0.0,0.0,0.0,0.0,0.0,0.0,0.0,0.0,0.0,0.0,0.0,0.0,0.0,0.0,0.0,0.0,0.0,0.0,0.0,0.0,0.0,0.0,0.0,0.0,0.0,0.0,0.0,0.0,0.0,0.0,0.0,0.0,0.0,0.0,0.0,0.0,0.0,-5.0011,-4.9877,-4.9624,-5.0366,-5.1124,-5.1833,-5.2649,-5.353,-5.4477,0.0,0.0,0.0,0.0,0.0,0.0,0.0,0.0,0.0,0.0,0.0,0.0,0.0,0.0,0.0,0.0,0.0,0.0,0.0,0.0,0.0,0.0,0.0,0.0,0.0,0.0,0.0,0.0,0.0,0.0,0.0,0.0,0.0,0.0,0.0,0.0,0.0,0.0,-5.6642,-5.5543,0.0,0.0,0.0,0.0,0.0,0.0,0.0,0.0,-5.3518,0.0,0.0,0.0,0.0,0.0,0.0,0.0,0.0,0.0,0.0,0.0,0.0,0.0,0.0,0.0,0.0,0.0,0.0,0.0,0.0,0.0,0.0,0.0,0.0,0.0,0.0,0.0,0.0,0.0,0.0,0.0,0.0,0.0,0.0,0.0,0.0,0.0,0.0,0.0,0.0,0.0,0.0,0.0,0.0,0.0,0.0,0.0,0.0,0.0,0.0,0.0,0.0,0.0,0.0,0.0,0.0,-5.0011,-5.0011,-4.9935,-4.9952,-5.0479,-5.1202,-5.2062,-5.2774,-5.3513,-5.446,0.0,0.0,0.0,0.0,0.0,0.0,0.0,0.0,0.0,0.0,0.0,0.0,0.0,0.0,0.0,0.0,0.0,0.0,0.0,0.0,0.0,0.0,0.0,0.0,0.0,0.0,0.0,0.0,0.0,0.0,0.0,0.0,0.0,0.0,0.0,0.0,0.0,0.0,0.0,-5.478,-5.4398,0.0,0.0,0.0,0.0,0.0,0.0,0.0,0.0,-5.3501,0.0,0.0,0.0,0.0,0.0,0.0,0.0,0.0,0.0,0.0,0.0,0.0,0.0,0.0,0.0,0.0,0.0,0.0,0.0,0.0,0.0,0.0,0.0,0.0,0.0,0.0,0.0,0.0,0.0,0.0,0.0,0.0,0.0,0.0,0.0,0.0,0.0,0.0,0.0,0.0,0.0,0.0,0.0,0.0,0.0,0.0,0.0,0.0,0.0,0.0,0.0,0.0,0.0,0.0,0.0,-5.0011,-5.0011,-4.9935,-4.986,-5.0187,-5.0909,-5.2045,-5.2458,-5.3242,0.0,0.0,0.0,0.0,0.0,0.0,0.0,0.0,0.0,0.0,0.0,0.0,0.0,0.0,0.0,0.0,0.0,0.0,0.0,0.0,0.0,0.0,0.0,0.0,0.0,0.0,0.0,0.0,0.0,0.0,0.0,0.0,0.0,0.0,0.0,0.0,0.0,0.0,0.0,0.0,-5.427,-5.3873,-5.3551,0.0,0.0,0.0,0.0,0.0,0.0,-5.3518,-5.3518,0.0,0.0,0.0,0.0,0.0,0.0,0.0,0.0,0.0,0.0,0.0,0.0,0.0,0.0,0.0,0.0,0.0,0.0,0.0,0.0,0.0,0.0,0.0,0.0,0.0,0.0,0.0,0.0,0.0,0.0,0.0,0.0,0.0,0.0,0.0,0.0,0.0,0.0,0.0,0.0,0.0,0.0,0.0,0.0,0.0,0.0,0.0,0.0,0.0,0.0,0.0,0.0,0.0,0.0,0.0,-5.0011,-5.0011,-4.9935,-4.9767,-4.9935,-5.059,-5.1777,-5.2071,-5.2873,0.0,0.0,0.0,0.0,0.0,0.0,0.0,0.0,0.0,0.0,0.0,0.0,0.0,0.0,0.0,0.0,0.0,0.0,0.0,0.0,0.0,0.0,0.0,0.0,0.0,0.0,0.0,0.0,0.0,0.0,0.0,0.0,0.0,0.0,0.0,0.0,0.0,0.0,0.0,0.0,0.0,-5.3518,-5.3518,-5.3518,0.0,0.0,0.0,0.0,-5.3518,-5.3518,0.0,0.0,0.0,0.0,0.0,0.0,0.0,0.0,0.0,0.0,0.0,0.0,0.0,0.0,0.0,0.0,0.0,0.0,0.0,0.0,0.0,0.0,0.0,0.0,0.0,0.0,0.0,0.0,0.0,0.0,0.0,0.0,0.0,0.0,0.0,0.0,0.0,0.0,0.0,0.0,0.0,0.0,0.0,0.0,0.0,0.0,0.0,0.0,0.0,0.0,0.0,0.0,0.0,0.0,0.0,0.0,-5.0011,-5.0011,-5.0011,-4.9935,-5.0011,-5.0407,-5.1175,-5.1873,-5.2632,0.0,0.0,0.0,0.0,0.0,0.0,0.0,0.0,0.0,0.0,0.0,0.0,0.0,0.0,0.0,0.0,0.0,0.0,0.0,0.0,0.0,0.0,0.0,0.0,0.0,0.0,0.0,0.0,0.0,0.0,0.0,0.0,0.0,0.0,0.0,0.0,0.0,0.0,0.0,0.0,0.0,-5.3518,-5.3518,-5.3518,-5.3518,0.0,0.0,-5.3518,-5.3518,-5.3518,0.0,0.0,0.0,0.0,0.0,0.0,0.0,0.0,0.0,0.0,0.0,0.0,0.0,0.0,0.0,0.0,0.0,0.0,0.0,0.0,0.0,0.0,0.0,0.0,0.0,0.0,0.0,0.0,0.0,0.0,0.0,0.0,0.0,0.0,0.0,0.0,0.0,0.0,0.0,0.0,0.0,0.0,0.0,0.0,0.0,0.0,0.0,0.0,0.0,0.0,0.0,0.0,0.0,0.0,0.0,-5.0011,-5.0011,-5.0011,-5.0011,-5.0011,-5.0011,-5.0355,-5.1097,-5.1839,-5.2597,0.0,0.0,0.0,0.0,0.0,0.0,0.0,0.0,0.0,0.0,0.0,0.0,0.0,0.0,0.0,0.0,0.0,0.0,0.0,0.0,0.0,0.0,0.0,0.0,0.0,0.0,0.0,0.0,0.0,0.0,0.0,0.0,0.0,0.0,0.0,0.0,0.0,0.0,0.0,0.0,0.0,0.0,-5.3518,-5.3518,0.0,0.0,0.0,-5.3518,-5.3518,0.0,0.0,0.0,0.0,0.0,0.0,0.0,0.0,0.0,0.0,0.0,0.0,0.0,0.0,0.0,0.0,0.0,0.0,0.0,0.0,0.0,0.0,0.0,0.0,0.0,0.0,0.0,0.0,0.0,0.0,0.0,0.0,0.0,0.0,0.0,0.0,0.0,0.0,0.0,0.0,0.0,0.0,0.0,0.0,0.0,0.0,0.0,0.0,0.0,0.0,0.0,0.0,0.0,0.0,0.0,0.0,0.0,-5.0011,-5.0011,-5.0011,-5.0011,-5.0011,-5.0287,-5.0821,-5.1563,0.0,0.0,0.0,0.0,0.0,0.0,0.0,0.0,0.0,0.0,0.0,0.0,0.0,0.0,0.0,0.0,0.0,0.0,0.0,0.0,0.0,0.0,0.0,0.0,0.0,0.0,0.0,-5.7978,0.0,0.0,0.0,0.0,0.0,0.0,0.0,0.0,0.0,0.0,0.0,0.0,0.0,0.0,-5.3518,-5.3518,-5.3518,-5.3518,0.0,0.0,-5.3518,-5.3518,-5.3518,-5.3518,0.0,0.0,0.0,0.0,0.0,0.0,0.0,0.0,0.0,0.0,0.0,0.0,0.0,0.0,0.0,0.0,0.0,0.0,0.0,0.0,0.0,0.0,0.0,0.0,0.0,0.0,0.0,0.0,0.0,0.0,0.0,0.0,0.0,0.0,0.0,0.0,0.0,0.0,0.0,0.0,0.0,0.0,0.0,0.0,0.0,0.0,0.0,0.0,0.0,0.0,0.0,0.0,0.0,0.0,0.0,-5.0011,-5.0011,-5.0011,-5.0011,-5.0011,-5.0028,-5.008,-5.0804,-5.1545,0.0,0.0,0.0,0.0,0.0,0.0,0.0,0.0,0.0,0.0,0.0,0.0,0.0,0.0,0.0,0.0,0.0,0.0,0.0,0.0,0.0,0.0,0.0,0.0,0.0,0.0,0.0,0.0,0.0,0.0,0.0,0.0,0.0,0.0,0.0,0.0,0.0,0.0,0.0,0.0,0.0,-5.3518,-5.3518,-5.3518,-5.3518,0.0,0.0,-5.3518,-5.3518,-5.3518,-5.3518,-5.3518,0.0,0.0,0.0,0.0,0.0,0.0,0.0,0.0,0.0,0.0,0.0,0.0,0.0,0.0,0.0,0.0,0.0,0.0,0.0,0.0,0.0,0.0,0.0,0.0,0.0,0.0,0.0,0.0,0.0,0.0,0.0,0.0,0.0,0.0,0.0,0.0,0.0,0.0,0.0,0.0,0.0,0.0,0.0,0.0,0.0,0.0,0.0,0.0,0.0,0.0,0.0,0.0,0.0,-5.0011,-5.0011,-5.0011,-5.0011,-5.0011,-5.0011,-5.0011,-5.0011,-5.0718,-5.1235,0.0,0.0,0.0,0.0,0.0,0.0,0.0,0.0,0.0,0.0,0.0,0.0,0.0,0.0,0.0,0.0,0.0,0.0,0.0,0.0,0.0,0.0,0.0,0.0,0.0,0.0,0.0,0.0,-5.7449,-5.6773,-5.5928,0.0,0.0,0.0,0.0,0.0,0.0,0.0,0.0,0.0,0.0,-5.3518,-5.3518,-5.3518,0.0,0.0,-5.3518,-5.3518,-5.3518,-5.3518,-5.3518,-5.3518,-5.3518,0.0,0.0,0.0,0.0,0.0,0.0,0.0,0.0,0.0,0.0,0.0,0.0,0.0,0.0,0.0,0.0,0.0,0.0,0.0,0.0,0.0,0.0,0.0,0.0,0.0,0.0,0.0,0.0,0.0,0.0,0.0,0.0,0.0,0.0,0.0,0.0,0.0,0.0,0.0,0.0,0.0,0.0,0.0,0.0,0.0,0.0,0.0,0.0,0.0,0.0,0.0,0.0,-5.0011,-5.0011,-5.0011,-5.0011,-5.0011,-5.0011,-5.0011,-5.0011,-5.0511,-5.0873,0.0,0.0,0.0,0.0,0.0,0.0,0.0,0.0,0.0,0.0,0.0,0.0,0.0,0.0,0.0,0.0,0.0,0.0,0.0,0.0,0.0,0.0,0.0,0.0,0.0,0.0,0.0,0.0,-5.7057,-5.615,-5.4948,0.0,0.0,0.0,0.0,0.0,0.0,0.0,0.0,0.0,0.0,-5.3518,-5.3518,-5.3518,-5.3518,-5.3518,-5.3518,-5.3518,-5.3518,-5.3518,-5.3518,-5.3518,0.0,0.0,0.0,0.0,0.0,0.0,0.0,0.0,0.0,0.0,0.0,0.0,0.0,0.0,0.0,0.0,0.0,0.0,0.0,0.0,0.0,0.0,0.0,0.0,0.0,0.0,0.0,0.0,0.0,0.0,-5.2304,0.0,0.0,0.0,0.0,0.0,0.0,0.0,0.0,0.0,0.0,0.0,0.0,0.0,0.0,0.0,0.0,0.0,0.0,0.0,0.0,0.0,0.0,-5.0011,-5.0011,-5.0011,-5.0011,-5.0011,-5.0011,-5.0011,-5.0011,-5.0028,-5.0373,-5.108,0.0,0.0,0.0,0.0,0.0,0.0,0.0,0.0,0.0,0.0,0.0,0.0,0.0,0.0,0.0,0.0,0.0,0.0,0.0,0.0,0.0,0.0,0.0,0.0,0.0,0.0,-5.7161,-5.6097,-5.5126,0.0,0.0,0.0,0.0,0.0,0.0,0.0,0.0,0.0,0.0,-5.3518,-5.3518,-5.3518,-5.3518,-5.3518,-5.3518,-5.3518,-5.3518,-5.3518,-5.3518,-5.3518,0.0,0.0,0.0,0.0,0.0,0.0,0.0,0.0,0.0,0.0,0.0,0.0,0.0,0.0,0.0,0.0,0.0,0.0,0.0,0.0,0.0,0.0,0.0,0.0,0.0,0.0,0.0,-5.1813,-5.2067,0.0,0.0,0.0,0.0,0.0,0.0,0.0,0.0,0.0,0.0,0.0,-5.2183,-5.1718,0.0,0.0,0.0,0.0,0.0,0.0,0.0,0.0,0.0,0.0,0.0,0.0,-5.0011,-5.0011,-5.0011,-5.0011,-5.0011,-5.0011,-5.0011,-5.0011,-5.0011,-5.0114,-5.039,0.0,0.0,0.0,0.0,0.0,0.0,0.0,0.0,0.0,0.0,0.0,0.0,0.0,0.0,0.0,0.0,0.0,0.0,0.0,0.0,0.0,0.0,0.0,0.0,0.0,-5.7011,0.0,0.0,0.0,0.0,0.0,0.0,0.0,0.0,0.0,0.0,0.0,-5.3518,-5.3518,-5.3518,-5.3518,-5.3518,-5.3518,-5.3518,0.0,0.0,0.0,0.0,0.0,0.0,0.0,0.0,0.0,0.0,0.0,0.0,0.0,0.0,-5.3518,-5.3518,-5.3518,-5.3518,-5.3518,0.0,0.0,0.0,0.0,0.0,0.0,0.0,0.0,0.0,0.0,0.0,0.0,0.0,0.0,-5.052,0.0,-5.057,0.0,0.0,0.0,0.0,0.0,0.0,0.0,0.0,-5.0959,-5.0994,-5.1407,-5.0959,-5.0735,0.0,-5.0735,-5.0718,0.0,0.0,0.0,0.0,0.0,0.0,0.0,0.0,-5.0011,-5.0011,-5.0011,-5.0011,-5.0011,-5.0011,-5.0011,-5.0011,-5.0011,-5.0011,-5.0011,-5.1183,-5.1959,0.0,0.0,0.0,0.0,0.0,0.0,0.0,0.0,0.0,0.0,0.0,0.0,0.0,0.0,0.0,0.0,0.0,0.0,0.0,0.0,0.0,0.0,0.0,-5.641,0.0,0.0,0.0,0.0,0.0,0.0,0.0,0.0,0.0,-5.3518,-5.3518,-5.3518,-5.3518,-5.3518,-5.3518,-5.3518,0.0,0.0,0.0,0.0,0.0,0.0,0.0,-5.3518,-5.3518,-5.3518,-5.3518,-5.3518,-5.3518,-5.3518,-5.3518,0.0,0.0,-5.3518,-5.3518,-5.3518,-5.3518,-5.3518,-5.3518,-5.3518,-5.3518,-5.3518,0.0,0.0,0.0,0.0,0.0,0.0,0.0,0.0,-4.9823,-4.9521,0.0,-4.8768,0.0,0.0,0.0,0.0,0.0,-4.9428,0.0,0.0,-4.997,-4.9935,-4.997,-5.0028,-5.0011,-5.0011,-5.0028,-5.0028,-5.0011,-5.0011,0.0,0.0,0.0,0.0,0.0,0.0,-5.0011,-5.0011,-5.0011,-5.0011,-5.0011,-5.0011,-5.0011,-5.0011,-5.0011,-5.0011,-5.0028,-5.0735,-5.1459,-5.2149,-5.2959,0.0,0.0,0.0,0.0,0.0,0.0,0.0,0.0,0.0,0.0,0.0,0.0,0.0,0.0,0.0,0.0,0.0,0.0,0.0,0.0,-5.6585,0.0,0.0,0.0,0.0,0.0,0.0,0.0,0.0,0.0,0.0,-5.3518,-5.3518,-5.3518,-5.3518,0.0,0.0,0.0,0.0,-5.3518,-5.3518,-5.3518,-5.3518,-5.3518,-5.3518,-5.3518,-5.3518,0.0,0.0,-5.3518,-5.3518,-5.3518,-5.3518,-5.3518,-5.3518,-5.3518,-5.3518,-5.3518,-5.3518,-5.3518,-5.3518,-5.3518,-5.3518,-5.3518,-4.8594,0.0,0.0,0.0,0.0,-4.8595,-4.8327,-4.8011,-4.7746,-4.785,-4.8249,-4.7985,0.0,0.0,0.0,0.0,0.0,0.0,-4.8748,-4.8872,-4.9273,-4.9453,-4.9453,-4.9801,-5.0011,-5.0011,-5.0011,-5.0011,-5.0011,-5.0011,-5.0011,-5.0011,0.0,0.0,0.0,0.0,-5.0011,-5.0011,-5.0011,-5.0011,-5.0011,-5.0011,-5.0011,-5.0011,-5.0011,-5.0011,-5.0011,-5.0718,-5.1218,-5.1442,-5.2684,0.0,0.0,0.0,0.0,0.0,0.0,0.0,0.0,0.0,0.0,0.0,0.0,0.0,0.0,0.0,0.0,0.0,0.0,0.0,-5.5952,-5.5774,-5.5403,0.0,0.0,0.0,0.0,0.0,0.0,0.0,0.0,0.0,-5.3518,-5.3518,-5.3518,0.0,0.0,-5.3518,-5.3518,-5.3518,-5.3518,-5.3518,-5.3518,0.0,0.0,-5.3518,-5.3518,-5.3518,-5.3518,-5.3518,-5.3518,-5.3518,-5.3518,-5.3518,-5.3518,-5.3518,-5.3518,-5.3518,-5.3518,-5.3518,-5.3518,-5.3518,-5.3518,-5.3518,-5.3518,-4.7658,-4.7846,-4.8368,-4.8398,-4.7993,-4.7702,-4.7297,-4.6876,-4.6876,-4.7098,-4.737,-4.737,-4.7538,-4.7787,-4.7836,0.0,0.0,0.0,-4.8225,-4.84,-4.8731,-4.8855,-4.8934,-4.9453,-4.9666,-4.9666,-4.9877,-5.0011,-5.0011,-5.0011,-5.0011,-5.0011,0.0,0.0,-5.0011,-5.0011,-5.0011,-5.0011,-5.0011,-5.0011,-5.0011,-5.0011,-5.0011,-5.0011,-5.0011,-5.0011,-5.0011,-5.0424,-5.0804,-5.1114,-5.1994,-5.2632,0.0,0.0,0.0,0.0,0.0,0.0,0.0,0.0,0.0,0.0,0.0,-5.5676,-5.5104,0.0,0.0,0.0,-5.5777,-5.583,-5.5402,-5.5392,0.0,0.0,0.0,0.0,0.0,0.0,0.0,-5.3601,-5.3551,-5.3518,-5.3518,-5.3518,-5.3518,-5.3518,-5.3518,-5.3518,-5.3518,0.0,-5.3518,-5.3518,-5.3518,-5.3518,-5.3518,-5.3518,-5.3518,-5.3518,-5.3518,-5.3518,-5.3518,-5.3518,-5.3518,-5.3518,-5.3518,-5.3518,-5.3518,-5.3518,-5.3518,-5.3518,-5.3518,-5.3518,-5.3518,-5.3518,-5.3518,-4.6876,-4.6957,-4.7621,-4.7929,-4.7848,-4.7168,-4.6892,-4.6876,-4.6876,-4.6876,-4.6876,-4.6876,-4.6876,-4.6876,-4.6876,0.0,-4.8272,-4.7803,-4.7869,-4.8289,-4.8353,-4.8353,-4.8416,-4.8934,-4.9256,-4.9256,-4.9725,-5.0011,-5.0011,-5.0011,-5.0011,-5.0011,-5.0011,-5.0011,-5.0011,-5.0011,-5.0011,-5.0011,-5.0011,-5.0011,-5.0011,-5.0011,-5.0011,-5.0011,-5.0011,-5.0011,-5.0011,-5.0011,-5.0321,-5.0976,-5.108,-5.1442,-5.2097,0.0,0.0,0.0,0.0,0.0,0.0,0.0,0.0,0.0,0.0,0.0,0.0,0.0,0.0,0.0,-5.5109,0.0,-5.5319,-5.5295,0.0,0.0,0.0,-5.4132,-5.4045,-5.3832,-5.3651,-5.3568,0.0,0.0,-5.3501,-5.3518,-5.3518,-5.3518,-5.3518,-5.3518,-5.3518,-5.3518,-5.3518,-5.3518,-5.3518,-5.3518,-5.3518,-5.3518,-5.3518,-5.3518,-5.3518,-5.3518,-5.3518,-5.3518,-5.3518,-5.3518,-5.3518,-5.3518,-5.3518,-5.3518,-5.3518,-5.3518,-5.3518,-5.3518,-5.3518,-5.3518,-5.3518,-4.6876,-4.6892,-4.707,-4.7151,-4.7135,-4.6957,-4.6876,-4.6876,-4.6876,-4.6876,-4.6876,-4.6876,-4.6876,-4.6876,-4.6876,-4.7014,-4.727,-4.715,-4.715,-4.7253,-4.7671,-4.8065,-4.84,-4.8917,-4.9394,-4.9801,-4.9935,-5.0011,-5.0011,-5.0011,-5.0011,-5.0011,-5.0011,-5.0011,-5.0011,-5.0011,-5.0011,-5.0011,-5.0011,-5.0011,-5.0011,-5.0011,-5.0011,-5.0011,-5.0011,-5.0011,-5.0011,-5.0011,-5.0097,-5.0269,-5.0804,-5.12,-5.1373,-5.2045,0.0,0.0,0.0,0.0,0.0,0.0,0.0,0.0,0.0,-5.5182,-5.4557,0.0,-5.5343,0.0,-5.5331,-5.522,-5.4755,-5.4724,0.0,0.0,-5.431,-5.4276,-5.4367,-5.411,-5.3915,-5.3866,-5.3717,-5.3601,-5.3501,-5.3518,-5.3518,-5.3518,-5.3518,-5.3518,-5.3518,-5.3518,-5.3518,-5.3518,-5.3518,-5.3518,-5.3518,-5.3518,-5.3518,-5.3518,-5.3518,-5.3518,-5.3518,-5.3518,-5.3518,-5.3518,-5.3518,-5.3518,-5.3518,-5.3518,-5.3518,-5.3518,-5.3518,-5.3518,-5.3518,-5.3518,-5.3518,-4.6876,-4.6876,-4.6876,-4.6876,-4.6876,-4.6876,-4.6876,-4.6876,-4.6876,-4.6876,-4.6876,-4.6876,-4.6876,-4.6876,-4.6876,-4.6876,-4.6876,-4.6876,-4.6876,-4.6945,-4.7218,-4.7488,-4.777,-4.8306,-4.8827,-4.9273,-4.953,-4.9801,-5.0011,-5.0011,-5.0011,-5.0011,-5.0011,-5.0011,-5.0011,-5.0011,-5.0011,-5.0011,-5.0011,-5.0011,-5.0011,-5.0011,-5.0011,-5.0011,-5.0011,-5.0011,-5.0011,-5.0011,-5.0011,-5.0011,-5.0407,-5.0614,-5.0649,-5.1288,-5.189,0.0,0.0,0.0,0.0,0.0,0.0,0.0,0.0,0.0,0.0,0.0,-5.5284,-5.5,-5.4979,-5.4885,-5.454,-5.4512,-5.4512,-5.4512,-5.4425,-5.4345,-5.4367,-5.4175,-5.4045,-5.398,-5.3915,-5.3783,-5.3601,-5.3618,-5.3551,-5.3501,-5.3518,-5.3518,-5.3518,-5.3518,-5.3518,-5.3518,-5.3518,-5.3518,-5.3518,-5.3518,-5.3518,-5.3518,-5.3518,-5.3518,-5.3518,-5.3518,-5.3518,-5.3518,-5.3518,-5.3518,-5.3518,-5.3518,-5.3518,-5.3518,-5.3518,-5.3518,-5.3518,-5.3518,-5.3518,-4.6876,-4.6876,-4.6876,-4.6876,-4.6876,-4.6876,-4.6876,-4.6876,-4.6876,-4.6876,-4.6876,-4.6876,-4.6876,-4.6876,-4.6876,-4.6876,-4.6876,-4.6876,-4.6876,-4.6876,-4.6876,-4.6945,-4.715,-4.7555,-4.8065,-4.8606,-4.9057,-4.953,-4.9993,-5.0011,-5.0011,-5.0011,-5.0011,-5.0011,-5.0011,-5.0011,-5.0011,-5.0011,-5.0011,-5.0011,-5.0011,-5.0011,-5.0011,-5.0011,-5.0011,-5.0011,-5.0011,-5.0011,-5.0011,-5.0011,-5.0011,-5.0011,-5.0011,-5.0607,-5.1003,0.0,-5.2372,0.0,0.0,0.0,0.0,0.0,0.0,0.0,0.0,-5.5,-5.5061,-5.4557,-5.4512,-5.4512,-5.4512,-5.4512,-5.4512,-5.4512,-5.4512,-5.4431,-5.4239,-5.4239,-5.4175,-5.4045,-5.4063,-5.398,-5.3766,-5.3717,-5.3651,-5.3602,-5.3551,-5.3534,-5.3534,-5.3534,-5.3518,-5.3518,-5.3518,-5.3518,-5.3518,-5.3518,-5.3518,-5.3518,-5.3518,-5.3518,-5.3518,-5.3518,-5.3518,-5.3518,-5.3518,-5.3518,-5.3518,-5.3518,-5.3518,-5.3518,-5.3518,-5.3518,-5.3518,-5.3518,-5.3518,-4.6876,-4.6876,-4.6876,-4.6876,-4.6876,-4.6876,-4.6876,-4.6876,-4.6876,-4.6876,-4.6876,-4.6876,-4.6876,-4.6876,-4.6876,-4.6876,-4.6876,-4.6876,-4.6876,-4.6876,-4.6876,-4.7337,-4.8096,-4.8225,-4.8748,-4.9683,-4.9801,-4.986,-5.0011,-5.0011,-5.0011,-5.0011,-5.0011,-5.0011,-5.0011,0.0,0.0,0.0,-5.0011,-5.0011,-5.0011,-5.0011,-5.0011,-5.0011,-5.0011,0.0,-5.0011,-5.0011,-5.0011,-5.0011,-5.0011,0.0,0.0,0.0,0.0,0.0,0.0,0.0,0.0,0.0,0.0,0.0,-5.462,-5.462,-5.4494,-5.4603,-5.4637,-5.4512,-5.4512,-5.4512,-5.4512,-5.4512,-5.4512,-5.4512,-5.4512,-5.4512,-5.4431,-5.4431,-5.4367,-5.4175,-5.4175,-5.4093,-5.398,-5.3915,-5.3934,-5.3872,-5.3771,-5.3636,-5.3686,-5.3551,-5.3518,-5.3518,-5.3518,-5.3518,-5.3518,-5.3518,-5.3518,-5.3518,-5.3518,-5.3518,-5.3518,-5.3518,-5.3518,-5.3518,-5.3518,-5.3518,-5.3518,-5.3518,-5.3518,-5.3518,-5.3518,-5.3518,-5.3518,-5.3518,-5.3518,-4.6876,0.0,-4.6876,-4.6876,0.0,-4.6876,-4.6876,-4.6876,-4.6876,-4.6876,-4.6876,-4.6876,-4.6876,-4.6876,-4.6876,-4.6876,-4.6876,-4.6876,-4.6876,-4.6876,-4.7167,-4.7555,-4.8048,-4.8306,-4.881,-4.959,-4.959,-4.9742,-5.0011,-5.0011,-5.0011,-5.0011,-5.0011,-5.02,-5.0562,-5.0925,-5.0735,-5.0011,-5.0011,-5.0011,-5.0011,-5.0011,-5.0011,-5.0011,0.0,0.0,0.0,0.0,0.0,0.0,0.0,0.0,0.0,0.0,0.0,-5.1649,-5.2028,-5.258,-5.3339,-5.3753,-5.4115,-5.4477,-5.4512,-5.4512,-5.4512,-5.4512,-5.4512,-5.4512,-5.4512,-5.4512,-5.4512,-5.4512,-5.4512,-5.4512,-5.4512,-5.4512,-5.4512,-5.4512,-5.4448,-5.4367,-5.4367,-5.4303,-5.411,-5.411,-5.4097,-5.4037,-5.3937,-5.3819,-5.3819,-5.3669,-5.3518,-5.3518,-5.3518,-5.3518,-5.3518,-5.3518,-5.3518,-5.3518,-5.3518,-5.3518,-5.3518,-5.3518,-5.3518,-5.3518,-5.3518,-5.3518,-5.3518,-5.3518,-5.3518,-5.3518,-5.3518,-5.3518,-5.3518,-5.3518,-5.3518,-4.6876,-4.6876,-4.6876,-4.6876,-4.6876,-4.6876,-4.6876,-4.6876,0.0,0.0,0.0,-4.6876,-4.6876,-4.6876,-4.6876,-4.6876,-4.6876,-4.6876,-4.6945,-4.7098,-4.7488,-4.777,-4.8016,-4.8353,-4.881,-4.9333,-4.9316,-4.9658,-5.02,-5.02,-5.0269,-5.039,-5.039,-5.07,-5.1304,-5.1908,-5.1614,-5.0459,-5.039,-5.039,-5.0407,-5.039,-5.039,-5.0407,-5.0407,-5.039,-5.039,-5.039,-5.0683,-5.1269,-5.1304,-5.158,-5.2166,-5.2192,-5.2192,-5.2235,-5.2791,-5.3238,-5.3408,-5.3977,-5.4374,-5.4512,-5.4512,-5.4512,-5.4512,-5.4512,-5.4512,-5.4512,-5.4512,-5.4512,-5.4512,-5.4512,-5.4512,-5.4512,-5.4512,-5.4512,-5.4512,-5.4512,-5.4512,-5.4512,-5.4512,-5.4448,-5.4286,-5.4239,-5.4239,-5.411,-5.4093,-5.3994,-5.3994,-5.37,-5.3568,-5.3501,-5.3518,-5.3518,-5.3518,-5.3518,-5.3518,-5.3518,-5.3518,-5.3518,-5.3518,-5.3518,-5.3518,-5.3518,-5.3518,-5.3518,-5.3518,-5.3518,-5.3518,-5.3518,-5.3518,-5.3518,-5.3518,-5.3518,-5.3518,-4.6876,-4.6876,-4.6876,-4.6876,-4.6876,-4.6876,-4.6876,-4.6876,-4.6876,-4.6876,-4.6876,-4.6876,-4.6876,-4.6876,-4.6876,-4.6876,-4.6876,-4.6876,-4.715,0.0,-4.7638,-4.8146,-4.9012,-4.9057,-4.9394,-4.9877,-4.9877,-5.0263,-5.089,-5.0959,-5.1269,-5.1821,-5.1908,-5.1959,-5.2063,-5.2166,-5.2114,-5.1925,-5.1925,-5.1908,-5.1925,-5.1908,-5.1908,-5.1908,-5.1873,-5.1925,-5.1908,-5.189,-5.1959,-5.2063,-5.2063,-5.2114,-5.2201,-5.22,-5.2165,-5.2174,-5.232,-5.2681,-5.3356,-5.3511,-5.3839,-5.4425,-5.4512,-5.4512,-5.4512,-5.4512,-5.4512,-5.4512,-5.4512,-5.4512,-5.4512,-5.4512,-5.4512,-5.4512,-5.4512,-5.4512,-5.4512,-5.4512,-5.4512,-5.4512,-5.4512,-5.4512,-5.4448,-5.4431,-5.4448,-5.4431,-5.4299,-5.4161,-5.3999,-5.3778,-5.3651,-5.3501,-5.3518,-5.3518,-5.3518,-5.3518,-5.3518,-5.3518,-5.3518,-5.3518,-5.3518,-5.3518,-5.3518,-5.3518,-5.3518,-5.3518,-5.3518,-5.3518,-5.3518,-5.3518,-5.3518,-5.3518,-5.3518,-5.3518,-5.3518,-4.6876,-4.6876,-4.6876,-4.6876,-4.6876,-4.6876,-4.6876,-4.6876,-4.6876,-4.6876,-4.6876,-4.6876,-4.6876,-4.6876,-4.6876,-4.6876,-4.6876,-4.7235,-4.7504,-4.7688,-4.8258,-4.8748,-4.9195,-4.953,-4.9948,-5.058,-5.0614,-5.0976,-5.1666,-5.1718,-5.189,-5.2235,-5.2632,-5.2839,-5.2891,-5.327,-5.346,-5.3442,-5.2632,-5.2165,-5.2152,-5.2182,-5.2201,-5.2201,-5.2201,-5.2201,-5.2201,-5.2201,-5.2425,-5.2856,-5.2856,-5.3046,-5.3442,-5.3432,-5.3449,-5.346,-5.3449,-5.3604,-5.3977,-5.4011,-5.4149,-5.4494,-5.4512,-5.4512,-5.4512,-5.4512,-5.4512,-5.4512,-5.4512,-5.4512,-5.4512,-5.4512,-5.4512,-5.4512,-5.4512,-5.4512,-5.4512,-5.4512,-5.4512,-5.4512,-5.4512,-5.4512,-5.4512,-5.4512,-5.4512,-5.4494,-5.4443,-5.4293,-5.4173,-5.4055,-5.3849,-5.3668,-5.3601,-5.3551,-5.3501,-5.3518,-5.3518,-5.3518,-5.3518,-5.3518,-5.3518,-5.3518,-5.3518,-5.3518,-5.3518,-5.3518,-5.3518,-5.3518,-5.3518,-5.3518,-5.3518,-5.3518,-5.3518,-5.3518,-5.3518,-4.6876,-4.6876,-4.6876,-4.6876,-4.6876,-4.6876,-4.6876,-4.6876,-4.6876,-4.6876,-4.6876,-4.6876,-4.6876,-4.6876,-4.6876,-4.6945,-4.7167,-4.7504,-4.7836,-4.8163,-4.8996,-4.9494,-4.9667,-5.0214,-5.0804,-5.1304,-5.1356,-5.1752,-5.2408,-5.2477,-5.258,-5.277,-5.3356,-5.3649,-5.3667,-5.4218,-5.4512,-5.4443,-5.3322,-5.2733,-5.2723,-5.2733,-5.2735,-5.2735,-5.2753,-5.2735,-5.2753,-5.2735,-5.3011,-5.3598,-5.3649,-5.3925,-5.446,-5.4512,-5.4512,-5.4512,-5.4512,-5.4512,-5.4512,-5.4512,-5.4512,-5.4512,-5.4512,-5.4512,-5.4512,-5.4512,-5.4512,-5.4512,-5.4512,-5.4512,-5.4512,-5.4512,-5.4512,-5.4512,-5.4512,-5.4512,-5.4512,-5.4512,-5.4512,-5.4512,-5.4512,-5.4512,-5.4512,-5.4512,-5.4512,-5.4512,-5.4512,-5.4443,-5.431,-5.4316,-5.4175,-5.3898,-5.3766,-5.3734,-5.3618,-5.3635,-5.3618,-5.3551,-5.3551,-5.3568,-5.3501,-5.3518,-5.3518,-5.3518,-5.3518,-5.3518,-5.3518,-5.3518,-5.3518,-5.3518,-5.3518,-5.3518,-5.3518,-5.3518,-5.3518,-4.6876,-4.6876,-4.6876,-4.6876,-4.6876,-4.6876,-4.6876,-4.6876,-4.6876,-4.6876,-4.6876,-4.6892,-4.6892,-4.6876,-4.6876,-4.7167,-4.7604,-4.7704,-4.8227,-4.9148,-4.9875,-5.0461,-5.0926,-5.1606,-5.2046,-5.2114,-5.2132,-5.2528,-5.327,-5.3287,-5.3615,-5.4218,-5.4374,-5.4374,-5.4408,-5.4477,-5.4512,-5.4512,-5.4374,-5.4322,-5.4276,-5.4305,-5.4287,-5.4287,-5.4287,-5.4305,-5.4201,-5.4305,-5.4322,-5.4391,-5.4374,-5.4425,-5.4494,-5.4512,-5.4512,-5.4512,-5.4512,-5.4512,-5.4512,-5.4512,-5.4512,-5.4512,-5.4512,-5.4512,-5.4512,-5.4512,-5.4512,-5.4512,-5.4512,-5.4512,-5.4512,-5.4512,-5.4512,-5.4512,-5.4512,-5.4512,-5.4512,-5.4512,-5.4512,-5.4512,-5.4512,-5.4512,-5.4512,-5.4512,-5.4512,-5.4512,-5.4512,-5.4494,-5.4477,-5.4414,-5.4385,-5.4175,-5.4045,-5.398,-5.3915,-5.3915,-5.3849,-5.3717,-5.37,-5.3685,-5.3585,-5.3534,-5.3518,-5.3585,-5.3518,-5.3518,-5.3501,-5.3501,-5.3484,-5.3501,-5.3501,-5.3518,-5.3518,-5.3568,-5.3585,-4.6876,-4.6876,-4.6876,-4.6876,-4.6876,-4.6876,-4.6876,-4.6876,-4.6876,-4.6876,-4.6941,-4.7346,-4.7297,-4.6892,-4.6876,-4.7447,-4.8381,-4.8663,-4.9466,-5.0584,-5.1155,-5.1537,-5.1744,-5.2063,-5.2442,-5.2891,-5.2925,-5.3322,-5.3925,-5.4063,-5.4218,-5.4477,-5.4512,-5.4512,-5.4512,-5.4512,-5.4512,-5.4512,-5.4512,-5.4512,-5.4512,-5.4512,-5.4512,-5.4512,-5.4512,-5.4512,-5.4512,-5.4512,-5.4512,-5.4512,-5.4512,-5.4512,-5.4512,-5.4512,-5.4512,-5.4512,-5.4512,-5.4512,-5.4512,-5.4512,-5.4512,-5.4512,-5.4512,-5.4512,-5.4512,-5.4512,-5.4512,-5.4512,-5.4512,-5.4512,-5.4512,-5.4512,-5.4512,-5.4512,-5.4512,-5.4512,-5.4512,-5.4512,-5.4512,-5.4512,-5.4512,-5.4512,-5.4512,-5.4512,-5.4512,-5.4512,-5.4512,-5.4512,-5.4512,-5.4512,-5.4431,-5.4385,-5.4321,-5.4175,-5.4045,-5.398,-5.398,-5.3898,-5.3832,-5.3817,-5.3788,-5.372,-5.3636,-5.3788,-5.3636,-5.3618,-5.38,-5.3666,-5.3615,-5.3685,-5.3585,-5.3518,-5.3518,-5.3856,-5.411,-4.6876,-4.6876,-4.6876,-4.6876,-4.6876,-4.6876,-4.6876,-4.6925,-4.7103,-4.7184,-4.7265,-4.7977,-4.8064,-4.7802,-4.7737,-4.8289,-4.926,-4.9839,-5.0659,-5.1691,-5.2303,-5.2546,-5.2563,-5.277,-5.3149,-5.3615,-5.3701,-5.3977,-5.446,-5.4512,-5.4512,-5.4512,-5.4512,-5.4512,-5.4512,-5.4512,-5.4512,-5.4512,-5.4512,-5.4575,-5.4603,-5.4557,-5.4512,-5.4512,-5.4512,-5.4512,-5.4512,-5.4512,-5.4512,-5.4512,-5.4512,-5.4512,-5.4512,-5.4512,-5.4512,-5.4512,-5.4512,-5.4512,-5.4512,-5.4512,-5.4512,-5.4512,-5.4512,-5.4512,-5.4512,-5.4512,-5.4512,-5.4512,-5.4512,-5.4512,-5.4512,-5.4512,-5.4512,-5.4512,-5.4512,-5.4512,-5.4512,-5.4512,-5.4512,-5.4512,-5.4512,-5.4512,-5.4512,-5.4512,-5.4512,-5.4512,-5.4512,-5.4512,-5.4512,-5.4512,-5.4512,-5.4512,-5.4512,-5.4367,-5.4175,-5.4175,-5.411,-5.4045,-5.4045,-5.4049,-5.3989,-5.3837,-5.3838,-5.3855,-5.3753,-5.3837,-5.4277,-5.4207,-5.4222,-5.4378,-5.4346,-5.4245,-5.4432,-5.4686,-5.4907,-4.6876,-4.6876,-4.6876,-4.6876,-4.6892,-4.6909,-4.6909,-4.7022,-4.7653,-4.7961,-4.8042,-4.8673,-4.9235,-4.973,-4.973,-5.0021,-5.0559,-5.1116,-5.1708,-5.2303,-5.2967,-5.3356,-5.3391,-5.408,-5.4391,-5.4356,-5.4356,-5.4425,-5.4512,-5.4512,-5.4512,-5.4512,-5.4512,-5.4512,-5.4512,-5.4512,-5.4512,-5.4512,-5.4512,-5.4665,-5.4887,-5.4631,-5.4523,-5.4575,-5.4512,-5.4512,-5.4512,-5.4512,-5.4512,-5.4512,-5.4512,-5.4512,-5.4512,-5.4512,-5.4512,-5.4512,-5.4512,-5.4512,-5.4512,-5.4512,-5.4512,-5.4512,-5.4512,-5.4512,-5.4512,-5.4512,-5.4512,-5.4512,-5.4512,-5.4512,-5.4512,-5.4512,-5.4512,-5.4512,-5.4512,-5.4512,-5.4512,-5.4512,-5.4512,-5.4512,-5.4512,-5.4512,-5.4512,-5.4512,-5.4512,-5.4512,-5.4512,-5.4512,-5.4512,-5.4512,-5.4512,-5.4512,-5.4512,-5.4512,-5.4465,-5.4385,-5.4321,-5.4321,-5.4192,-5.4192,-5.4045,-5.3949,-5.4071,-5.409,-5.4199,-5.447,-5.4887,-5.5195,-5.5414,-5.5535,-5.574,-5.5758,-5.54,-5.5723,-5.591,-4.6876,-4.6876,-4.6876,-4.6876,-4.6941,-4.7394,-4.7605,-4.767,-4.835,-4.8673,-4.8787,-4.9402,-5.0056,-5.0608,-5.142,-5.1781,-5.1877,-5.2119,-5.2729,-5.3604,-5.3977,-5.4115,-5.4132,-5.4408,-5.4512,-5.4512,-5.4512,-5.4512,-5.4512,-5.4512,-5.4512,-5.4512,-5.4512,-5.4512,-5.4512,-5.4512,-5.4512,-5.4512,-5.4512,-5.4665,-5.4966,-5.4863,-5.4811,-5.479,-5.462,-5.4512,-5.4512,-5.4512,-5.4512,-5.4512,-5.4512,-5.4512,-5.4512,-5.4512,-5.4512,-5.4512,-5.4512,-5.4512,-5.4512,-5.4512,-5.4512,-5.4512,-5.4512,-5.4512,-5.4512,-5.4512,-5.4512,-5.4512,-5.4512,-5.4512,-5.4512,-5.4512,-5.4512,-5.4512,-5.4512,-5.4512,-5.4512,-5.4512,-5.4512,-5.4512,-5.4512,-5.4512,-5.4512,-5.4512,-5.4512,-5.4512,-5.4512,-5.4512,-5.4512,-5.4512,-5.4512,-5.4512,-5.4512,-5.4512,-5.4512,-5.4512,-5.4448,-5.4448,-5.4385,-5.4419,-5.4355,-5.4763,-5.4922,-5.5084,-5.5103,-5.5447,-5.5958,-5.6199,-5.6387,-5.6421,-5.6593,-5.6645,-5.6167,-5.6628,-5.6831,-4.6876,-4.6925,-4.7151,-4.7232,-4.7346,-4.8042,-4.8333,-4.8414,-4.9062,-4.937,-4.9499,-5.0131,-5.0847,-5.1525,-5.2411,-5.2994,-5.3195,-5.3225,-5.3661,-5.4477,-5.4512,-5.4512,-5.4512,-5.4512,-5.4512,-5.4512,-5.4512,-5.4512,-5.4512,-5.4512,-5.4512,-5.4512,-5.4512,-5.4512,-5.4512,-5.4512,-5.4512,-5.4637,-5.4661,-5.4832,-5.5224,-5.5207,-5.5172,-5.5231,-5.4974,-5.4683,-5.4512,-5.4512,-5.4512,-5.4512,-5.4512,-5.4512,-5.4512,-5.4512,-5.4512,-5.4512,-5.4512,-5.4512,-5.4512,-5.4512,-5.4512,-5.4512,-5.4665,-5.4772,-5.479,-5.4939,-5.5061,-5.5079,-5.4856,-5.4834,-5.4966,-5.4946,-5.4774,-5.4765,-5.4809,-5.479,-5.479,-5.4637,-5.4512,-5.4512,-5.4512,-5.4512,-5.4512,-5.4512,-5.4512,-5.4512,-5.4512,-5.4512,-5.4512,-5.4512,-5.4512,-5.4512,-5.4512,-5.4667,-5.4856,-5.5012,-5.5093,-5.5029,-5.4965,-5.4925,-5.511,-5.5565,-5.5877,-5.599,-5.6301,-5.6633,-5.6978,-5.7172,-5.7292,-5.7292,-5.75,-5.7672,-5.7552,-5.7586,-5.7706,-4.6892,-4.7038,-4.7702,-4.7977,-4.8107,-4.8738,-4.903,-4.9143,-4.9791,-5.0115,-5.0196,-5.0902,-5.1671,-5.2577,-5.2803,-5.3449,-5.42,-5.431,-5.4345,-5.4512,-5.4512,-5.4512,-5.4512,-5.4512,-5.4512,-5.4575,-5.4512,-5.4494,-5.4575,-5.4512,-5.4512,-5.4512,-5.4512,-5.4512,-5.4512,-5.4512,-5.462,-5.4886,-5.4936,-5.5244,-5.5769,-5.5608,-5.5608,-5.5791,-5.559,-5.5174,-5.4575,-5.4575,-5.4575,-5.4512,-5.4512,-5.4512,-5.4512,-5.4512,-5.4512,-5.4512,-5.4512,-5.4512,-5.4512,-5.4512,-5.4512,-5.4557,-5.5,-5.5284,-5.5343,-5.5773,-5.6111,-5.5996,-5.5711,-5.5588,-5.5956,-5.5764,-5.5437,-5.5433,-5.5398,-5.5385,-5.5266,-5.4896,-5.4512,-5.4575,-5.462,-5.4575,-5.4512,-5.462,-5.4655,-5.473,-5.4752,-5.479,-5.479,-5.4852,-5.462,-5.4637,-5.5008,-5.5392,-5.5525,-5.568,-5.5714,-5.5813,-5.5684,-5.5684,-5.6119,-5.6495,-5.6664,-5.6857,-5.7352,-5.7781,-5.8154,-5.8437,-5.8772,-5.8876,-5.8853,-5.8684,-5.8666,-5.8666,-5.86,-4.7184,-4.767,-4.7896,-4.8301,-4.8771,-4.9467,-4.9758,-4.9839,-5.0536,-5.0843,-5.095,-5.1484,-5.2131,-5.2767,-5.3196,-5.3815,-5.4448,-5.4512,-5.4512,-5.4512,-5.4512,-5.4512,-5.4512,-5.4512,-5.4637,-5.4745,-5.4637,-5.462,-5.4745,-5.462,-5.4512,-5.4512,-5.4512,-5.4512,-5.4512,-5.4512,-5.47,-5.4974,-5.5009,-5.529,-5.5808,-5.5824,-5.5824,-5.5865,-5.5804,-5.5572,-5.5217,-5.4992,-5.4869,-5.4807,-5.4637,-5.4512,-5.4512,-5.4512,-5.4512,-5.4512,-5.4512,-5.4512,-5.4512,-5.4512,-5.4512,-5.462,-5.5061,-5.5343,-5.5443,-5.5999,-5.633,-5.633,-5.612,-5.6088,-5.6248,-5.6532,-5.6363,-5.606,-5.6044,-5.5999,-5.5961,-5.583,-5.5543,-5.5182,-5.5122,-5.5122,-5.5122,-5.5122,-5.5227,-5.5591,-5.5669,-5.5676,-5.5698,-5.5676,-5.5716,-5.5733,-5.6104,-5.6535,-5.6814,-5.7245,-5.7509,-5.7376,-5.7171,-5.7019,-5.7374,-5.7586,-5.77,-5.7953,-5.845,-5.886,-5.9267,-5.9618,-5.9889,-6.003,-5.9843,-5.9751,-5.9679,-5.9617,-5.952,-4.7572,-4.8042,-4.856,-4.9013,-4.9499,-5.0196,-5.0503,-5.0626,-5.118,-5.1524,-5.1582,-5.2059,-5.2627,-5.3128,-5.3567,-5.398,-5.4448,-5.4512,-5.4512,-5.4512,-5.4512,-5.4512,-5.4512,-5.462,-5.4762,-5.493,-5.493,-5.493,-5.4992,-5.4807,-5.4637,-5.4512,-5.4512,-5.4512,-5.4512,-5.4512,-5.4683,-5.5096,-5.5196,-5.5472,-5.5978,-5.6095,-5.6095,-5.607,-5.6088,-5.5975,-5.5822,-5.5514,-5.5234,-5.5009,-5.4683,-5.4512,-5.4512,-5.4512,-5.4512,-5.4512,-5.4512,-5.4512,-5.4512,-5.4512,-5.462,-5.4834,-5.5385,-5.583,-5.6093,-5.6581,-5.6912,-5.693,-5.6722,-5.6689,-5.6936,-5.694,-5.7011,-5.6969,-5.6704,-5.651,-5.6384,-5.633,-5.6166,-5.5848,-5.5733,-5.5733,-5.5733,-5.5751,-5.5888,-5.6206,-5.6294,-5.6295,-5.6384,-5.6564,-5.6689,-5.692,-5.738,-5.7804,-5.8271,-5.8827,-5.9345,-5.9142,-5.8817,-5.8747,-5.8859,-5.914,-5.9286,-5.9429,-5.9756,-5.987,-6.021,-6.0362,-6.0615,-6.0676,-6.0694,-6.045,-6.0282,-6.0282,-6.0254,-4.8026,-4.8236,-4.9515,-5.0066,-5.0228,-5.0859,-5.1177,-5.1359,-5.1712,-5.1987,-5.2131,-5.2627,-5.3128,-5.3567,-5.3783,-5.411,-5.4448,-5.4512,-5.4512,-5.4512,-5.4512,-5.4512,-5.4512,-5.4807,-5.4992,-5.5113,-5.5294,-5.5294,-5.5174,-5.5035,-5.4886,-5.47,-5.4637,-5.4575,-5.4575,-5.4512,-5.4807,-5.5354,-5.5455,-5.5746,-5.6346,-5.6383,-5.6383,-5.6401,-5.6328,-5.6328,-5.6273,-5.5975,-5.5572,-5.5096,-5.4807,-5.462,-5.4575,-5.4512,-5.4575,-5.462,-5.4557,-5.4683,-5.462,-5.4772,-5.4957,-5.5443,-5.5999,-5.6528,-5.6964,-5.7382,-5.7774,-5.7792,-5.7401,-5.7351,-5.7656,-5.7534,-5.7462,-5.7821,-5.7443,-5.6982,-5.6492,-5.6492,-5.6492,-5.6384,-5.633,-5.633,-5.633,-5.6312,-5.6366,-5.6528,-5.6617,-5.6642,-5.6944,-5.7391,-5.7622,-5.807,-5.8718,-5.9186,-5.9709,-6.0232,-6.0774,-6.0755,-6.0436,-6.0225,-6.0023,-6.0212,-6.0375,-6.0529,-6.0777,-6.0929,-6.1064,-6.1224,-6.1343,-6.1397,-6.1265,-6.1033,-6.0974,-6.0992,-6.098,-4.8301,-4.8852,-4.9742,-5.0406,-5.0892,-5.1135,-5.145,-5.1786,-5.1915,-5.2274,-5.2627,-5.3196,-5.355,-5.37,-5.4093,-5.4385,-5.4512,-5.4512,-5.4512,-5.4512,-5.4512,-5.4512,-5.4575,-5.4869,-5.5113,-5.5354,-5.5472,-5.559,-5.5631,-5.5455,-5.5294,-5.5234,-5.4992,-5.4869,-5.4869,-5.4637,-5.4869,-5.5413,-5.549,-5.5822,-5.6273,-5.6383,-5.6383,-5.6383,-5.6383,-5.6383,-5.6383,-5.6088,-5.5746,-5.5413,-5.5294,-5.5113,-5.4869,-5.4869,-5.4974,-5.5122,-5.5164,-5.5402,-5.5733,-5.5773,-5.5887,-5.6055,-5.6546,-5.6946,-5.7116,-5.766,-5.7932,-5.7978,-5.7821,-5.7821,-5.7932,-5.7821,-5.7886,-5.7932,-5.7821,-5.766,-5.7498,-5.7565,-5.7401,-5.6997,-5.6894,-5.6894,-5.6894,-5.6894,-5.7015,-5.7333,-5.7468,-5.765,-5.7959,-5.8421,-5.8722,-5.9634,-6.0295,-6.0733,-6.1189,-6.1737,-6.2102,-6.2245,-6.1947,-6.1516,-6.1127,-6.0759,-6.0807,-6.0846,-6.1368,-6.16,-6.1843,-6.1977,-6.2071,-6.2041,-6.186,-6.164,-6.164,-6.1658,-6.1631,-4.8657,-4.9111,-5.0131,-5.0795,-5.1242,-5.1466,-5.1729,-5.2043,-5.2557,-5.2836,-5.3264,-5.3749,-5.4045,-5.4045,-5.4367,-5.4512,-5.4512,-5.4512,-5.4512,-5.4512,-5.4512,-5.4512,-5.4637,-5.493,-5.5294,-5.5531,-5.5764,-5.5861,-5.5861,-5.5746,-5.5631,-5.5472,-5.5277,-5.5234,-5.5156,-5.5053,-5.5174,-5.5607,-5.5678,-5.591,-5.6346,-5.6383,-5.6383,-5.6383,-5.6383,-5.6383,-5.6383,-5.6217,-5.5975,-5.5706,-5.559,-5.5413,-5.5234,-5.5319,-5.542,-5.5636,-5.5733,-5.5925,-5.6221,-5.633,-5.6421,-5.6634,-5.6964,-5.7216,-5.7449,-5.7821,-5.7978,-5.7978,-5.7978,-5.7978,-5.7978,-5.7978,-5.7978,-5.7978,-5.7978,-5.7978,-5.7978,-5.7932,-5.7839,-5.7594,-5.7498,-5.7498,-5.748,-5.748,-5.766,-5.7867,-5.7867,-5.8315,-5.8864,-5.9417,-6.0015,-6.0786,-6.1429,-6.177,-6.1903,-6.2306,-6.242,-6.2668,-6.2636,-6.2342,-6.2053,-6.1511,-6.1631,-6.1729,-6.2068,-6.2315,-6.2407,-6.248,-6.2508,-6.2464,-6.236,-6.229,-6.2237,-6.2131,-6.2169,-4.903,-4.9143,-5.0584,-5.1183,-5.1317,-5.1802,-5.2059,-5.2274,-5.3128,-5.3683,-5.3832,-5.4303,-5.4448,-5.4512,-5.4431,-5.4512,-5.4512,-5.4512,-5.4512,-5.4512,-5.4512,-5.4512,-5.4575,-5.5174,-5.5413,-5.559,-5.6123,-5.6162,-5.6049,-5.5975,-5.5861,-5.5689,-5.5572,-5.5514,-5.5514,-5.5472,-5.5631,-5.5839,-5.5842,-5.5998,-5.6326,-5.6383,-5.6383,-5.6401,-5.6328,-5.6273,-5.6217,-5.6217,-5.6106,-5.5861,-5.5689,-5.5631,-5.5631,-5.5826,-5.5978,-5.6146,-5.6276,-5.6438,-5.6564,-5.6652,-5.6757,-5.7116,-5.7216,-5.7382,-5.7821,-5.7978,-5.7978,-5.7978,-5.7978,-5.7978,-5.7978,-5.7978,-5.7978,-5.7978,-5.7978,-5.7978,-5.7978,-5.7978,-5.7978,-5.7978,-5.7997,-5.7978,-5.7978,-5.7978,-5.7978,-5.7932,-5.8088,-5.8556,-5.9252,-5.9839,-6.0658,-6.1612,-6.2181,-6.2658,-6.2663,-6.2718,-6.2737,-6.2755,-6.2755,-6.2636,-6.2636,-6.2384,-6.2576,-6.2732,-6.2553,-6.2553,-6.2645,-6.2768,-6.2823,-6.2755,-6.2585,-6.2654,-6.2755,-6.2585,-6.254,-4.903,-4.9143,-5.0584,-5.1183,-5.1317,-5.1786,-5.2274,-5.2697,-5.3416,-5.398,-5.4303,-5.4448,-5.4512,-5.4512,-5.4512,-5.4512,-5.4575,-5.4575,-5.4512,-5.4512,-5.4512,-5.4512,-5.4637,-5.5234,-5.5472,-5.5648,-5.6106,-5.6346,-5.6273,-5.6273,-5.6273,-5.6144,-5.5918,-5.5804,-5.5804,-5.5631,-5.5631,-5.5839,-5.59,-5.6074,-5.6326,-5.6401,-5.6401,-5.6346,-5.6162,-5.5918,-5.5764,-5.5706,-5.5648,-5.5706,-5.5993,-5.6182,-5.6146,-5.6201,-5.6456,-5.6757,-5.6912,-5.7116,-5.7498,-5.7565,-5.7679,-5.7708,-5.7708,-5.7886,-5.7932,-5.7978,-5.7978,-5.7978,-5.7978,-5.7978,-5.7978,-5.7978,-5.7978,-5.7978,-5.7978,-5.7978,-5.7978,-5.7978,-5.7978,-5.7978,-5.7978,-5.7978,-5.7978,-5.7978,-5.7978,-5.7978,-5.8272,-5.8731,-5.941,-6.0144,-6.1006,-6.1869,-6.2456,-6.2805,-6.2823,-6.2823,-6.2823,-6.2823,-6.2823,-6.2823,-6.2823,-6.2823,-6.2823,-6.2823,-6.2787,-6.2823,-6.2823,-6.2823,-6.2823,-6.2823,-6.2823,-6.2823,-6.2823,-6.2823,-6.2823,-4.903,-4.9175,-5.0584,-5.1183,-5.1317,-5.1987,-5.2557,-5.2974,-5.3749,-5.4239,-5.4494,-5.462,-5.4745,-5.4745,-5.4745,-5.4824,-5.4948,-5.4992,-5.4992,-5.4992,-5.4992,-5.4869,-5.4869,-5.5277,-5.5631,-5.5572,-5.5918,-5.6217,-5.6346,-5.6383,-5.6383,-5.6401,-5.6217,-5.6162,-5.6162,-5.5975,-5.6049,-5.6123,-5.6138,-5.6212,-5.6364,-5.6401,-5.629,-5.6162,-5.5975,-5.5804,-5.5531,-5.5786,-5.5826,-5.6014,-5.6402,-5.651,-5.6257,-5.6582,-5.693,-5.6964,-5.7431,-5.7613,-5.795,-5.7978,-5.7978,-5.7978,-5.7978,-5.7978,-5.7978,-5.7978,-5.7978,-5.7978,-5.7978,-5.7978,-5.7978,-5.7978,-5.7978,-5.7978,-5.7978,-5.7978,-5.7978,-5.7978,-5.7978,-5.7978,-5.7978,-5.7978,-5.7978,-5.7978,-5.7978,-5.7978,-5.8015,-5.8455,-5.9236,-6.0008,-6.086,-6.1704,-6.242,-6.2805,-6.2805,-6.2823,-6.2823,-6.2823,-6.2823,-6.2823,-6.2823,-6.2823,-6.2823,-6.2823,-6.2823,-6.2823,-6.2823,-6.2823,-6.2823,-6.2823,-6.2823,-6.2823,-6.2823,-6.2823,-6.2823,-4.903,-4.9143,-5.0584,-5.1242,-5.145,-5.2345,-5.2836,-5.3111,-5.4028,-5.4448,-5.4575,-5.4807,-5.4869,-5.4992,-5.4992,-5.5174,-5.5413,-5.5472,-5.5431,-5.5431,-5.5413,-5.5294,-5.5234,-5.5514,-5.5746,-5.559,-5.5918,-5.6162,-5.6346,-5.6383,-5.6383,-5.6401,-5.6401,-5.6328,-5.6383,-5.6383,-5.6328,-5.6346,-5.6346,-5.6364,-5.6401,-5.6383,-5.6273,-5.5975,-5.607,-5.5883,-5.5769,-5.6035,-5.6294,-5.633,-5.6845,-5.6528,-5.6274,-5.674,-5.7486,-5.6982,-5.7613,-5.7886,-5.7978,-5.7978,-5.7978,-5.7978,-5.7978,-5.7978,-5.7978,-5.7978,-5.7978,-5.7978,-5.7978,-5.7978,-5.7978,-5.7978,-5.7978,-5.7978,-5.7978,-5.7978,-5.7978,-5.7978,-5.7978,-5.7978,-5.7978,-5.7978,-5.7978,-5.7978,-5.7978,-5.7978,-5.8015,-5.83,-5.9016,-5.9696,-6.0456,-6.1227,-6.1887,-6.264,-6.275,-6.2768,-6.2787,-6.2823,-6.2823,-6.2823,-6.2823,-6.2823,-6.2823,-6.2823,-6.2823,-6.2823,-6.2823,-6.2823,-6.2823,-6.2823,-6.2823,-6.2823,-6.2823,-6.2823,-6.2823,-4.903,-4.9159,-5.0584,-5.1466,-5.1915,-5.2557,-5.306,-5.3634,-5.4239,-5.4512,-5.4512,-5.4575,-5.4807,-5.4913,-5.4974,-5.5174,-5.5472,-5.5607,-5.559,-5.559,-5.559,-5.5472,-5.5472,-5.5648,-5.5706,-5.5918,-5.6088,-5.6328,-5.6401,-5.6383,-5.6383,-5.6383,-5.6383,-5.6383,-5.6383,-5.6383,-5.6383,-5.6383,-5.6383,-5.6383,-5.6383,-5.6437,-5.631,-5.607,-5.6257,-5.6239,-5.6075,-5.6204,-5.6421,-5.6421,-5.6894,-5.6757,-5.6564,-5.7152,-5.7583,-5.7726,-5.7886,-5.7978,-5.7978,-5.7978,-5.7978,-5.7978,-5.7978,-5.7978,-5.7978,-5.7978,-5.7978,-5.7978,-5.7978,-5.7978,-5.7978,-5.7978,-5.7978,-5.7978,-5.7978,-5.7978,-5.7978,-5.7978,-5.7978,-5.7978,-5.7978,-5.7978,-5.7978,-5.7978,-5.7978,-5.7978,-5.7997,-5.8244,-5.8842,-5.9291,-5.9758,-6.0511,-6.1245,-6.2034,-6.2677,-6.2713,-6.2732,-6.2805,-6.2823,-6.2823,-6.2823,-6.2823,-6.2823,-6.2823,-6.2823,-6.2823,-6.2823,-6.2823,-6.2823,-6.2823,-6.2823,-6.2823,-6.2823,-6.2823,-6.2823,-4.903,-4.9175,-5.0584,-5.1524,-5.2059,-5.254,-5.3128,-5.37,-5.4239,-5.4512,-5.4575,-5.4683,-5.493,-5.5174,-5.5234,-5.5396,-5.5706,-5.5936,-5.5936,-5.5993,-5.5993,-5.5861,-5.5746,-5.5861,-5.5861,-5.6032,-5.6199,-5.6383,-5.6383,-5.6383,-5.6383,-5.6383,-5.6383,-5.6383,-5.6383,-5.6383,-5.6383,-5.6383,-5.6383,-5.6383,-5.6437,-5.6546,-5.651,-5.642,-5.6564,-5.6616,-5.6474,-5.6789,-5.696,-5.708,-5.7431,-5.7498,-5.7449,-5.7516,-5.7745,-5.7708,-5.7867,-5.7978,-5.7978,-5.7978,-5.7978,-5.7978,-5.7978,-5.7978,-5.7978,-5.7978,-5.7978,-5.7978,-5.7978,-5.7978,-5.7978,-5.7978,-5.7978,-5.7978,-5.7978,-5.7978,-5.7978,-5.7978,-5.7978,-5.7978,-5.7978,-5.7978,-5.7978,-5.7978,-5.7978,-5.7978,-5.7978,-5.8263,-5.8658,-5.8942,-5.9281,-5.9832,-6.0566,-6.1245,-6.1942,-6.2126,-6.242,-6.2603,-6.2713,-6.2713,-6.2823,-6.2823,-6.2823,-6.2823,-6.2823,-6.2823,-6.2823,-6.2823,-6.2823,-6.2823,-6.2823,-6.2823,-6.2823,-6.2823,-6.2823,-4.903,-4.9143,-5.0716,-5.1672,-5.2203,-5.2767,-5.3332,-5.3898,-5.4303,-5.4512,-5.4575,-5.4745,-5.5035,-5.5354,-5.5531,-5.5746,-5.6032,-5.6273,-5.6328,-5.6328,-5.6346,-5.6217,-5.6144,-5.6217,-5.6273,-5.6106,-5.6273,-5.6383,-5.6383,-5.6383,-5.6383,-5.6383,-5.6383,-5.6383,-5.6383,-5.6383,-5.6383,-5.6383,-5.6383,-5.6383,-5.6492,-5.6707,-5.6829,-5.667,-5.6964,-5.708,-5.7043,-5.7425,-5.7653,-5.7766,-5.796,-5.8152,-5.8133,-5.8042,-5.7774,-5.7449,-5.7774,-5.7932,-5.7978,-5.7978,-5.7978,-5.7978,-5.7978,-5.7978,-5.7978,-5.7978,-5.7978,-5.7978,-5.7978,-5.7978,-5.7978,-5.7978,-5.7978,-5.7978,-5.7978,-5.7978,-5.7978,-5.7978,-5.7978,-5.7978,-5.7978,-5.7978,-5.7978,-5.7978,-5.7978,-5.7978,-5.7978,-5.7978,-5.8336,-5.8575,-5.8896,-5.93,-5.9869,-6.0474,-6.1006,-6.13,-6.1722,-6.2218,-6.2315,-6.2388,-6.259,-6.2823,-6.2768,-6.2695,-6.2823,-6.2823,-6.2823,-6.2805,-6.2823,-6.2823,-6.2823,-6.2823,-6.2823,-6.2823,-6.2823,-4.903,-4.9143,-5.1123,-5.2203,-5.2767,-5.3332,-5.3898,-5.4367,-5.4512,-5.4512,-5.4575,-5.4575,-5.4745,-5.5174,-5.5689,-5.6032,-5.6273,-5.6346,-5.6383,-5.6383,-5.6401,-5.6401,-5.6328,-5.6346,-5.6401,-5.6273,-5.6346,-5.6401,-5.6383,-5.6383,-5.6401,-5.6401,-5.6383,-5.6383,-5.6401,-5.6383,-5.6383,-5.6383,-5.6383,-5.6383,-5.6437,-5.651,-5.6742,-5.6984,-5.737,-5.7642,-5.7822,-5.8105,-5.8301,-5.8319,-5.8223,-5.8197,-5.8197,-5.8106,-5.7997,-5.795,-5.795,-5.7978,-5.7978,-5.7978,-5.7978,-5.7978,-5.7978,-5.7978,-5.7978,-5.7978,-5.7978,-5.7978,-5.7978,-5.7978,-5.7978,-5.7978,-5.7978,-5.7978,-5.7978,-5.7978,-5.7978,-5.7978,-5.7978,-5.7978,-5.7978,-5.7978,-5.7978,-5.7978,-5.7978,-5.7978,-5.7978,-5.7978,-5.8033,-5.829,-5.8455,-5.8841,-5.9098,-5.9667,-6.0199,-6.0474,-6.097,-6.1612,-6.1783,-6.1898,-6.2027,-6.2173,-6.2498,-6.248,-6.2553,-6.2608,-6.2553,-6.2572,-6.275,-6.2823,-6.2823,-6.2823,-6.2823,-6.2823,-6.2823,-4.903,-4.9143,-5.1179,-5.2329,-5.2905,-5.3632,-5.4252,-5.4665,-5.4762,-5.4807,-5.4745,-5.4557,-5.4807,-5.5336,-5.5918,-5.6273,-5.6383,-5.6383,-5.6383,-5.6383,-5.6383,-5.6383,-5.6383,-5.6401,-5.6383,-5.6328,-5.6217,-5.6217,-5.6273,-5.6217,-5.6217,-5.6346,-5.6217,-5.6217,-5.6346,-5.6383,-5.6383,-5.6383,-5.6383,-5.6383,-5.6492,-5.6776,-5.7138,-5.7356,-5.7867,-5.8231,-5.8406,-5.8511,-5.8614,-5.8572,-5.8418,-5.8331,-5.826,-5.8152,-5.7978,-5.7978,-5.7978,-5.7978,-5.7978,-5.7978,-5.7978,-5.7978,-5.7978,-5.7978,-5.7978,-5.7978,-5.7978,-5.7978,-5.7978,-5.7978,-5.7978,-5.7978,-5.7978,-5.7978,-5.7978,-5.7978,-5.7978,-5.7978,-5.7978,-5.7978,-5.7978,-5.7978,-5.7978,-5.7978,-5.7978,-5.7978,-5.7978,-5.7978,-5.7978,-5.807,-5.8217,-5.8364,-5.8565,-5.8804,-5.9336,-5.9758,-6.0162,-6.0694,-6.0903,-6.1037,-6.114,-6.1359,-6.1679,-6.1825,-6.177,-6.188,-6.2082,-6.2498,-6.2787,-6.2823,-6.2823,-6.2823,-6.2823,-6.2823,-6.2823,-4.894,-4.943,-5.1394,-5.24,-5.2905,-5.3795,-5.4506,-5.4974,-5.4974,-5.5053,-5.5053,-5.493,-5.5113,-5.5572,-5.6049,-5.629,-5.6383,-5.6383,-5.6383,-5.6383,-5.6383,-5.6383,-5.6383,-5.6383,-5.6383,-5.6383,-5.6217,-5.6217,-5.6217,-5.6106,-5.5975,-5.6273,-5.5936,-5.5975,-5.6162,-5.6273,-5.6273,-5.6383,-5.6383,-5.6438,-5.6634,-5.7102,-5.7468,-5.7821,-5.8231,-5.8614,-5.8656,-5.8698,-5.8698,-5.8675,-5.8505,-5.8418,-5.8349,-5.8189,-5.8015,-5.7997,-5.7978,-5.7978,-5.7978,-5.7978,-5.7978,-5.7978,-5.7978,-5.7978,-5.7978,-5.7978,-5.7978,-5.7978,-5.7978,-5.7978,-5.7978,-5.7978,-5.7978,-5.7978,-5.7978,-5.7978,-5.7978,-5.7978,-5.7978,-5.7978,-5.7978,-5.7978,-5.7978,-5.7978,-5.7978,-5.7978,-5.7978,-5.7978,-5.7978,-5.7978,-5.8033,-5.8162,-5.8217,-5.8364,-5.8602,-5.9061,-5.9465,-5.9777,-6.0004,-6.0286,-6.0512,-6.0622,-6.0799,-6.0909,-6.0896,-6.1092,-6.1318,-6.2089,-6.2823,-6.2823,-6.2823,-6.2823,-6.2823,-6.2768,-6.2787,-4.8784,-4.9977,-5.1941,-5.275,-5.2889,-5.4011,-5.4683,-5.4974,-5.4974,-5.5174,-5.5354,-5.5472,-5.5572,-5.5804,-5.5975,-5.6162,-5.6401,-5.6383,-5.6383,-5.6383,-5.6383,-5.6383,-5.6383,-5.6383,-5.6383,-5.6401,-5.6273,-5.6273,-5.6235,-5.5764,-5.5746,-5.5861,-5.5648,-5.5746,-5.5918,-5.6088,-5.6199,-5.6383,-5.6492,-5.6685,-5.687,-5.7175,-5.7468,-5.7941,-5.8123,-5.8301,-5.8656,-5.8698,-5.8698,-5.8698,-5.8572,-5.8443,-5.8375,-5.8252,-5.8098,-5.8061,-5.7997,-5.7978,-5.7978,-5.7978,-5.7978,-5.7978,-5.7978,-5.7978,-5.7978,-5.7978,-5.7978,-5.7978,-5.7978,-5.7978,-5.7978,-5.7978,-5.7978,-5.7978,-5.7978,-5.7978,-5.7978,-5.7978,-5.7978,-5.7978,-5.7978,-5.7978,-5.7978,-5.7978,-5.7978,-5.7978,-5.7978,-5.7978,-5.7978,-5.7978,-5.7978,-5.8033,-5.8015,-5.8052,-5.8052,-5.84,-5.8767,-5.9024,-5.9216,-5.9637,-6.0059,-6.0078,-5.9839,-6.0081,-6.0136,-6.032,-6.0632,-6.1404,-6.2053,-6.2585,-6.2695,-6.2273,-6.2181,-6.2144,-6.2365,-4.8751,-5.0014,-5.1543,-5.2639,-5.3399,-5.4586,-5.5053,-5.5053,-5.5234,-5.5234,-5.5217,-5.5572,-5.5804,-5.5901,-5.6144,-5.6273,-5.6401,-5.6383,-5.6383,-5.6383,-5.6383,-5.6401,-5.6401,-5.6383,-5.6383,-5.6346,-5.6217,-5.6217,-5.629,-5.5648,-5.5472,-5.5472,-5.5354,-5.5572,-5.5729,-5.6014,-5.6237,-5.6438,-5.6776,-5.7098,-5.713,-5.7503,-5.7802,-5.7978,-5.8381,-5.8511,-5.8675,-5.8698,-5.8698,-5.8656,-5.8553,-5.8511,-5.8443,-5.8297,-5.8189,-5.8106,-5.8042,-5.7978,-5.7978,-5.7978,-5.7978,-5.7978,-5.7978,-5.7978,-5.7978,-5.7978,-5.7978,-5.7978,-5.7978,-5.7978,-5.7978,-5.7978,-5.7978,-5.7978,-5.7978,-5.7978,-5.7978,-5.7978,-5.7978,-5.7978,-5.7978,-5.7978,-5.7978,-5.7978,-5.7978,-5.7978,-5.7978,-5.7978,-5.7978,-5.7978,-5.7978,-5.7978,-5.7978,-5.7978,-5.7978,-5.8052,-5.8125,-5.8327,-5.8547,-5.8896,-5.9263,-5.8877,-5.8731,-5.9053,-5.9394,-5.954,-5.9953,-6.0669,-6.1238,-6.1575,-6.152,-6.1208,-6.1263,-6.1502,-6.1741,-4.8609,-5.0222,-5.1061,-5.232,-5.3764,-5.479,-5.5174,-5.5174,-5.5277,-5.5277,-5.5156,-5.5689,-5.5918,-5.5975,-5.6217,-5.6383,-5.6346,-5.6273,-5.6346,-5.6328,-5.6273,-5.6328,-5.6383,-5.6383,-5.6383,-5.6328,-5.6217,-5.6217,-5.6346,-5.5514,-5.5455,-5.5472,-5.5174,-5.5217,-5.5555,-5.6108,-5.6366,-5.6688,-5.6966,-5.7413,-5.7407,-5.77,-5.8078,-5.8133,-5.8418,-5.8548,-5.859,-5.8614,-5.8614,-5.8614,-5.8553,-5.8553,-5.8486,-5.8375,-5.8242,-5.8152,-5.8088,-5.7978,-5.7978,-5.7978,-5.7978,-5.7978,-5.7978,-5.7978,-5.7978,-5.7978,-5.7978,-5.7978,-5.7978,-5.7978,-5.7978,-5.7978,-5.7978,-5.7978,-5.7978,-5.7978,-5.7978,-5.7978,-5.7978,-5.7978,-5.7978,-5.7978,-5.7978,-5.7978,-5.7978,-5.7978,-5.7978,-5.7978,-5.7978,-5.7978,-5.7978,-5.7978,-5.7978,-5.7978,-5.7978,-5.8033,-5.8052,-5.8088,-5.8235,-5.8162,-5.8235,-5.7978,-5.7978,-5.8391,-5.8695,-5.8787,-5.9099,-5.9493,-6.0008,-6.0456,-6.0438,-6.0493,-6.0694,-6.0933,-6.0921,-4.8409,-5.0576,-5.0743,-5.1931,-5.3715,-5.4286,-5.4869,-5.5294,-5.5156,-5.5156,-5.5413,-5.5746,-5.5861,-5.5918,-5.6162,-5.6273,-5.6217,-5.6032,-5.6049,-5.6162,-5.6088,-5.6144,-5.6273,-5.6328,-5.6383,-5.6383,-5.6328,-5.6328,-5.6383,-5.5706,-5.5648,-5.5514,-5.5053,-5.4807,-5.5113,-5.5865,-5.6582,-5.7105,-5.7174,-5.7485,-5.7694,-5.7868,-5.807,-5.8242,-5.8393,-5.8462,-5.848,-5.8505,-5.8529,-5.8529,-5.8572,-5.8572,-5.8468,-5.8418,-5.8305,-5.8179,-5.8088,-5.7997,-5.7978,-5.7978,-5.7978,-5.7978,-5.7978,-5.7978,-5.7978,-5.7978,-5.7978,-5.7978,-5.7978,-5.7978,-5.7978,-5.7978,-5.7978,-5.7978,-5.7978,-5.7978,-5.7978,-5.7978,-5.7978,-5.7978,-5.7978,-5.7978,-5.7978,-5.7978,-5.7978,-5.7978,-5.7978,-5.7978,-5.7978,-5.7978,-5.7978,-5.7978,-5.7978,-5.7978,-5.7978,-5.7978,-5.7997,-5.7978,-5.7978,-5.7978,-5.7978,-5.7978,-5.7997,-5.7997,-5.8153,-5.8391,-5.8244,-5.8125,-5.8822,-5.952,-5.9905,-6.007,-6.0236,-6.0236,-6.0144,-4.8376,-5.0676,-5.0693,-5.2029,-5.4119,-5.4683,-5.4886,-5.4869,-5.493,-5.5053,-5.5294,-5.5689,-5.5804,-5.5804,-5.5861,-5.5975,-5.5804,-5.5764,-5.5764,-5.5822,-5.5804,-5.5975,-5.6088,-5.6217,-5.6328,-5.6401,-5.6401,-5.6401,-5.6401,-5.5764,-5.559,-5.5396,-5.4913,-5.4834,-5.5284,-5.5978,-5.6564,-5.7169,-5.7569,-5.7895,-5.7941,-5.8078,-5.8197,-5.8305,-5.8331,-5.8349,-5.8367,-5.8418,-5.8418,-5.8418,-5.8505,-5.8505,-5.84,-5.8349,-5.8242,-5.8197,-5.8106,-5.7978,-5.7978,-5.7978,-5.7978,-5.7978,-5.7978,-5.7978,-5.7978,-5.7978,-5.7978,-5.7978,-5.7978,-5.7978,-5.7978,-5.7978,-5.7978,-5.7978,-5.7978,-5.7978,-5.7978,-5.7978,-5.7978,-5.7978,-5.7978,-5.7978,-5.7978,-5.7978,-5.7978,-5.7978,-5.7978,-5.7978,-5.7978,-5.7978,-5.7978,-5.7978,-5.7978,-5.7978,-5.7978,-5.7978,-5.7978,-5.7978,-5.7978,-5.7978,-5.7978,-5.7978,-5.7978,-5.7997,-5.7978,-5.7978,-5.7978,-5.8015,-5.818,-5.8621,-5.9043,-5.9171,-5.9098,-5.9043,-5.8998,-4.824,-5.0393,-5.0626,-5.2029,-5.4102,-5.4683,-5.4683,-5.4557,-5.4869,-5.493,-5.4992,-5.5336,-5.5514,-5.5472,-5.559,-5.5689,-5.5472,-5.5354,-5.5472,-5.5472,-5.5514,-5.5631,-5.5822,-5.5975,-5.5993,-5.6106,-5.6162,-5.6179,-5.6049,-5.5706,-5.5354,-5.5035,-5.4745,-5.4896,-5.5385,-5.5996,-5.6707,-5.7337,-5.7865,-5.8042,-5.807,-5.8106,-5.8197,-5.8197,-5.8179,-5.8242,-5.826,-5.8305,-5.8349,-5.8349,-5.8367,-5.8411,-5.8349,-5.8286,-5.8197,-5.8152,-5.8088,-5.7978,-5.7978,-5.7978,-5.7978,-5.7978,-5.7978,-5.7978,-5.7978,-5.7978,-5.7978,-5.7978,-5.7978,-5.7978,-5.7978,-5.7978,-5.7978,-5.7978,-5.7978,-5.7978,-5.7978,-5.7978,-5.7978,-5.7978,-5.7978,-5.7978,-5.7978,-5.7978,-5.7978,-5.7978,-5.7978,-5.7978,-5.7978,-5.7978,-5.7978,-5.7978,-5.7978,-5.7978,-5.7978,-5.7978,-5.7978,-5.7978,-5.7978,-5.7978,-5.7978,-5.7978,-5.7978,-5.7978,-5.7978,-5.7978,-5.7978,-5.8033,-5.8125,-5.8125,-5.8235,-5.8217,-5.7978,-5.8088,-5.8281,-4.8135,-4.9901,-5.051,-5.1898,-5.363,-5.4367,-5.4494,-5.4494,-5.4807,-5.4807,-5.4575,-5.493,-5.5053,-5.5053,-5.5354,-5.5413,-5.5354,-5.5113,-5.5174,-5.5277,-5.5217,-5.5294,-5.5413,-5.5572,-5.5648,-5.5706,-5.5746,-5.5822,-5.5531,-5.5413,-5.5096,-5.4683,-5.4575,-5.4939,-5.5502,-5.6128,-5.6809,-5.7443,-5.7857,-5.8006,-5.8042,-5.8024,-5.8042,-5.8024,-5.8042,-5.8042,-5.8088,-5.8152,-5.8197,-5.8242,-5.8305,-5.8349,-5.8349,-5.826,-5.8197,-5.8152,-5.8042,-5.7978,-5.7978,-5.7978,-5.7978,-5.7978,-5.7978,-5.7978,-5.7978,-5.7978,-5.7978,-5.7978,-5.7978,-5.7978,-5.7978,-5.7978,-5.7978,-5.7978,-5.7978,-5.7978,-5.7978,-5.7978,-5.7978,-5.7978,-5.7978,-5.7978,-5.7978,-5.7978,-5.7978,-5.7978,-5.7978,-5.7978,-5.7978,-5.7978,-5.7978,-5.7978,-5.7978,-5.7978,-5.7978,-5.7978,-5.7978,-5.7978,-5.7978,-5.7978,-5.7978,-5.7978,-5.7978,-5.7978,-5.7978,-5.7978,-5.7978,-5.7978,-5.7997,-5.7978,-5.7978,-5.7978,-5.7978,-5.7978,-5.807,-4.8662,-5.0476,-5.1037,-5.2435,-5.4136,-5.4448,-5.4512,-5.4512,-5.462,-5.4575,-5.4494,-5.4886,-5.4869,-5.47,-5.4992,-5.4992,-5.4869,-5.4683,-5.4683,-5.4807,-5.493,-5.5053,-5.5174,-5.5354,-5.5431,-5.549,-5.5531,-5.5531,-5.5413,-5.5294,-5.4992,-5.4575,-5.4557,-5.5122,-5.5716,-5.6221,-5.6765,-5.7321,-5.7757,-5.7941,-5.7978,-5.7978,-5.7978,-5.7978,-5.7978,-5.7978,-5.8024,-5.8042,-5.8088,-5.8088,-5.8088,-5.8088,-5.8106,-5.8106,-5.8061,-5.8042,-5.7997,-5.7978,-5.7978,-5.7978,-5.7978,-5.7978,-5.7978,-5.7978,-5.7978,-5.7978,-5.7978,-5.7978,-5.7978,-5.7978,-5.7978,-5.7978,-5.7978,-5.7978,-5.7978,-5.7978,-5.7978,-5.7978,-5.7978,-5.7978,-5.7978,-5.7978,-5.7978,-5.7978,-5.7978,-5.7978,-5.7978,-5.7978,-5.7978,-5.7978,-5.7978,-5.7978,-5.7978,-5.7978,-5.7978,-5.7978,-5.7978,-5.7978,-5.7978,-5.7978,-5.7978,-5.7978,-5.7978,-5.7978,-5.7978,-5.7978,-5.7978,-5.7978,-5.7978,-5.7978,-5.7978,-5.7978,-5.7978,-5.7978,-5.7978,-4.8544,-5.0359,-5.0972,-5.2435,-5.4293,-5.4512,-5.4512,-5.4512,-5.4512,-5.4512,-5.4512,-5.4683,-5.4683,-5.4575,-5.4683,-5.4683,-5.4575,-5.4575,-5.4575,-5.4637,-5.4683,-5.4745,-5.493,-5.4992,-5.5053,-5.5113,-5.5234,-5.5156,-5.5113,-5.493,-5.4637,-5.4557,-5.4683,-5.5224,-5.583,-5.6367,-5.6771,-5.7237,-5.758,-5.7895,-5.7978,-5.7978,-5.7978,-5.7978,-5.7978,-5.7978,-5.7978,-5.7978,-5.7978,-5.7978,-5.7978,-5.7978,-5.7997,-5.7997,-5.7997,-5.7997,-5.7978,-5.7978,-5.7978,-5.7978,-5.7978,-5.7978,-5.7978,-5.7978,-5.7978,-5.7978,-5.7978,-5.7978,-5.7978,-5.7978,-5.7978,-5.7978,-5.7978,-5.7978,-5.7978,-5.7978,-5.7978,-5.7978,-5.7978,-5.7978,-5.7978,-5.7978,-5.7978,-5.7978,-5.7978,-5.7978,-5.7978,-5.7978,-5.7978,-5.7978,-5.7978,-5.7978,-5.7978,-5.7978,-5.7978,-5.7978,-5.7978,-5.7978,-5.7978,-5.7978,-5.7978,-5.7978,-5.7978,-5.7978,-5.7978,-5.7978,-5.7978,-5.7978,-5.7978,-5.7978,-5.7978,-5.7978,-5.7978,-5.7978,-5.7978,-4.8119,-5.0069,-5.0694,-5.2459,-5.4345,-5.4512,-5.4512,-5.4512,-5.4512,-5.4512,-5.4512,-5.4512,-5.4512,-5.4512,-5.4575,-5.4575,-5.4512,-5.4512,-5.4512,-5.4512,-5.4575,-5.4575,-5.4575,-5.4512,-5.4683,-5.4683,-5.4745,-5.4852,-5.462,-5.4575,-5.462,-5.4557,-5.5061,-5.556,-5.5981,-5.6634,-5.7098,-5.7401,-5.7737,-5.7978,-5.7978,-5.7978,-5.7978,-5.7978,-5.7978,-5.7978,-5.7978,-5.7978,-5.7978,-5.7978,-5.7978,-5.7978,-5.7978,-5.7978,-5.7978,-5.7978,-5.7978,-5.7978,-5.7978,-5.7978,-5.7978,-5.7978,-5.7978,-5.7978,-5.7978,-5.7978,-5.7978,-5.7978,-5.7978,-5.7978,-5.7978,-5.7978,-5.7978,-5.7978,-5.7978,-5.7978,-5.7978,-5.7978,-5.7978,-5.7978,-5.7978,-5.7978,-5.7978,-5.7978,-5.7978,-5.7978,-5.7978,-5.7978,-5.7978,-5.7978,-5.7978,-5.7978,-5.7978,-5.7978,-5.7978,-5.7978,-5.7978,-5.7978,-5.7978,-5.7978,-5.7978,-5.7978,-5.7978,-5.7978,-5.7978,-5.7978,-5.7978,-5.7978,-5.7978,-5.7978,-5.7978,-5.7978,-5.7978,-5.7978,-5.7978,-4.8662,-5.0744,-5.2728,-5.4011,-5.4477,-5.4512,-5.4512,-5.4512,-5.4512,-5.4512,-5.4512,-5.4512,-5.4512,-5.4512,-5.4512,-5.4512,-5.4512,-5.4512,-5.4512,-5.4512,-5.4512,-5.4512,-5.4512,-5.4512,-5.4512,-5.4512,-5.4575,-5.462,-5.4575,-5.4575,-5.479,-5.5122,-5.5502,-5.583,-5.6528,-5.7116,-5.732,-5.7638,-5.781,-5.7978,-5.7978,-5.7978,-5.7978,-5.7978,-5.7978,-5.7978,-5.7978,-5.7978,-5.7978,-5.7978,-5.7978,-5.7978,-5.7978,-5.7978,-5.7978,-5.7978,-5.7978,-5.7978,-5.7978,-5.7978,-5.7978,-5.7978,-5.7978,-5.7978,-5.7978,-5.7978,-5.7978,-5.7978,-5.7978,-5.7978,-5.7978,-5.7978,-5.7978,-5.7978,-5.7978,-5.7978,-5.7978,-5.7978,-5.7978,-5.7978,-5.7978,-5.7978,-5.7978,-5.7978,-5.7978,-5.7978,-5.7978,-5.7978,-5.7978,-5.7978,-5.7978,-5.7978,-5.7978,-5.7978,-5.7978,-5.7978,-5.7978,-5.7978,-5.7978,-5.7978,-5.7978,-5.7978,-5.7978,-5.7978,-5.7978,-5.7978,-5.7978,-5.7978,-5.7978,-5.7978,-5.7978,-5.7978,-5.7978,-5.7978,-5.7978,-4.8464,-5.044,-5.2963,-5.4218,-5.4477,-5.4512,-5.4512,-5.4512,-5.4512,-5.4512,-5.4512,-5.4512,-5.4512,-5.4512,-5.4512,-5.4512,-5.4512,-5.4512,-5.4512,-5.4512,-5.4512,-5.4512,-5.4512,-5.4512,-5.4512,-5.4512,-5.4512,-5.4512,-5.4512,-5.4852,-5.5182,-5.5502,-5.5773,-5.6421,-5.7166,-5.7333,-5.7613,-5.795,-5.7978,-5.7978,-5.7978,-5.7978,-5.7978,-5.7978,-5.7978,-5.7978,-5.7978,-5.7978,-5.7978,-5.7978,-5.7978,-5.7978,-5.7978,-5.7978,-5.7978,-5.7978,-5.7978,-5.7978,-5.7978,-5.7978,-5.7978,-5.7978,-5.7978,-5.7978,-5.7978,-5.7978,-5.7978,-5.7978,-5.7978,-5.7978,-5.7978,-5.7978,-5.7978,-5.7978,-5.7978,-5.7978,-5.7978,-5.7978,-5.7978,-5.7978,-5.7978,-5.7978,-5.7978,-5.7978,-5.7978,-5.7978,-5.7978,-5.7978,-5.7978,-5.7978,-5.7978,-5.7978,-5.7978,-5.7978,-5.7978,-5.7978,-5.7978,-5.7978,-5.7978,-5.7978,-5.7978,-5.7978,-5.7978,-5.7978,-5.7978,-5.7978,-5.7978,-5.7978,-5.7978,-5.7978,-5.7978,-5.7978,-5.7978,-5.7978,-5.7978,-4.8031,-4.997,-5.2415,-5.3839,-5.4443,-5.4512,-5.4512,-5.4512,-5.4512,-5.4512,-5.4512,-5.4512,-5.4512,-5.4512,-5.4512,-5.4512,-5.4512,-5.4512,-5.4512,-5.4512,-5.4512,-5.4512,-5.4512,-5.4512,-5.4512,-5.4512,-5.4512,-5.4512,-5.4512,-5.4957,-5.5385,-5.5716,-5.6349,-5.7098,-5.7333,-5.766,-5.7978,-5.7978,-5.7978,-5.7978,-5.7978,-5.7978,-5.7978,-5.7978,-5.7978,-5.7978,-5.7978,-5.7978,-5.7978,-5.7978,-5.7978,-5.7978,-5.7978,-5.7978,-5.7978,-5.7978,-5.7978,-5.7978,-5.7978,-5.7978,-5.7978,-5.7978,-5.7978,-5.7978,-5.7978,-5.7978,-5.7978,-5.7978,-5.7978,-5.7978,-5.7978,-5.7978,-5.7978,-5.7978,-5.7978,-5.7978,-5.7978,-5.7978,-5.7978,-5.7978,-5.7978,-5.7978,-5.7978,-5.7978,-5.7978,-5.7978,-5.7978,-5.7978,-5.7978,-5.7978,-5.7978,-5.7978,-5.7978,-5.7978,-5.7978,-5.7978,-5.7978,-5.7978,-5.7978,-5.7978,-5.7978,-5.7978,-5.7978,-5.7978,-5.7978,-5.7978,-5.7978,-5.7978,-5.7978,-5.7978,-5.7978,-5.7978,-5.7978,-5.7978,-5.7978,-4.8294,-5.0641,-5.2621,-5.3822,-5.4443,-5.4512,-5.4512,-5.4512,-5.4512,-5.4512,-5.4512,-5.4512,-5.4512,-5.4512,-5.4512,-5.4512,-5.4512,-5.4512,-5.4512,-5.4512,-5.4512,-5.4512,-5.4512,-5.4512,-5.4512,-5.4512,-5.4512,-5.4512,-5.462,-5.5104,-5.5658,-5.6093,-5.6686,-5.7333,-5.7821,-5.7978,-5.7978,-5.7978,-5.7978,-5.7978,-5.7978,-5.7978,-5.7978,-5.7978,-5.7978,-5.7978,-5.7978,-5.7978,-5.7978,-5.7978,-5.7978,-5.7978,-5.7978,-5.7978,-5.7978,-5.7978,-5.7978,-5.7978,-5.7978,-5.7978,-5.7978,-5.7978,-5.7978,-5.7978,-5.7978,-5.7978,-5.7978,-5.7978,-5.7978,-5.7978,-5.7978,-5.7978,-5.7978,-5.7978,-5.7978,-5.7978,-5.7978,-5.7978,-5.7978,-5.7978,-5.7978,-5.7978,-5.7978,-5.7978,-5.7978,-5.7978,-5.7978,-5.7978,-5.7978,-5.7978,-5.7978,-5.7978,-5.7978,-5.7978,-5.7978,-5.7978,-5.7978,-5.7978,-5.7978,-5.7978,-5.7978,-5.7978,-5.7978,-5.7978,-5.7978,-5.7978,-5.7978,-5.7978,-5.7978,-5.7978,-5.7978,-5.7978,-5.7978,-5.7978,-5.7978]}]]